[[{"header":{"parameterUnit":"m.s-1","parameterCategory":1,"la1":30.6,"la2":28.766,"lo1":-90.7593,"lo2":-88.6598,"dy":0.0162,"dx":0.0183,"nx":116,"ny":114,"refTime":"2023-06-02T06:00:00:Z","depth":0,"parameterNumber":2,"parameterNumberName":"U-component_of_WINDS"},"data":[0.0,0.0,0.0,0.0,0.0,0.0,0.0,0.0,0.0,0.0,0.0,0.0,0.0,0.0,0.0,0.0,0.0,0.0,0.0,0.0,0.0,0.0,0.0,0.0,0.0,0.0,0.0,0.0,0.0,0.0,0.0,0.0,0.0,0.0,0.0,0.0,0.0,0.0,0.0,0.0,0.0,0.0,0.0,0.0,0.0,0.0,0.0,0.0,0.0,0.0,0.0,0.0,0.0,0.0,0.0,0.0,0.0,0.0,0.0,0.0,0.0,0.0,0.0,0.0,0.0,0.0,0.0,0.0,0.0,0.0,0.0,0.0,0.0,0.0,0.0,0.0,0.0,0.0,0.0,0.0,0.0,0.0,0.0,0.0,0.0,0.0,0.0,0.0,0.0,0.0,0.0,0.0,0.0,0.0,0.0,0.0,0.0,0.0,0.0,0.0,0.0,0.0,0.0,0.0,0.0,0.0,0.0,0.0,0.0,0.0,0.0,0.0,0.0,0.0,0.0,0.0,0.0,0.0,0.0,0.0,0.0,0.0,0.0,0.0,0.0,0.0,0.0,0.0,0.0,0.0,0.0,0.0,0.0,0.0,0.0,0.0,0.0,0.0,0.0,0.0,0.0,0.0,0.0,0.0,0.0,0.0,0.0,0.0,0.0,0.0,0.0,0.0,0.0,0.0,0.0,0.0,0.0,0.0,0.0,0.0,0.0,0.0,0.0,0.0,0.0,0.0,0.0,0.0,0.0,0.0,0.0,0.0,0.0,0.0,0.0,0.0,0.0,0.0,0.0,0.0,0.0,0.0,0.0,0.0,0.0,0.0,0.0,0.0,0.0,0.0,0.0,0.0,0.0,0.0,0.0,0.0,0.0,0.0,0.0,0.0,0.0,0.0,0.0,0.0,0.0,0.0,0.0,0.0,0.0,0.0,0.0,0.0,0.0,0.0,0.0,0.0,0.0,0.0,0.0,0.0,0.0,0.0,0.0,0.0,0.0,0.0,0.0,0.0,0.0,0.0,0.0,0.0,0.0,0.0,0.0,0.0,0.0,0.0,0.0,0.0,0.0,0.0,0.0,0.0,0.0,0.0,0.0,0.0,0.0,0.0,0.0,0.0,0.0,0.0,0.0,0.0,0.0,0.0,0.0,0.0,0.0,0.0,0.0,0.0,0.0,0.0,0.0,0.0,0.0,0.0,0.0,0.0,0.0,0.0,0.0,0.0,0.0,0.0,0.0,0.0,0.0,0.0,0.0,0.0,0.0,0.0,0.0,0.0,0.0,0.0,0.0,0.0,0.0,0.0,0.0,0.0,0.0,0.0,0.0,0.0,0.0,0.0,0.0,0.0,0.0,0.0,0.0,0.0,0.0,0.0,0.0,0.0,0.0,0.0,0.0,0.0,0.0,0.0,0.0,0.0,0.0,0.0,0.0,0.0,0.0,0.0,0.0,0.0,0.0,0.0,0.0,0.0,0.0,0.0,0.0,0.0,0.0,0.0,0.0,0.0,0.0,0.0,0.0,0.0,0.0,0.0,0.0,0.0,0.0,0.0,0.0,0.0,0.0,0.0,0.0,0.0,0.0,0.0,0.0,0.0,0.0,0.0,0.0,0.0,0.0,0.0,0.0,0.0,0.0,0.0,0.0,0.0,0.0,0.0,0.0,0.0,0.0,0.0,0.0,0.0,0.0,0.0,0.0,0.0,0.0,0.0,0.0,0.0,0.0,0.0,0.0,0.0,0.0,0.0,0.0,0.0,0.0,0.0,0.0,0.0,0.0,0.0,0.0,0.0,0.0,0.0,0.0,0.0,0.0,0.0,0.0,0.0,0.0,0.0,0.0,0.0,0.0,0.0,0.0,0.0,0.0,0.0,0.0,0.0,0.0,0.0,0.0,0.0,0.0,0.0,0.0,0.0,0.0,0.0,0.0,0.0,0.0,0.0,0.0,0.0,0.0,0.0,0.0,0.0,0.0,0.0,0.0,0.0,0.0,0.0,0.0,0.0,0.0,0.0,0.0,0.0,0.0,0.0,0.0,0.0,0.0,0.0,0.0,0.0,0.0,0.0,0.0,0.0,0.0,0.0,0.0,0.0,0.0,0.0,0.0,0.0,0.0,0.0,0.0,0.0,0.0,0.0,0.0,0.0,0.0,0.0,0.0,0.0,0.0,0.0,0.0,0.0,0.0,0.0,0.0,0.0,0.0,0.0,0.0,0.0,0.0,0.0,0.0,0.0,0.0,0.0,0.0,0.0,0.0,0.0,0.0,0.0,0.0,0.0,0.0,0.0,0.0,0.0,0.0,0.0,0.0,0.0,0.0,0.0,0.0,0.0,0.0,0.0,0.0,0.0,0.0,0.0,0.0,0.0,0.0,0.0,0.0,0.0,0.0,0.0,0.0,0.0,0.0,0.0,0.0,0.0,0.0,0.0,0.0,0.0,0.0,0.0,0.0,0.0,0.0,0.0,0.0,0.0,0.0,0.0,0.0,0.0,0.0,0.0,0.0,0.0,0.0,0.0,0.0,0.0,0.0,0.0,0.0,0.0,0.0,0.0,0.0,0.0,0.0,0.0,0.0,0.0,0.0,0.0,0.0,0.0,0.0,0.0,0.0,0.0,0.0,0.0,0.0,0.0,0.0,0.0,0.0,0.0,0.0,0.0,0.0,0.0,0.0,0.0,0.0,0.0,0.0,0.0,0.0,0.0,0.0,0.0,0.0,0.0,0.0,0.0,0.0,0.0,0.0,0.0,0.0,0.0,0.0,0.0,0.0,0.0,0.0,0.0,0.0,0.0,0.0,0.0,0.0,0.0,0.0,0.0,0.0,0.0,0.0,0.0,0.0,0.0,0.0,0.0,0.0,0.0,0.0,0.0,0.0,0.0,0.0,0.0,0.0,0.0,0.0,0.0,0.0,0.0,0.0,0.0,0.0,0.0,0.0,0.0,0.0,0.0,0.0,0.0,0.0,0.0,0.0,0.0,0.0,0.0,0.0,0.0,0.0,0.0,0.0,0.0,0.0,0.0,0.0,0.0,0.0,0.0,0.0,0.0,0.0,0.0,0.0,0.0,0.0,0.0,0.0,0.0,0.0,0.0,0.0,0.0,0.0,0.0,0.0,0.0,0.0,0.0,0.0,0.0,0.0,0.0,0.0,0.0,0.0,0.0,0.0,0.0,0.0,0.0,0.0,0.0,0.0,0.0,0.0,0.0,0.0,0.0,0.0,0.0,0.0,0.0,0.0,0.0,0.0,0.0,0.0,0.0,0.0,0.0,0.0,0.0,0.0,0.0,0.0,0.0,0.0,0.0,0.0,0.0,0.0,0.0,0.0,0.0,0.0,0.0,0.0,0.0,0.0,0.0,0.0,0.0,0.0,0.0,0.0,0.0,0.0,0.0,0.0,0.0,0.0,0.0,0.0,0.0,0.0,0.0,0.0,0.0,0.0,0.0,0.0,0.0,0.0,0.0,0.0,0.0,0.0,0.0,0.0,0.0,0.0,0.0,0.0,0.0,0.0,0.0,0.0,0.0,0.0,0.0,0.0,0.0,0.0,0.0,0.0,0.0,0.0,0.0,0.0,0.0,0.0,0.0,0.0,0.0,0.0,0.0,0.0,0.0,0.0,0.0,0.0,0.0,0.0,0.0,0.0,0.0,0.0,0.0,0.0,0.0,0.0,0.0,0.0,0.0,0.0,0.0,0.0,0.0,0.0,0.0,0.0,0.0,0.0,0.0,0.0,0.0,0.0,0.0,0.0,0.0,0.0,0.0,0.0,0.0,0.0,0.0,0.0,0.0,0.0,0.0,0.0,0.0,0.0,0.0,0.0,0.0,0.0,0.0,0.0,0.0,0.0,0.0,0.0,0.0,0.0,0.0,0.0,0.0,0.0,0.0,0.0,0.0,0.0,0.0,0.0,0.0,0.0,0.0,0.0,0.0,0.0,0.0,0.0,0.0,0.0,0.0,0.0,0.0,0.0,0.0,0.0,0.0,0.0,0.0,0.0,0.0,0.0,0.0,0.0,0.0,0.0,0.0,0.0,0.0,0.0,0.0,0.0,0.0,0.0,0.0,0.0,0.0,0.0,0.0,0.0,0.0,0.0,0.0,0.0,0.0,0.0,0.0,0.0,0.0,0.0,0.0,0.0,0.0,0.0,0.0,0.0,0.0,0.0,0.0,0.0,0.0,0.0,0.0,0.0,0.0,0.0,0.0,0.0,0.0,0.0,0.0,0.0,0.0,0.0,0.0,0.0,0.0,0.0,0.0,0.0,0.0,0.0,0.0,0.0,0.0,0.0,0.0,0.0,0.0,0.0,0.0,0.0,0.0,0.0,0.0,0.0,0.0,0.0,0.0,0.0,0.0,0.0,0.0,0.0,0.0,0.0,0.0,0.0,0.0,0.0,0.0,0.0,0.0,0.0,0.0,0.0,0.0,0.0,0.0,0.0,0.0,0.0,0.0,0.0,0.0,0.0,0.0,0.0,0.0,0.0,0.0,0.0,0.0,0.0,0.0,0.0,0.0,0.0,0.0,0.0,0.0,0.0,0.0,0.0,0.0,0.0,0.0,0.0,0.0,0.0,0.0,0.0,0.0,0.0,0.0,0.0,0.0,0.0,0.0,0.0,0.0,0.0,0.0,0.0,0.0,0.0,0.0,0.0,0.0,0.0,0.0,0.0,0.0,0.0,0.0,0.0,0.0,0.0,0.0,0.0,0.0,0.0,0.0,0.0,0.0,0.0,0.0,0.0,0.0,0.0,0.0,0.0,0.0,0.0,0.0,0.0,0.0,0.0,0.0,0.0,0.0,0.0,0.0,0.0,0.0,0.0,0.0,0.0,0.0,0.0,0.0,0.0,0.0,0.0,0.0,0.0,0.0,0.0,0.0,0.0,0.0,0.0,0.0,0.0,0.0,0.0,0.0,0.0,0.0,0.0,0.0,0.0,0.0,0.0,0.0,0.0,0.0,0.0,0.0,0.0,0.0,0.0,0.0,0.0,0.0,0.0,0.0,0.0,0.0,0.0,0.0,0.0,0.0,0.0,0.0,0.0,0.0,0.0,0.0,0.0,0.0,0.0,0.0,0.0,0.0,0.0,0.0,0.0,0.0,0.0,0.0,0.0,0.0,0.0,0.0,0.0,0.0,0.0,0.0,0.0,0.0,0.0,0.0,0.0,0.0,0.0,0.0,0.0,0.0,0.0,0.0,0.0,0.0,0.0,0.0,0.0,0.0,0.0,0.0,0.0,0.0,0.0,0.0,0.0,0.0,0.0,0.0,0.0,0.0,0.0,0.0,0.0,0.0,0.0,0.0,0.0,0.0,0.0,0.0,0.0,0.0,0.0,0.0,0.0,0.0,0.0,0.0,0.0,0.0,0.0,0.0,0.0,0.0,0.0,0.0,0.0,0.0,0.0,0.0,0.0,0.0,0.0,0.0,0.0,0.0,0.0,0.0,0.0,0.0,0.0,0.0,0.0,0.0,0.0,0.0,0.0,0.0,0.0,0.0,0.0,0.0,0.0,0.0,0.0,0.0,0.0,0.0,0.0,0.0,0.0,0.0,0.0,0.0,0.0,0.0,0.0,0.0,0.0,0.0,0.0,0.0,0.0,0.0,0.0,0.0,0.0,0.0,0.0,0.0,0.0,0.0,0.0,0.0,0.0,0.0,0.0,0.0,0.0,0.0,0.0,0.0,0.0,0.0,0.0,0.0,0.0,0.0,0.0,0.0,0.0,0.0,0.0,0.0,0.0,0.0,0.0,0.0,0.0,0.0,0.0,0.0,0.0,0.0,0.0,0.0,0.0,0.0,0.0,0.0,0.0,0.0,0.0,0.0,0.0,0.0,0.0,0.0,0.0,0.0,0.0,0.0,0.0,0.0,0.0,0.0,0.0,0.0,0.0,0.0,0.0,0.0,0.0,0.0,0.0,0.0,0.0,0.0,0.0,0.0,0.0,0.0,0.0,0.0,0.0,0.0,0.0,0.0,0.0,0.0,0.0,0.0,0.0,0.0,0.0,0.0,0.0,0.0,0.0,0.0,0.0,0.0,0.0,0.0,0.0,0.0,0.0,0.0,0.0,0.0,0.0,0.0,0.0,0.0,0.0,0.0,0.0,0.0,-2.3581,0.0,0.0,0.0,0.0,0.0,0.0,0.0,0.0,0.0,0.0,0.0,0.0,0.0,0.0,0.0,0.0,0.0,0.0,0.0,0.0,0.0,0.0,0.0,0.0,0.0,0.0,0.0,0.0,0.0,0.0,0.0,0.0,0.0,0.0,0.0,0.0,0.0,0.0,-2.9005,-2.939,-2.9989,-3.0779,-3.0749,-3.075,-3.0798,0.0,0.0,0.0,0.0,0.0,0.0,0.0,0.0,0.0,0.0,0.0,0.0,0.0,0.0,0.0,0.0,0.0,0.0,0.0,0.0,0.0,0.0,0.0,0.0,0.0,0.0,0.0,0.0,0.0,0.0,0.0,0.0,0.0,0.0,0.0,0.0,0.0,0.0,0.0,0.0,0.0,0.0,0.0,0.0,0.0,0.0,0.0,0.0,0.0,0.0,0.0,0.0,0.0,0.0,0.0,0.0,0.0,0.0,0.0,0.0,0.0,0.0,0.0,0.0,0.0,0.0,0.0,0.0,0.0,0.0,0.0,-2.3876,0.0,0.0,0.0,0.0,0.0,0.0,0.0,0.0,0.0,0.0,0.0,0.0,0.0,0.0,0.0,0.0,0.0,0.0,0.0,0.0,0.0,0.0,0.0,-2.802,-2.8843,-2.8829,-2.9596,-3.0075,0.0,0.0,0.0,0.0,0.0,0.0,-2.9067,-2.9067,-2.914,-2.9287,-3.0325,-3.1164,-3.1837,-3.2651,-3.2651,-3.1992,-3.1417,0.0,0.0,0.0,0.0,0.0,0.0,0.0,0.0,0.0,0.0,0.0,0.0,0.0,0.0,0.0,0.0,0.0,0.0,0.0,0.0,0.0,0.0,0.0,0.0,0.0,0.0,0.0,0.0,0.0,0.0,0.0,0.0,0.0,0.0,0.0,0.0,0.0,0.0,0.0,0.0,0.0,0.0,0.0,0.0,0.0,0.0,0.0,0.0,0.0,0.0,0.0,0.0,0.0,0.0,0.0,0.0,0.0,0.0,0.0,0.0,0.0,0.0,0.0,0.0,-2.5516,-2.4615,-2.4615,-2.4239,-2.362,-2.37,-2.3569,-2.3335,0.0,0.0,0.0,0.0,0.0,0.0,0.0,0.0,0.0,0.0,0.0,0.0,0.0,0.0,0.0,0.0,0.0,0.0,0.0,0.0,0.0,0.0,-2.8925,-2.9356,-3.01,-3.0266,-3.0355,-3.0355,0.0,0.0,0.0,0.0,0.0,-2.9351,-2.9351,-2.9686,-3.0392,-3.2354,-3.3385,-3.3495,-3.4307,-3.4618,-3.4497,-3.3724,-3.3252,-3.2945,0.0,0.0,0.0,0.0,0.0,0.0,0.0,0.0,0.0,0.0,0.0,0.0,0.0,0.0,0.0,0.0,0.0,0.0,0.0,0.0,0.0,0.0,0.0,0.0,0.0,0.0,0.0,0.0,0.0,0.0,0.0,0.0,0.0,0.0,0.0,0.0,0.0,0.0,0.0,0.0,0.0,-2.5432,-2.657,0.0,0.0,0.0,0.0,0.0,0.0,0.0,0.0,0.0,0.0,0.0,0.0,0.0,0.0,-2.6437,-2.6511,-2.6838,-2.7411,-2.7761,-2.7205,-2.5868,-2.5868,-2.5631,-2.5158,-2.4252,0.0,-2.3671,-2.4036,0.0,0.0,0.0,0.0,0.0,0.0,0.0,0.0,0.0,0.0,0.0,0.0,0.0,0.0,0.0,0.0,0.0,0.0,0.0,0.0,0.0,-2.9544,-2.9981,-3.0365,-3.0846,-3.0923,-3.0423,-3.074,0.0,0.0,0.0,-2.9687,-2.957,-2.9464,-3.0156,-3.1727,-3.3566,-3.4963,-3.5913,-3.6707,-3.6853,-3.6395,-3.6028,-3.4889,-3.3115,-3.1907,0.0,0.0,0.0,0.0,0.0,0.0,0.0,0.0,0.0,0.0,0.0,0.0,0.0,0.0,0.0,0.0,0.0,0.0,0.0,0.0,0.0,0.0,0.0,0.0,0.0,0.0,0.0,0.0,0.0,0.0,0.0,0.0,0.0,0.0,0.0,0.0,0.0,0.0,0.0,-2.621,-2.6568,-2.7338,-2.668,-2.6361,0.0,0.0,0.0,0.0,0.0,0.0,0.0,0.0,0.0,-2.6819,-2.7089,-2.7672,-2.8561,-2.8202,-2.8355,-2.9042,-2.8819,-2.8118,-2.7043,-2.6616,-2.6095,-2.55,-2.4543,-2.4015,-2.3813,-2.3891,-2.3692,-2.3414,0.0,0.0,0.0,0.0,0.0,-2.4321,0.0,0.0,0.0,0.0,0.0,0.0,0.0,0.0,0.0,0.0,0.0,0.0,-2.9434,-3.039,-3.0962,-3.075,-3.15,-3.1641,-3.0788,-3.1135,-3.097,-3.0032,-3.0006,-2.9931,-2.9771,-3.0189,-3.128,-3.3087,-3.5014,-3.6688,-3.8135,-3.8946,-3.8872,-3.8117,-3.8117,-3.6449,-3.3586,-3.2396,-3.1131,-2.9846,0.0,0.0,0.0,0.0,0.0,0.0,0.0,0.0,0.0,0.0,0.0,0.0,0.0,0.0,0.0,0.0,0.0,0.0,0.0,0.0,0.0,0.0,0.0,0.0,0.0,0.0,0.0,0.0,0.0,0.0,0.0,0.0,0.0,0.0,0.0,0.0,0.0,-2.7319,-2.756,-2.7858,-2.7465,-2.7377,0.0,0.0,0.0,0.0,0.0,0.0,-2.8136,-2.8579,-2.8778,-2.8669,-2.9076,-2.9634,-3.0378,-2.9651,-2.9651,-3.0378,-2.9839,-2.9042,-2.8077,-2.7537,-2.6826,-2.5987,-2.5048,-2.4464,-2.4187,-2.3831,-2.3403,-2.3021,-2.3682,-2.3896,-2.3855,-2.4006,-2.4132,-2.419,0.0,0.0,0.0,0.0,0.0,0.0,0.0,0.0,0.0,0.0,0.0,-3.0405,-3.0344,-3.1795,-3.2468,-3.1698,-3.2372,-3.2506,-3.1698,-3.0904,-3.0331,-3.0013,-3.0006,-2.9999,-2.9991,-3.2033,-3.3535,-3.4406,-3.7161,-3.8946,-3.9806,-4.0616,-4.0561,-3.9787,-3.9787,-3.7976,-3.482,-3.368,-3.2289,-3.07,-2.9123,0.0,0.0,0.0,0.0,0.0,0.0,0.0,0.0,0.0,0.0,0.0,0.0,0.0,0.0,0.0,0.0,0.0,0.0,0.0,0.0,0.0,0.0,0.0,0.0,0.0,0.0,0.0,0.0,0.0,0.0,0.0,0.0,0.0,0.0,0.0,0.0,0.0,0.0,-2.79,-2.8144,0.0,0.0,0.0,0.0,-2.8894,-2.9576,-3.0093,-3.0422,-3.1163,-3.1426,-3.1041,-3.0395,-3.0395,-3.114,-3.0412,-3.0412,-3.114,-3.1106,-3.0328,-2.8942,-2.8908,-2.8271,-2.7153,-2.602,-2.5347,-2.4972,-2.4075,-2.3682,-2.361,-2.3357,-2.3639,-2.4141,-2.3827,-2.3927,-2.419,0.0,0.0,0.0,0.0,0.0,0.0,0.0,0.0,-2.8308,-2.8721,-2.9778,-3.0685,-3.1172,-3.2237,-3.2776,-3.2506,-3.3256,-3.316,-3.1795,-3.141,-3.0937,-3.0299,-3.026,-3.0706,-3.1649,-3.3506,-3.5315,-3.7063,-3.964,-4.118,-4.179,-4.2594,-4.2416,-4.1442,-4.1442,-4.0212,-3.8013,-3.6058,-3.4149,-3.2303,-3.07,-2.9405,0.0,0.0,0.0,0.0,0.0,0.0,0.0,0.0,0.0,0.0,0.0,0.0,0.0,0.0,0.0,0.0,0.0,0.0,0.0,0.0,0.0,0.0,0.0,0.0,0.0,0.0,0.0,0.0,0.0,0.0,0.0,0.0,0.0,0.0,0.0,0.0,0.0,-2.8612,-2.9126,0.0,0.0,-2.9386,-2.942,-2.9695,-3.0382,-3.1064,-3.1647,-3.1971,-3.2284,-3.2611,-3.2374,-3.2357,-3.2611,-3.1867,-3.165,-3.1904,-3.0954,-3.0226,-2.9668,-2.8687,-2.7996,-2.7555,-2.6423,-2.5463,-2.466,-2.4069,-2.3417,-2.2829,-2.3099,-2.3212,-2.3259,-2.3577,-2.3785,-2.3907,0.0,0.0,0.0,0.0,0.0,0.0,0.0,0.0,-2.8384,-2.88,-2.983,-3.0841,-3.1656,-3.2691,-3.3333,-3.3333,-3.3878,-3.3609,-3.2199,-3.1583,-3.1,-3.0423,-3.0942,-3.184,-3.3118,-3.5261,-3.7376,-3.944,-4.1386,-4.2693,-4.3414,-4.3698,-4.3495,-4.2869,-4.2757,-4.1956,-4.0579,-3.8707,-3.6351,-3.3724,-3.1985,-3.065,-2.9497,0.0,0.0,0.0,0.0,0.0,0.0,0.0,0.0,0.0,0.0,0.0,0.0,0.0,0.0,0.0,0.0,0.0,0.0,0.0,0.0,0.0,0.0,0.0,0.0,0.0,0.0,0.0,0.0,0.0,0.0,0.0,0.0,0.0,0.0,0.0,-3.0166,-3.0299,-3.1068,-3.1537,-3.1419,-3.1286,-3.1224,-3.1224,-3.1901,-3.2527,-3.3021,-3.3292,-3.3643,-3.4112,-3.3914,-3.3778,-3.3778,-3.2801,-3.2293,-3.2293,-3.1055,-3.0209,-2.9685,-2.867,-2.7908,-2.7385,-2.6631,-2.5625,-2.4488,-2.4215,-2.3403,-2.2349,-2.2845,-2.2972,-2.2935,-2.3482,-2.3703,-2.3753,0.0,0.0,0.0,0.0,0.0,0.0,0.0,-2.7187,-2.828,-2.8217,-2.9593,-3.0925,-3.1747,-3.3263,-3.4218,-3.4205,-3.4212,-3.3821,-3.291,-3.1327,-3.0423,-3.0481,-3.2064,-3.3391,-3.434,-3.7345,-3.971,-4.1377,-4.2402,-4.3488,-4.4593,-4.3884,-4.371,-4.3986,-4.3662,-4.3074,-4.2286,-4.148,-3.8839,-3.5013,-3.3005,-3.1703,-3.078,0.0,0.0,0.0,0.0,0.0,0.0,0.0,0.0,0.0,0.0,0.0,0.0,0.0,0.0,0.0,0.0,0.0,0.0,0.0,0.0,0.0,0.0,0.0,0.0,0.0,0.0,0.0,0.0,0.0,0.0,0.0,0.0,0.0,-2.9077,-3.0973,-3.2522,-3.2934,-3.3915,-3.444,-3.4117,-3.3707,-3.3474,-3.3474,-3.4134,-3.4523,-3.4523,-3.5216,-3.56,-3.56,-3.4912,-3.4506,-3.4489,-3.3089,-3.2361,-3.2327,-3.1546,-3.0446,-2.9077,-2.8993,-2.8147,-2.6725,-2.6708,-2.5879,-2.4525,-2.4525,-2.3663,-2.2355,-2.2603,-2.2885,-2.32,-2.3544,-2.3682,-2.3753,0.0,0.0,0.0,0.0,0.0,0.0,0.0,-2.7187,-2.828,-2.8217,-2.9648,-3.1178,-3.2522,-3.3716,-3.4362,-3.4206,-3.4234,-3.3633,-3.2128,-3.1,-3.0942,-3.216,-3.3256,-3.5129,-3.7841,-3.9925,-4.1801,-4.349,-4.4393,-4.487,-4.4954,-4.4757,-4.4428,-4.4001,-4.3893,-4.3597,-4.3112,-4.2304,-4.0983,-3.9132,-3.5615,-3.3725,-3.273,0.0,0.0,0.0,0.0,0.0,0.0,0.0,0.0,0.0,0.0,0.0,0.0,0.0,0.0,0.0,0.0,0.0,0.0,0.0,0.0,0.0,0.0,0.0,0.0,0.0,0.0,0.0,0.0,0.0,0.0,0.0,0.0,-3.121,-3.0685,-3.2513,-3.4126,-3.4776,-3.5644,-3.613,-3.6038,-3.5401,-3.4991,-3.4991,-3.5177,-3.5295,-3.5295,-3.5481,-3.56,-3.56,-3.5397,-3.5047,-3.4506,-3.4104,-3.3626,-3.3085,-3.1799,-3.0987,-3.055,-2.889,-2.7891,-2.7469,-2.6928,-2.6167,-2.5304,-2.5304,-2.4425,-2.3052,-2.2592,-2.2467,-2.2584,-2.2865,-2.3271,-2.3753,0.0,0.0,0.0,0.0,0.0,0.0,0.0,-2.7187,-2.8281,-2.8254,-2.9688,-3.117,-3.2392,-3.3055,-3.3475,-3.3634,-3.3404,-3.2807,-3.1768,-3.1231,-3.1698,-3.3372,-3.4949,-3.7219,-4.0277,-4.1989,-4.3508,-4.4836,-4.5217,-4.5352,-4.5312,-4.5011,-4.467,-4.4233,-4.4091,-4.382,-4.3478,-4.3002,-4.2525,-4.1846,-3.8784,-3.6655,-3.5059,-3.2379,-3.1184,-3.0806,-2.9713,-2.9145,-2.8793,-2.7789,0.0,0.0,0.0,0.0,0.0,0.0,0.0,0.0,0.0,0.0,0.0,0.0,0.0,0.0,0.0,0.0,0.0,0.0,0.0,0.0,0.0,0.0,0.0,0.0,-3.2276,-3.341,-3.3931,-3.5115,-3.6197,-3.6941,-3.7702,-3.8183,-3.8183,-3.7753,-3.7364,-3.706,-3.7026,-3.6907,-3.6563,-3.6282,-3.6096,-3.6096,-3.5769,-3.538,-3.4962,-3.4641,-3.4134,-3.3389,-3.2222,-3.1193,-3.0226,-2.9228,-2.8229,0.0,-2.7198,-2.6573,-2.5592,-2.5592,-2.4915,0.0,0.0,0.0,0.0,0.0,-2.3129,-2.3724,0.0,0.0,0.0,0.0,0.0,0.0,0.0,-2.7109,-2.8184,-2.8281,-2.9621,-3.0918,-3.1804,-3.1915,-3.2159,-3.2739,-3.2183,-3.1763,-3.1705,-3.1775,-3.266,-3.4552,-3.6969,-3.9469,-4.2019,-4.3643,-4.4816,-4.5594,-4.5398,-4.5465,-4.574,-4.5141,-4.4821,-4.4712,-4.4275,-4.3868,-4.3515,-4.3606,-4.3588,-4.3386,-4.1956,-3.9918,-3.7511,-3.511,-3.4359,-3.4365,-3.2893,-3.1454,-3.0098,-2.925,0.0,0.0,0.0,0.0,0.0,0.0,0.0,0.0,0.0,0.0,0.0,0.0,0.0,0.0,0.0,0.0,0.0,0.0,0.0,0.0,0.0,0.0,0.0,0.0,-3.3986,-3.5639,-3.7838,-3.8159,-3.8396,-3.9039,-3.9706,-4.0096,-4.0096,-4.0028,-3.9706,-3.9039,-3.892,-3.8582,-3.7939,0.0,0.0,0.0,0.0,-3.5735,-3.5735,-3.4912,-3.4167,-3.3508,-3.2679,-3.1278,-2.9399,-2.9871,-2.9008,-2.7097,-2.7587,-2.7063,-2.5829,-2.5761,-2.5287,-2.4572,-2.4044,-2.3202,-2.2335,-2.2599,-2.3081,0.0,0.0,0.0,0.0,0.0,0.0,0.0,0.0,-2.6582,-2.75,-2.8203,-2.9179,-3.0364,-3.1828,-3.1985,-3.2002,-3.2092,-3.1902,-3.1773,-3.1711,-3.2314,-3.4045,-3.7123,-3.9034,-4.1208,-4.3758,-4.4816,-4.5441,-4.5594,-4.6233,-4.6598,-4.6654,-4.6522,-4.6148,-4.5536,-4.481,-4.4125,-4.3551,-4.4195,-4.4085,-4.3478,-4.3149,-4.1589,-3.9237,-3.7456,-3.6003,-3.4822,-3.4247,-3.38,-3.3329,-3.224,-3.1707,-3.1363,-3.076,-2.9671,0.0,0.0,0.0,0.0,0.0,0.0,0.0,0.0,0.0,0.0,0.0,0.0,0.0,0.0,0.0,0.0,0.0,0.0,0.0,-3.5458,-3.6671,-3.7804,-3.9453,-3.9673,-3.974,-3.9876,-4.0011,-4.0096,-4.0096,-3.9571,-3.914,-3.9005,-3.8447,-3.8058,-3.7922,-3.777,0.0,-3.7686,-3.6958,-3.6575,-3.6575,-3.5182,-3.4421,-3.4269,0.0,0.0,-3.1633,-3.0581,-2.9871,-2.9381,-2.828,-2.7638,-2.7334,-2.6725,-2.6048,-2.5253,-2.3975,-2.3011,-2.2335,-2.2599,-2.2784,-2.2972,0.0,0.0,0.0,0.0,0.0,0.0,0.0,-2.6445,-2.7168,-2.7598,-2.8789,-2.9881,-3.0654,-3.0785,-3.0737,-3.0606,-3.0537,-3.0665,-3.1069,-3.2639,-3.5084,-3.8488,-4.0258,-4.2335,-4.4902,-4.5383,-4.5594,-4.5594,-4.6471,-4.6904,-4.6904,-4.7308,-4.7209,-4.6657,-4.5647,-4.4894,-4.4404,-4.4612,-4.425,-4.3551,-4.3938,-4.313,-4.1532,-3.99,-3.8524,-3.7374,-3.6803,-3.5926,-3.4891,-3.3941,-3.318,-3.2524,-3.174,-3.066,-2.9543,0.0,0.0,0.0,0.0,0.0,0.0,0.0,0.0,0.0,0.0,0.0,0.0,0.0,0.0,-3.099,0.0,0.0,-3.4692,-3.6975,-3.7973,-3.8836,-3.9943,-4.0096,-4.0096,-4.0096,-4.0096,-4.0096,-4.0096,-3.9774,-3.9554,-3.9554,-3.9191,-3.8988,-3.8988,-3.865,-3.8447,-3.8447,-3.7388,-3.6795,-3.6795,-3.5639,-3.4675,-3.3931,-3.3203,-3.2273,-3.1173,-3.0446,-2.9905,-2.9482,-2.8314,-2.7807,-2.7739,-2.6996,-2.6268,-2.5525,-2.4797,-2.3816,-2.2815,-2.2586,-2.2573,-2.2759,0.0,0.0,0.0,0.0,0.0,0.0,0.0,-2.6309,-2.6816,-2.6973,-2.8223,-2.9139,-2.9242,-2.9291,-2.9263,-2.9088,-2.9163,-2.9666,-3.0684,-3.308,-3.5975,-3.9381,-4.1143,-4.3162,-4.5556,-4.5768,-4.5768,-4.5594,-4.6797,-4.7298,-4.7154,-4.7971,-4.8076,-4.756,-4.6348,-4.5515,-4.5037,-4.4973,-4.447,-4.3791,-4.4617,-4.4452,-4.3552,-4.1956,-4.0836,-4.001,-3.9038,-3.7457,-3.5678,-3.4864,-3.3851,-3.2831,-3.2348,-3.1377,-3.0213,-2.9148,-2.8124,0.0,0.0,0.0,0.0,0.0,0.0,0.0,0.0,-2.9178,-3.0245,-3.1562,-3.2425,-3.3359,-3.4692,-3.5554,-3.6546,-3.8075,-3.8819,-3.9436,-4.0028,-4.0096,-3.9994,-3.9723,-3.9926,-4.0096,-4.0096,-4.0096,-4.0096,-4.0096,-4.0096,-4.0096,-4.0096,-3.9554,-3.9208,-3.9208,-3.7794,-3.7015,-3.7015,-3.5943,-3.4726,-3.3406,-3.3254,-3.2188,-3.0311,-3.0311,-2.9905,-2.9162,-2.8196,-2.7722,-2.7536,-2.6945,-2.6353,-2.5812,-2.5659,-2.4797,-2.3511,-2.2784,-2.2559,-2.2621,0.0,0.0,0.0,0.0,0.0,0.0,0.0,0.0,-2.6113,-2.6894,-2.7168,-2.7578,-2.8359,-2.8389,-2.8315,-2.824,-2.889,-2.9954,-3.155,-3.3974,-3.6853,-4.0227,-4.2027,-4.3778,-4.5556,-4.6355,-4.6374,-4.5594,-4.7952,-4.8721,-4.799,-4.8856,-4.8652,-4.756,-4.6348,-4.5181,-4.4209,-4.5306,-4.5296,-4.4654,-4.5443,-4.5278,-4.4397,-4.2782,-4.168,-4.0765,-3.9258,-3.7631,-3.6113,-3.5237,-3.4385,-3.379,-3.4398,-3.2869,-3.074,-3.0246,-2.8774,-2.721,-2.6808,-2.6691,-2.6691,-2.6691,-2.774,-2.9111,0.0,0.0,-3.3136,-3.3947,-3.4726,-3.5504,-3.6389,-3.7144,-3.8125,-3.9622,-3.9926,-4.0011,-4.0096,-4.0096,-3.9622,-3.8311,-3.9292,-4.0096,-4.0096,-4.0096,-4.0096,-4.0096,-4.0096,-4.0096,-4.0096,-4.0028,-3.9977,-3.9977,-3.8548,-3.7787,-3.7787,-3.5673,-3.4201,-3.3389,-3.273,-3.1955,-3.1072,-3.1072,-3.0666,-2.9905,-2.8432,-2.7418,-2.681,-2.6725,-2.664,-2.6505,-2.5862,-2.5101,-2.4288,-2.3545,-2.288,-2.2374,0.0,0.0,0.0,0.0,0.0,0.0,0.0,0.0,0.0,-2.6191,-2.6699,-2.7148,-2.75,-2.7517,-2.7295,-2.6755,-2.787,-2.9302,-3.0999,-3.3861,-3.7007,-4.0342,-4.2162,-4.3874,-4.5556,-4.6451,-4.6721,-4.6355,-4.7894,-4.8721,-4.8856,-4.9221,-4.9135,-4.8621,-4.7914,-4.6902,-4.5781,-4.6113,-4.5652,-4.4728,-4.5076,-4.4452,-4.3185,-4.2047,-4.0524,-3.8909,-3.823,-3.6633,0.0,-3.4417,-3.4082,-3.3788,-3.3647,-3.2486,-3.0979,-2.9919,-2.8991,-2.8148,-2.7504,-2.7334,-2.7571,-2.845,-2.9482,-3.0768,-3.2679,-3.3931,-3.5008,-3.6231,-3.7077,-3.7804,-3.8589,-3.8979,-3.9377,0.0,-4.0096,-4.0096,-4.0096,-3.9343,-3.843,-3.7381,-3.7381,-3.7669,-3.8132,-3.8589,-3.8988,-3.9436,-3.9859,-4.0096,-4.0096,-4.0096,-4.0096,-4.0096,-3.8667,-3.7905,-3.7905,-3.6062,-3.4556,-3.3406,-3.3085,-3.2104,-3.0565,-3.0565,-2.9905,-2.872,-2.8077,-2.7367,-2.6691,-2.6691,-2.6691,-2.6657,-2.6353,-2.5795,-2.5,-2.3833,-2.2936,-2.2324,0.0,0.0,0.0,0.0,0.0,0.0,0.0,0.0,0.0,0.0,-2.625,-2.6641,-2.6641,-2.6641,-2.6387,-2.5721,-2.6968,-2.8376,-2.9783,-3.2766,-3.5964,-3.9304,-4.1335,-4.3278,-4.521,-4.6336,-4.6904,-4.6904,-4.7952,-4.8779,-4.9394,-4.9394,-4.926,-4.9019,-4.8439,-4.7497,-4.6326,-4.621,-4.5578,-4.4673,-4.447,-4.3406,-4.1827,-4.0579,-3.8469,-3.6189,-3.6409,-3.505,-3.3091,-3.2889,-3.2816,-3.2742,-3.2394,-3.1633,-3.068,-2.9451,-2.8752,-2.8329,-2.8168,-2.828,-2.8804,-3.0328,-3.1579,-3.2899,-3.473,-3.5859,-3.6924,-3.8227,-3.8768,-3.9157,-3.9706,-3.9808,-3.9808,-3.9808,-3.9977,-4.0028,-3.9842,-3.8531,-3.7229,-3.6288,-3.5115,-3.4709,-3.5475,-3.6789,-3.7821,-3.8345,-3.9266,-3.9808,-3.9808,-3.9994,-4.0096,-4.0096,-3.8667,-3.7905,-3.7905,-3.636,-3.4856,-3.3406,-3.3406,-3.2357,-3.0395,-3.0192,-2.9261,-2.7807,-2.7807,-2.7367,-2.6691,-2.6691,-2.6691,-2.6691,-2.6691,-2.6251,-2.5473,-2.4408,-2.341,-2.26,0.0,0.0,0.0,0.0,0.0,0.0,0.0,0.0,0.0,0.0,0.0,0.0,0.0,-2.5742,-2.5702,-2.5605,-2.6416,-2.7268,-2.8024,-3.0486,-3.3376,-3.6661,-3.9219,-4.1766,-4.4278,-4.6028,-4.6904,-4.6904,-4.8548,-4.9375,-4.9394,-4.9394,-4.8952,-4.8096,-4.6917,-4.5737,-4.4699,-4.5077,-4.5027,-4.4635,-4.3846,-4.2561,-4.0875,-3.8521,-3.5587,-3.2839,-3.3642,-3.2852,-3.136,-3.0577,-3.032,-3.0448,-3.1201,-3.0633,-2.9584,-2.9205,-2.7987,-2.7097,-2.8553,-2.9482,-3.0378,-3.187,-3.3863,-3.5707,-3.6541,-3.7838,-3.9106,-3.9893,-3.9486,-3.9005,-3.9022,-3.9022,-3.9022,-3.9022,-3.9639,-3.9859,-3.9123,-3.7777,-3.6271,-3.4742,-3.2645,-3.1613,0.0,-3.5103,-3.6846,-3.688,-3.8217,-3.9022,-3.9022,-3.9723,-4.0096,-4.0096,-3.8667,-3.7905,-3.7905,-3.636,-3.4856,-3.3406,-3.3406,-3.2628,-3.114,-3.0429,-2.9261,-2.7807,-2.7807,-2.7367,-2.6691,-2.6691,-2.6691,-2.6691,-2.6691,-2.6251,-2.5592,-2.5542,-2.4611,-2.3359,0.0,0.0,0.0,0.0,0.0,0.0,0.0,0.0,0.0,0.0,0.0,0.0,0.0,0.0,0.0,0.0,-2.6386,-2.7181,-2.8,-3.0361,-3.2722,-3.4937,-3.7469,-3.9758,-4.1747,-4.3489,-4.4913,-4.6028,-4.6586,-4.7451,-4.8529,-4.799,-4.7586,-4.7299,-4.7204,-4.6497,-4.5351,-4.4732,-4.4244,-4.3681,-4.1277,-3.9662,-3.8432,-3.5973,-3.3697,-3.177,0.0,-3.0723,-2.9757,-2.95,-2.939,-2.9392,-2.9404,-2.9125,-2.8878,-2.9244,-2.9162,-2.9279,-3.0787,-3.209,-3.3372,-3.4917,-3.6214,-3.7466,-3.8708,-3.9385,-3.9512,-3.8785,-3.8041,-3.7235,-3.6197,-3.6417,-3.6924,-3.7455,-3.8589,-3.9276,-3.9022,-3.7743,-3.6051,-3.4015,-3.2679,0.0,0.0,0.0,0.0,-3.5893,-3.7415,-3.8481,-3.8971,-3.9706,-4.0096,-4.0096,-3.914,-3.8396,-3.7905,-3.6891,-3.5385,-3.3389,-3.1918,-3.1207,-3.1157,-2.9922,-2.9076,-2.8569,-2.8027,-2.7367,-2.6691,-2.6691,-2.6691,-2.6691,-2.6691,-2.6539,-2.6336,-2.6336,-2.571,-2.4797,0.0,0.0,0.0,0.0,0.0,0.0,0.0,0.0,0.0,0.0,0.0,0.0,0.0,0.0,0.0,0.0,0.0,-2.6606,-2.7097,-2.8898,-3.0672,-3.2301,-3.4545,-3.668,-3.8661,-3.9815,-4.1354,-4.3344,-4.3036,-4.3739,-4.5374,-4.4566,-4.4182,-4.4173,-4.4068,-4.3536,-4.2637,-4.1822,-4.1271,-4.0708,-3.834,-3.6725,-3.5532,-3.366,-3.1935,0.0,-2.9971,-2.9445,-2.9005,-2.9005,-2.9005,-2.8952,-2.8713,-2.8619,-2.883,-2.9911,-3.0491,-3.1213,-3.3248,-3.4681,-3.5932,-3.7248,-3.8125,-3.892,-3.9893,-3.9706,-3.8954,-3.7753,-3.6468,-3.5182,-3.3952,-3.41,-3.459,-3.512,-3.6197,-3.7094,-3.7347,-3.6135,-3.4849,-3.3897,-3.2679,-3.1752,0.0,0.0,0.0,-3.4687,-3.6738,-3.8108,-3.8582,-3.9571,-4.0096,-4.0096,-3.9377,-3.865,-3.7922,-3.7185,-3.5678,-3.3389,-3.1427,-3.0598,-3.0784,-3.011,-2.933,-2.8552,-2.8332,-2.7655,-2.6691,-2.6691,-2.6691,-2.6691,-2.6691,-2.6691,-2.6691,-2.6691,-2.6404,-2.5896,0.0,0.0,0.0,0.0,0.0,0.0,0.0,0.0,0.0,0.0,0.0,0.0,0.0,0.0,0.0,0.0,0.0,0.0,-2.5418,-2.6275,-2.7457,-2.8907,-3.0641,-3.2712,-3.5192,-3.5288,-3.6526,-3.9034,-3.82,-3.8642,-4.0227,-3.9496,-3.9169,-3.9123,-3.8076,-3.7414,-3.7079,-3.6841,-3.6549,-3.6156,-3.5206,-3.3903,-3.2454,-3.1604,-3.0338,-2.9005,-2.9005,-2.9005,-2.9005,-2.9005,-2.9012,-2.9037,-2.905,-2.9066,-2.941,-3.1144,-3.1911,-3.282,-3.5809,-3.7189,-3.7983,-3.8836,-3.9622,-4.013,-4.0011,-3.887,-3.7601,-3.6761,-3.4776,-3.2983,-3.2209,-3.2141,-3.2209,-3.2293,-3.3017,-3.3829,-3.4573,-3.3512,-3.3139,0.0,0.0,0.0,0.0,0.0,0.0,-3.3525,0.0,-3.7889,-3.7956,-3.9285,-4.0045,-4.0096,-3.9335,-3.8608,-3.7922,-3.7019,-3.5498,-3.3389,-3.1881,-3.0799,-3.0192,-3.0886,-2.9989,-2.7908,-2.8671,-2.813,-2.6691,-2.6691,-2.6691,-2.6691,-2.6691,-2.6691,-2.6691,-2.6691,-2.6691,-2.6556,0.0,0.0,0.0,0.0,0.0,0.0,0.0,0.0,0.0,0.0,0.0,0.0,0.0,0.0,0.0,0.0,0.0,0.0,-2.5473,-2.6253,-2.6884,-2.7222,-2.8852,-3.0371,-3.1673,-3.2346,-3.3603,-3.5494,-3.5283,-3.5718,-3.6776,-3.718,-3.7353,-3.7358,-3.7481,-3.7375,-3.7041,-3.6135,-3.5592,-3.5151,-3.3128,-3.2063,-3.1549,-3.0155,-2.9354,-2.9005,-2.9005,-2.9005,-2.9005,-2.9005,-2.9199,-2.9492,-2.9726,-3.0035,-3.0714,-3.2931,-3.4118,-3.519,-3.7517,-3.9204,-4.0228,-3.9884,-4.0358,-4.0493,-3.8836,-3.7736,-3.6406,-3.3952,-3.2104,-3.0528,-2.9176,-2.9888,0.0,-3.2124,-3.4341,0.0,-3.6941,-3.7178,0.0,-3.6304,0.0,-3.4619,-3.4991,-3.4856,0.0,0.0,-3.666,-3.755,-3.865,-3.9031,-3.9489,-4.007,-3.8788,-3.802,-3.7882,-3.5027,-3.3539,-3.3368,-3.1441,-3.0677,-3.092,-3.1106,-3.0277,-2.8722,-2.8908,-2.813,-2.6691,-2.6691,-2.6691,-2.6691,-2.6691,-2.6691,-2.6691,-2.6691,-2.647,-2.6158,0.0,0.0,0.0,0.0,0.0,0.0,0.0,0.0,0.0,0.0,0.0,0.0,0.0,0.0,0.0,0.0,0.0,0.0,0.0,-2.5915,-2.6138,-2.6029,-2.6928,-2.7832,-2.8712,-2.8846,-2.9737,-3.1435,-3.1044,-3.1314,-3.2179,-3.2641,-3.2833,-3.2859,-3.344,-3.3593,-3.344,-3.2954,-3.2449,0.0,0.0,-3.0136,-2.9763,-2.9207,-2.9005,-2.9005,-2.9005,-2.9005,-2.917,-3.0216,-3.0728,-3.1048,-3.1802,-3.2645,-3.381,-3.5993,-3.7386,-3.8524,-3.9832,-4.1064,-4.1709,-4.0416,-4.0155,-3.9732,-3.7838,-3.6315,-3.4539,-3.1867,-3.0142,-2.872,-2.7554,-2.828,-2.9362,0.0,0.0,0.0,-3.574,-3.6569,-3.7077,0.0,-3.6603,0.0,-3.6563,-3.6332,-3.6453,0.0,-3.7552,-3.8132,-3.8954,-3.8933,-3.9113,-3.9558,-3.8434,-3.7676,-3.7415,-3.4152,-3.2786,-3.3368,-3.1589,-3.0896,-3.119,-3.119,-3.0565,-2.9482,0.0,-2.8602,-2.7164,-2.6956,-2.6807,-2.6674,-2.647,-2.6384,-2.6384,-2.6384,-2.6086,-2.5652,0.0,0.0,0.0,0.0,0.0,0.0,0.0,0.0,0.0,0.0,0.0,0.0,0.0,0.0,0.0,0.0,0.0,0.0,0.0,0.0,-2.5447,-2.5327,-2.5298,-2.5654,-2.6409,-2.5692,-2.6096,-2.7741,-2.6851,-2.6928,-2.7895,-2.778,-2.7857,-2.8082,-2.8607,-2.889,-2.8974,-2.9298,-2.8995,-2.8322,-2.8798,-2.8583,-2.8044,0.0,-2.9005,-2.9005,-2.9005,-2.9005,-2.939,-3.1904,-3.2748,-3.3025,-3.4486,-3.5889,-3.7377,-3.9316,-4.0612,-4.1548,-4.2195,-4.262,-4.2502,-4.0808,-3.9604,-3.843,-3.6863,-3.4658,-3.2374,-3.0224,-2.8652,-2.7452,-2.6826,-2.73,-2.7874,-2.8077,0.0,-3.1173,-3.3389,-3.4421,-3.5723,-3.7804,-3.7466,-3.7388,-3.8125,-3.7516,-3.7304,-3.7798,-3.8564,-3.8948,-3.8858,-3.8798,-3.8646,-3.8466,-3.7777,-3.7126,-3.6504,-3.3681,-3.2594,-3.3252,-3.1764,-3.1059,-3.109,-3.1165,-3.0746,-2.9977,0.0,0.0,-2.78,-2.7226,-2.6833,-2.6587,-2.6171,-2.5959,-2.5906,-2.5961,-2.568,-2.5229,0.0,0.0,0.0,0.0,0.0,0.0,0.0,0.0,0.0,0.0,-2.5703,-2.5703,0.0,0.0,0.0,0.0,0.0,0.0,0.0,0.0,0.0,-2.5387,-2.5326,-2.5365,-2.5519,-2.5385,-2.5808,-2.6832,-2.5942,-2.6346,-2.7876,-2.7159,-2.7563,-2.8896,-2.9002,-2.9309,-2.9801,-2.9681,-2.9448,-2.9159,-2.9056,-2.8932,-2.8803,-2.895,0.0,0.0,-2.9005,-2.9005,-2.9464,-3.2559,-3.3587,-3.4032,-3.6524,-3.765,-3.8472,-4.0754,-4.0922,-4.0858,-4.3149,-4.3096,-4.233,-4.1923,-3.9935,-3.7533,-3.5385,-3.2713,-3.019,-2.8534,-2.7486,-2.6843,-2.6725,-2.73,-2.8229,-2.948,-3.0954,-3.2679,-3.4906,-3.6434,-3.7686,0.0,-3.8684,-3.8903,-3.9656,-3.9039,0.0,0.0,0.0,0.0,-3.8023,-3.7999,-3.7448,-3.6192,-3.5551,-3.5168,-3.4982,-3.2292,-3.1523,-3.2619,-3.0663,-3.0003,-3.0552,-3.1003,-3.0535,-2.9363,0.0,0.0,-2.7962,-2.683,-2.633,-2.627,-2.6079,-2.5726,-2.5392,-2.5852,-2.5722,-2.5378,0.0,0.0,0.0,0.0,0.0,0.0,0.0,-2.5703,-2.5703,-2.5703,-2.5703,-2.5703,-2.5703,-2.5703,0.0,0.0,0.0,0.0,0.0,0.0,0.0,-2.5409,-2.5335,-2.5308,-2.5308,-2.5731,-2.6173,-2.6601,0.0,-2.664,-2.7876,-2.7005,-2.7274,-2.8492,-2.8915,-2.9206,-2.9382,-2.9609,-2.9326,-2.8741,-2.8927,-2.8748,-2.8429,-2.884,0.0,0.0,-2.9005,-2.8863,-2.9156,-3.2164,-3.3058,-3.3613,-3.766,-3.9601,-4.0544,-4.1476,-4.2181,-4.2724,-4.3072,-4.2994,-4.2534,-4.1378,-3.8898,-3.6129,-3.3884,-3.136,-2.9093,-2.7554,-2.6945,-2.6691,-2.6691,-2.73,-2.8043,-2.8787,-3.0176,-3.1935,-3.4129,-3.5419,-3.684,-3.8768,-3.8311,-3.8454,0.0,-3.9089,0.0,0.0,0.0,0.0,-3.6814,-3.6394,-3.5663,-3.4525,-3.3547,-3.3208,-3.3559,-3.1253,-3.0551,-3.1438,-3.0407,-2.9911,-2.9902,-3.0479,-3.0216,-2.9307,0.0,0.0,-2.8137,-2.7253,-2.682,-2.6648,-2.5971,-2.5746,-2.5811,-2.5727,-2.5613,-2.5492,0.0,0.0,0.0,0.0,0.0,0.0,0.0,-2.5703,-2.5703,-2.5703,-2.5703,-2.5703,-2.5703,-2.5703,-2.5703,0.0,0.0,0.0,0.0,0.0,0.0,0.0,0.0,0.0,-2.5308,0.0,0.0,-2.6601,-2.6409,0.0,0.0,0.0,0.0,0.0,-2.8896,-2.9071,-2.9084,-2.9515,-2.9185,0.0,0.0,-2.862,0.0,0.0,0.0,0.0,0.0,-2.8803,-2.8909,-3.1402,-3.2115,-3.27,-3.6997,-3.9723,-4.1321,-4.1258,-4.2604,-4.3902,-4.294,-4.2765,-4.2442,-4.0709,-3.7685,-3.4619,-3.273,-3.033,-2.8163,-2.6962,-2.6691,-2.6691,-2.6691,-2.7182,-2.7621,-2.7773,-2.8821,-3.0376,-3.2628,-3.3694,-3.525,-3.7956,-3.7669,0.0,-3.9706,0.0,0.0,0.0,0.0,0.0,0.0,-3.4735,-3.3946,-3.3333,-3.1987,-3.1583,-3.2169,-3.0333,-2.9693,-3.0299,-3.0085,-2.9713,-2.924,-2.9826,-2.9783,-2.9203,0.0,0.0,0.0,-2.7588,-2.7216,-2.6979,-2.6004,-2.587,-2.6174,-2.5768,-2.5704,-2.5809,0.0,0.0,0.0,0.0,0.0,0.0,0.0,-2.5703,-2.5703,-2.5703,-2.5703,-2.5703,-2.5703,-2.5703,-2.5703,0.0,0.0,0.0,0.0,0.0,0.0,0.0,0.0,0.0,0.0,0.0,0.0,-2.6601,-2.5808,0.0,0.0,0.0,0.0,0.0,0.0,-2.9397,-2.9877,-2.9742,0.0,0.0,0.0,0.0,0.0,0.0,0.0,0.0,0.0,-2.8982,-2.9161,-3.0585,-3.1237,-3.1696,-3.296,-3.5585,-3.8419,-3.9478,-4.0502,-4.1685,-4.3446,-4.268,-4.1316,-4.1004,-3.7237,-3.3372,-3.2489,-2.9516,-2.686,-2.6725,-2.6691,-2.6691,-2.6691,-2.6759,-2.7012,-2.7689,-2.7925,-2.8804,-3.1072,-3.2611,-3.4117,-3.5718,0.0,0.0,-3.9073,0.0,0.0,0.0,0.0,0.0,0.0,-3.3466,-3.2711,-3.2667,-3.1319,-3.0664,-3.0781,-2.9386,-2.903,-2.9659,-2.8987,-2.867,-2.869,-2.9249,-2.9157,-2.8583,0.0,0.0,0.0,-2.7176,-2.6663,-2.6639,-2.6404,-2.6054,-2.574,-2.6159,-2.639,-2.6497,0.0,0.0,0.0,0.0,0.0,0.0,-2.5703,-2.5703,-2.5703,-2.5703,-2.5703,-2.5703,-2.5703,-2.5703,-2.5703,-2.5703,0.0,0.0,0.0,0.0,0.0,0.0,0.0,0.0,0.0,0.0,-2.625,-2.6601,-2.625,0.0,0.0,0.0,0.0,0.0,0.0,0.0,-2.9248,-2.9066,0.0,0.0,0.0,0.0,0.0,0.0,0.0,0.0,0.0,0.0,-2.8711,-2.923,-2.935,-2.935,-2.9707,-3.1398,-3.374,-3.6043,-3.8329,-4.0301,-4.1171,-4.1559,-4.1317,-3.9566,-3.623,-3.2963,-3.134,-2.8755,-2.6691,-2.6691,-2.6691,-2.6691,-2.6691,-2.6691,-2.6793,-2.7097,-2.7148,-2.7774,-2.9619,-3.0378,-3.1782,-3.4607,-3.574,0.0,0.0,0.0,0.0,0.0,0.0,0.0,0.0,-3.2223,-3.1715,-3.1359,-3.0433,-2.9786,-2.9381,-2.8463,-2.8139,-2.8393,-2.8474,-2.8327,-2.8015,-2.8611,-2.8535,-2.7944,0.0,0.0,0.0,-2.74,-2.721,-2.716,-2.6702,-2.6639,-2.6786,-2.6581,-2.682,-2.721,0.0,0.0,0.0,0.0,0.0,-2.5703,-2.5703,-2.5703,-2.5683,-2.5641,-2.5663,-2.5663,-2.5676,-2.5663,-2.5684,-2.5703,-2.5703,0.0,0.0,0.0,0.0,0.0,0.0,0.0,0.0,0.0,-2.6212,-2.6212,-2.6212,-2.6659,0.0,0.0,0.0,0.0,0.0,0.0,0.0,0.0,0.0,0.0,0.0,0.0,0.0,0.0,0.0,0.0,0.0,0.0,0.0,0.0,0.0,-2.8006,-2.7779,-2.8508,-2.9982,-3.2959,-3.5882,-3.8212,-3.8321,-3.934,-3.9784,-3.7199,-3.4641,-3.2239,-3.0226,-2.818,-2.6691,-2.6691,-2.6691,-2.6691,-2.6691,-2.6691,-2.6691,-2.6691,-2.6691,-2.7114,-2.8271,-2.8805,-3.0099,0.0,0.0,0.0,0.0,0.0,0.0,0.0,0.0,0.0,0.0,-3.1197,-3.0898,-3.0253,-2.9624,-2.8966,-2.8308,-2.7839,-2.76,-2.7625,-2.8018,-2.8018,-2.761,-2.8042,-2.7993,0.0,0.0,0.0,0.0,-2.76,-2.76,-2.754,-2.7091,-2.718,-2.754,-2.7076,-2.7195,-2.76,0.0,0.0,0.0,0.0,0.0,0.0,-2.5703,-2.5703,-2.5642,-2.551,-2.5559,-2.5599,-2.5604,-2.5591,-2.5625,-2.5684,-2.5703,0.0,0.0,0.0,0.0,0.0,0.0,0.0,0.0,0.0,-2.5308,-2.5308,-2.5308,-2.5769,-2.6621,-2.6621,-2.7082,0.0,0.0,0.0,0.0,0.0,0.0,0.0,0.0,0.0,0.0,0.0,0.0,0.0,0.0,0.0,0.0,0.0,0.0,0.0,0.0,-2.7319,-2.7879,-3.0694,-3.3114,-3.4942,-3.5355,-3.5879,-3.5893,-3.3939,-3.2324,-3.0818,-2.9348,-2.7808,-2.6691,-2.6691,-2.6691,-2.6691,-2.6691,-2.6691,-2.6691,-2.6691,-2.6691,-2.6791,-2.7075,-2.8319,-2.951,0.0,0.0,0.0,0.0,0.0,0.0,0.0,0.0,0.0,0.0,0.0,-3.0223,-2.9636,-2.8951,-2.8278,-2.7615,-2.76,-2.76,-2.76,-2.7625,-2.7625,-2.76,-2.7625,0.0,0.0,0.0,0.0,0.0,-2.76,-2.76,-2.76,-2.7585,-2.7585,-2.76,-2.7585,-2.7585,-2.76,0.0,0.0,0.0,0.0,0.0,0.0,0.0,-2.5697,-2.5658,-2.5522,-2.5522,-2.5531,-2.5535,-2.5524,-2.5563,-2.5625,-2.5664,0.0,0.0,0.0,0.0,0.0,0.0,0.0,0.0,0.0,-2.5308,-2.5308,-2.5308,-2.5442,-2.5712,-2.6327,-2.6755,-2.7044,-2.7621,0.0,0.0,0.0,0.0,0.0,0.0,0.0,0.0,0.0,0.0,0.0,0.0,0.0,0.0,0.0,0.0,0.0,0.0,0.0,0.0,-2.8295,-3.0287,-3.2266,-3.2854,-3.3961,-3.4431,-3.24,-3.1173,-3.0057,-2.8535,-2.7418,-2.6691,-2.6691,-2.6691,-2.6691,-2.6691,-2.6691,-2.6691,-2.6691,-2.6691,-2.6725,-2.6807,0.0,0.0,-3.0161,0.0,0.0,0.0,0.0,0.0,0.0,0.0,0.0,0.0,0.0,-2.9116,-2.8921,-2.8712,-2.8263,-2.76,-2.76,-2.76,-2.76,-2.76,-2.76,-2.76,-2.76,0.0,0.0,0.0,0.0,0.0,-2.76,-2.76,-2.76,-2.76,-2.76,-2.76,-2.76,-2.76,-2.76,0.0,0.0,0.0,0.0,0.0,0.0,0.0,-2.5549,-2.551,-2.5435,-2.5413,-2.5412,-2.5428,-2.5441,-2.5507,-2.5588,-2.5611,0.0,0.0,0.0,0.0,0.0,0.0,0.0,-2.5308,-2.5308,-2.5308,-2.5308,-2.5308,-2.5308,-2.5308,-2.5865,-2.6115,-2.6135,-2.6678,-2.6621,0.0,0.0,0.0,0.0,0.0,0.0,-2.5007,0.0,0.0,0.0,0.0,0.0,0.0,0.0,0.0,0.0,0.0,0.0,0.0,0.0,-2.8146,-2.9471,-3.016,-3.1424,-3.2118,-3.036,-2.9583,-2.8906,-2.7672,-2.7029,-2.6691,-2.6691,-2.6691,-2.6691,-2.6691,-2.6691,-2.6691,-2.6691,-2.6691,-2.6742,-2.6839,0.0,0.0,0.0,0.0,0.0,0.0,0.0,0.0,0.0,0.0,0.0,0.0,0.0,-2.8487,-2.8218,-2.8203,-2.8034,-2.76,-2.76,-2.76,-2.76,-2.76,-2.76,-2.76,0.0,0.0,0.0,0.0,0.0,0.0,-2.76,-2.76,-2.76,-2.76,-2.76,-2.76,-2.76,-2.76,-2.76,0.0,0.0,0.0,0.0,0.0,0.0,0.0,-2.5301,-2.5296,-2.5293,-2.5295,-2.5302,-2.5293,-2.5365,-2.5447,-2.5573,0.0,0.0,0.0,0.0,0.0,0.0,0.0,0.0,-2.5308,-2.5308,-2.5308,-2.5308,-2.5308,-2.5308,-2.5308,-2.5308,-2.5308,-2.5308,-2.5308,-2.5298,-2.5243,-2.4929,-2.4662,-2.4461,-2.4284,-2.419,0.0,0.0,0.0,0.0,0.0,0.0,0.0,0.0,0.0,0.0,0.0,0.0,0.0,0.0,0.0,0.0,0.0,-2.8545,-2.9109,-2.7997,-2.7722,-2.7536,-2.686,-2.6691,0.0,-2.6691,-2.6691,-2.6691,-2.6691,-2.6691,-2.6691,-2.6691,-2.6742,-2.6875,0.0,-2.8362,0.0,0.0,0.0,0.0,0.0,0.0,0.0,0.0,0.0,0.0,0.0,0.0,0.0,-2.7615,-2.76,-2.76,-2.76,-2.76,-2.76,-2.76,-2.76,-2.76,-2.76,0.0,0.0,0.0,0.0,0.0,0.0,-2.76,-2.76,-2.76,-2.76,-2.76,-2.76,-2.76,-2.76,-2.76,0.0,0.0,0.0,0.0,0.0,0.0,0.0,0.0,0.0,0.0,-2.5301,-2.5296,-2.5293,-2.5308,-2.5363,0.0,0.0,0.0,0.0,0.0,0.0,0.0,0.0,0.0,-2.5308,-2.5308,-2.5308,-2.5308,-2.5308,-2.5308,-2.5308,-2.5308,-2.5308,-2.5308,-2.5308,-2.5154,-2.4896,-2.467,-2.4452,-2.4275,-2.4218,-2.419,0.0,0.0,0.0,0.0,-2.6098,-2.6461,0.0,0.0,0.0,0.0,0.0,0.0,0.0,0.0,-2.6691,-2.6725,-2.6911,0.0,-2.7317,-2.703,-2.6962,-2.6911,0.0,-2.6691,-2.6691,-2.6691,-2.6691,-2.6691,-2.6691,-2.6691,-2.6691,-2.6691,-2.7182,-2.7552,-2.7632,0.0,0.0,0.0,0.0,0.0,0.0,0.0,0.0,0.0,0.0,0.0,0.0,0.0,0.0,-2.76,-2.76,-2.76,-2.76,-2.76,-2.76,-2.76,-2.76,-2.76,-2.76,0.0,0.0,0.0,0.0,0.0,-2.76,-2.76,-2.76,-2.76,-2.76,-2.76,-2.76,-2.76,-2.76,-2.76,0.0,0.0,0.0,0.0,0.0,0.0,0.0,0.0,0.0,0.0,0.0,0.0,0.0,0.0,0.0,0.0,0.0,0.0,0.0,0.0,0.0,0.0,0.0,-2.5308,-2.5308,-2.5308,-2.5308,-2.5308,-2.5308,-2.5308,-2.5308,-2.5308,-2.5308,-2.5308,-2.5308,-2.5154,-2.4877,-2.4704,-2.4528,-2.4339,-2.4237,0.0,0.0,0.0,0.0,0.0,-2.5603,-2.5934,0.0,-2.7371,-2.7473,-2.7051,0.0,0.0,0.0,0.0,-2.6691,-2.6691,-2.6691,-2.6691,-2.6691,-2.6691,-2.6691,-2.6691,-2.6691,-2.6691,-2.6691,-2.6691,-2.6691,-2.6691,-2.6691,-2.6691,-2.6691,-2.6691,-2.7334,0.0,0.0,0.0,0.0,0.0,0.0,0.0,0.0,0.0,0.0,0.0,0.0,0.0,0.0,0.0,0.0,0.0,-2.76,-2.76,-2.76,-2.76,-2.76,-2.76,-2.76,-2.76,-2.76,0.0,0.0,0.0,0.0,0.0,-2.76,-2.76,-2.76,-2.76,-2.76,-2.76,-2.756,-2.7229,-2.71,-2.7034,0.0,0.0,0.0,0.0,0.0,0.0,0.0,0.0,0.0,0.0,0.0,0.0,0.0,0.0,0.0,0.0,0.0,0.0,0.0,0.0,0.0,0.0,-2.533,-2.5308,-2.5308,-2.5308,-2.5308,-2.5308,-2.5308,-2.5308,-2.5308,-2.5308,-2.5308,-2.5303,-2.5243,-2.5124,-2.4955,-2.4785,-2.4607,-2.4435,-2.4266,0.0,0.0,0.0,0.0,0.0,0.0,0.0,0.0,-2.6711,-2.685,-2.6605,-2.7065,0.0,0.0,0.0,0.0,0.0,-2.6691,-2.6691,-2.6691,-2.6691,-2.6691,-2.6691,-2.6691,-2.6691,-2.6691,-2.6691,-2.6691,-2.6691,-2.6691,-2.6691,-2.6691,-2.6691,0.0,0.0,0.0,0.0,0.0,0.0,0.0,0.0,0.0,0.0,0.0,0.0,0.0,0.0,0.0,0.0,0.0,0.0,-2.76,-2.76,-2.76,-2.76,-2.76,-2.76,-2.76,-2.76,-2.76,-2.76,0.0,0.0,0.0,0.0,-2.76,-2.76,-2.76,-2.76,-2.76,-2.76,-2.7524,-2.6774,-2.651,-2.6404,0.0,0.0,0.0,0.0,0.0,0.0,0.0,0.0,0.0,0.0,0.0,0.0,0.0,0.0,0.0,0.0,0.0,0.0,0.0,0.0,0.0,-2.5317,-2.5317,-2.5308,-2.5308,-2.5308,-2.5308,-2.5308,-2.5308,-2.5308,-2.5308,-2.5308,-2.5308,-2.5298,-2.4993,-2.4867,-2.4799,-2.4444,-2.4266,-2.4247,-2.4209,0.0,0.0,0.0,0.0,0.0,0.0,0.0,0.0,-2.617,-2.6321,-2.5879,-2.6571,0.0,0.0,0.0,0.0,0.0,-2.6691,-2.6691,-2.6691,-2.6691,-2.6691,-2.6691,-2.6691,-2.6691,-2.6691,-2.6691,-2.6691,-2.6691,-2.6691,-2.6691,-2.6691,0.0,0.0,0.0,0.0,0.0,0.0,0.0,0.0,0.0,0.0,0.0,0.0,0.0,0.0,0.0,0.0,0.0,0.0,0.0,0.0,-2.76,-2.76,-2.76,-2.76,-2.76,-2.76,-2.76,-2.76,-2.76,-2.76,0.0,0.0,-2.76,-2.76,-2.76,-2.76,-2.76,-2.76,-2.76,-2.7524,-2.6774,-2.651,-2.6404,0.0,0.0,0.0,0.0,0.0,0.0,0.0,0.0,0.0,0.0,0.0,0.0,0.0,0.0,0.0,0.0,0.0,0.0,0.0,0.0,-2.5308,-2.5308,-2.5308,-2.5308,-2.5308,-2.5308,-2.5308,-2.5308,-2.5308,-2.5308,-2.5308,-2.5308,-2.5308,-2.5298,-2.5037,-2.4876,-2.4782,-2.4486,-2.4303,-2.419,0.0,0.0,0.0,0.0,0.0,0.0,0.0,0.0,0.0,0.0,-2.5613,-2.5897,-2.6063,0.0,0.0,0.0,0.0,0.0,-2.6691,-2.6691,-2.6691,-2.6691,-2.6691,-2.6691,-2.6691,-2.6691,-2.6691,-2.6691,-2.6691,-2.6691,-2.6691,-2.6691,-2.6979,-2.7808,0.0,0.0,0.0,0.0,0.0,0.0,0.0,0.0,0.0,0.0,0.0,0.0,0.0,0.0,0.0,0.0,0.0,0.0,0.0,-2.76,-2.76,-2.76,-2.76,-2.76,-2.76,-2.76,-2.76,-2.76,-2.76,-2.76,0.0,-2.76,-2.76,-2.76,-2.76,-2.756,-2.7178,-2.7008,-2.6878,-2.5728,-2.5035,-2.4625,0.0,0.0,0.0,0.0,0.0,0.0,0.0,0.0,0.0,0.0,0.0,0.0,0.0,0.0,0.0,0.0,0.0,0.0,0.0,-2.5308,-2.5308,-2.5308,-2.5308,-2.5308,-2.5308,-2.5308,-2.5308,-2.5308,-2.5308,-2.5308,-2.5308,-2.5308,-2.5269,-2.5219,-2.5041,-2.4871,-2.4716,-2.452,-2.433,-2.419,0.0,0.0,0.0,0.0,0.0,0.0,0.0,0.0,0.0,0.0,0.0,0.0,0.0,0.0,0.0,-2.664,-2.6691,-2.6691,-2.6691,-2.6691,-2.6691,-2.6691,-2.6691,-2.6691,-2.6691,-2.6691,-2.6691,-2.6691,-2.6691,-2.6691,-2.6691,-2.6724,0.0,-2.8408,0.0,0.0,0.0,0.0,0.0,0.0,0.0,0.0,0.0,0.0,0.0,0.0,0.0,0.0,0.0,0.0,0.0,0.0,0.0,0.0,-2.76,-2.76,-2.76,-2.76,-2.76,-2.751,-2.7375,-2.7525,-2.751,-2.7375,-2.7525,-2.76,-2.76,-2.76,-2.76,-2.7524,-2.6774,-2.6283,-2.5837,-2.4709,-2.3796,-2.3108,0.0,0.0,0.0,0.0,0.0,0.0,0.0,0.0,0.0,0.0,0.0,0.0,0.0,0.0,0.0,0.0,0.0,0.0,0.0,-2.5308,-2.5308,-2.5308,-2.5308,-2.5308,-2.5308,-2.5308,-2.5308,-2.5308,-2.5308,-2.5308,-2.5308,-2.5308,-2.5203,-2.5016,-2.4883,-2.4708,-2.4512,-2.4312,-2.4209,-2.419,-2.419,0.0,0.0,0.0,0.0,0.0,0.0,0.0,0.0,0.0,0.0,0.0,0.0,0.0,-2.5812,-2.6488,-2.6691,-2.6691,-2.6691,-2.6691,-2.6691,-2.6691,-2.6691,-2.6691,-2.6691,-2.6691,-2.6691,-2.6691,-2.6691,-2.6691,-2.6691,-2.6795,-2.7005,-2.7352,0.0,0.0,0.0,0.0,0.0,0.0,0.0,0.0,0.0,0.0,0.0,0.0,0.0,0.0,0.0,0.0,0.0,0.0,0.0,0.0,-2.76,-2.76,-2.76,-2.76,-2.76,-2.727,-2.6701,-2.7315,-2.727,-2.6692,-2.733,-2.76,-2.76,-2.76,-2.76,-2.7524,-2.6774,-2.5646,-2.4452,-2.435,-2.3796,-2.3108,0.0,0.0,0.0,0.0,0.0,0.0,0.0,0.0,0.0,0.0,0.0,0.0,0.0,0.0,0.0,0.0,0.0,0.0,0.0,-2.5308,-2.5308,-2.5308,-2.5308,-2.5308,-2.5308,-2.5308,-2.5308,-2.5308,-2.5308,-2.5308,-2.5308,-2.5308,-2.5179,-2.4979,-2.4862,-2.4685,-2.4486,-2.4284,-2.419,-2.419,-2.419,-2.419,0.0,0.0,0.0,0.0,0.0,0.0,0.0,0.0,-2.3496,-2.4033,-2.47,-2.5236,-2.5728,-2.6471,-2.6691,-2.6691,-2.6691,-2.6691,-2.6691,-2.6691,-2.6691,-2.6691,-2.6691,-2.6691,-2.6691,-2.6691,-2.6691,-2.6691,-2.6691,0.0,-2.8125,0.0,0.0,0.0,0.0,0.0,0.0,0.0,0.0,0.0,0.0,0.0,0.0,0.0,0.0,0.0,0.0,0.0,0.0,0.0,0.0,0.0,0.0,-2.76,-2.739,-2.6986,-2.6986,-2.7061,-2.7225,-2.7061,-2.7076,-2.724,-2.748,-2.7331,-2.6956,-2.7408,-2.7331,-2.6852,-2.6095,-2.4894,-2.356,-2.356,-2.3365,-2.3108,0.0,0.0,0.0,0.0,0.0,0.0,0.0,0.0,0.0,0.0,0.0,0.0,0.0,0.0,0.0,0.0,0.0,0.0,-2.5308,-2.5308,-2.5308,-2.5308,-2.5308,-2.5308,-2.5308,-2.5308,-2.5308,-2.5308,-2.5308,-2.5308,-2.5308,-2.5308,-2.5176,-2.4924,-2.4842,-2.4654,-2.4401,-2.4266,-2.419,-2.419,-2.419,-2.4355,0.0,0.0,0.0,0.0,0.0,0.0,0.0,0.0,-2.3001,-2.3636,-2.429,-2.4846,-2.5439,-2.642,-2.6691,-2.6691,-2.6691,-2.6691,-2.6691,-2.6691,-2.6691,-2.6691,-2.6691,-2.6691,-2.6691,-2.6691,-2.6691,-2.6742,-2.6807,-2.7718,0.0,0.0,0.0,0.0,0.0,0.0,0.0,0.0,0.0,0.0,0.0,0.0,0.0,0.0,0.0,0.0,0.0,0.0,0.0,0.0,0.0,0.0,-2.76,-2.76,-2.7375,-2.6926,-2.648,-2.6495,-2.6946,-2.6678,-2.6822,-2.7275,-2.7268,-2.6956,-2.6537,-2.7034,-2.668,-2.5755,-2.5259,-2.425,-2.3108,-2.3108,-2.3108,-2.3108,0.0,0.0,0.0,0.0,0.0,0.0,0.0,0.0,0.0,0.0,0.0,0.0,0.0,0.0,0.0,0.0,0.0,0.0,-2.5308,-2.5308,-2.5308,-2.5308,-2.5308,-2.5308,-2.5308,-2.5308,-2.5308,-2.5308,-2.5308,-2.5308,-2.5308,-2.5308,-2.5121,-2.4804,-2.4804,-2.4586,-2.419,-2.419,-2.419,-2.419,-2.419,-2.4677,-2.5301,0.0,0.0,0.0,0.0,0.0,0.0,0.0,-2.249,-2.2907,-2.412,-2.4491,-2.4795,-2.6268,-2.6691,-2.6691,-2.6691,-2.6691,-2.6691,-2.6691,-2.6691,-2.6691,-2.6691,-2.6691,-2.6691,-2.6691,-2.6691,-2.6774,-2.7044,-2.715,0.0,0.0,0.0,0.0,0.0,0.0,0.0,0.0,0.0,0.0,0.0,0.0,0.0,0.0,0.0,0.0,0.0,0.0,0.0,0.0,0.0,0.0,-2.76,-2.76,-2.76,-2.7585,-2.6181,-2.5554,-2.5651,-2.6218,-2.6528,-2.6583,-2.6523,-2.6484,-2.6484,-2.6484,-2.5618,-2.4292,-2.4292,-2.3796,-2.3108,-2.3108,-2.3108,-2.3108,0.0,0.0,0.0,0.0,0.0,0.0,0.0,0.0,0.0,0.0,0.0,0.0,0.0,0.0,0.0,0.0,0.0,0.0,-2.5308,-2.5308,-2.5308,-2.5308,-2.5308,-2.5308,-2.5308,-2.5308,-2.5308,-2.5308,-2.5308,-2.5308,-2.5308,-2.5308,-2.5121,-2.4804,-2.4804,-2.4586,-2.419,-2.419,-2.419,-2.419,-2.419,-2.4337,-2.453,0.0,0.0,0.0,0.0,0.0,0.0,0.0,0.0,0.0,-2.3454,-2.4085,-2.4694,-2.5642,-2.593,-2.6048,-2.6556,-2.6319,-2.6048,-2.6573,-2.6691,-2.6691,-2.6691,-2.6691,-2.6691,-2.6691,-2.6436,-2.624,-2.6312,-2.6834,0.0,0.0,0.0,0.0,0.0,0.0,0.0,0.0,0.0,0.0,0.0,0.0,0.0,0.0,0.0,0.0,0.0,0.0,0.0,0.0,0.0,0.0,-2.76,-2.76,-2.7349,-2.688,-2.6422,-2.648,-2.6951,-2.5626,-2.5568,-2.6497,-2.5956,-2.5425,-2.4951,-2.4951,-2.4681,-2.4292,-2.4292,-2.3796,-2.3108,-2.3108,-2.3108,-2.3108,0.0,0.0,0.0,0.0,0.0,0.0,0.0,0.0,0.0,0.0,-2.5111,-2.5122,0.0,0.0,0.0,0.0,0.0,0.0,0.0,-2.5308,-2.5264,-2.5173,-2.5173,-2.5173,-2.5173,-2.5173,-2.5219,-2.5308,-2.5308,-2.5308,-2.5308,-2.5308,-2.5121,-2.4804,-2.4804,-2.4586,-2.419,-2.419,-2.4373,-2.4677,-2.4677,-2.5062,-2.5548,0.0,0.0,0.0,0.0,0.0,0.0,0.0,0.0,0.0,-2.3173,-2.3915,-2.4643,-2.5389,-2.5812,-2.6133,-2.6573,-2.637,-2.615,-2.659,-2.6691,-2.6691,-2.6691,-2.6691,-2.6691,-2.6691,-2.6332,-2.6096,-2.6392,-2.6498,0.0,0.0,0.0,0.0,0.0,0.0,0.0,0.0,0.0,0.0,0.0,0.0,0.0,0.0,0.0,0.0,0.0,0.0,0.0,0.0,0.0,0.0,-2.76,-2.76,-2.7405,-2.699,-2.6344,-2.6433,-2.7108,-2.5217,-2.4984,-2.6014,-2.5287,-2.4709,-2.4292,-2.3943,-2.3826,-2.3826,-2.3826,-2.3543,-2.3108,-2.3108,-2.3108,-2.3108,0.0,0.0,0.0,0.0,0.0,0.0,0.0,0.0,0.0,0.0,-2.5238,-2.5152,0.0,0.0,0.0,0.0,0.0,0.0,0.0,-2.5253,-2.5182,-2.4992,-2.4986,-2.4992,-2.5004,-2.5004,-2.5099,-2.5308,-2.5308,-2.5279,-2.5269,-2.5269,-2.5084,-2.4775,-2.4775,-2.4569,-2.419,-2.419,-2.4622,-2.5301,-2.5374,-2.6274,-2.7431,-2.5962,0.0,0.0,0.0,0.0,0.0,0.0,0.0,0.0,-2.3088,-2.3864,-2.4626,-2.5304,-2.6031,-2.6607,-2.6674,-2.664,-2.6607,-2.6674,-2.6691,-2.6691,-2.6691,-2.6691,-2.6691,-2.6691,0.0,-2.6138,-2.6796,0.0,0.0,0.0,0.0,0.0,0.0,0.0,0.0,0.0,0.0,0.0,0.0,0.0,0.0,0.0,0.0,0.0,0.0,0.0,0.0,0.0,0.0,0.0,-2.76,-2.76,-2.76,0.0,-2.6111,-2.5759,-2.6341,-2.4865,-2.4567,-2.5147,-2.4481,-2.4205,-2.4147,-2.3395,-2.3108,-2.3108,-2.3108,-2.3108,-2.3108,-2.3108,-2.3108,-2.3108,0.0,0.0,0.0,0.0,0.0,0.0,0.0,0.0,0.0,0.0,0.0,0.0,0.0,0.0,0.0,0.0,0.0,0.0,0.0,-2.4915,-2.4883,-2.4842,-2.4842,-2.4891,-2.5004,-2.5004,-2.5099,-2.5308,-2.5308,-2.5219,-2.5052,-2.5052,-2.4897,-2.4559,-2.4559,-2.4436,-2.419,-2.419,-2.43,-2.4511,-2.5154,-2.5613,-2.587,-2.5521,-2.519,0.0,0.0,0.0,0.0,0.0,0.0,0.0,-2.2496,-2.3427,-2.4525,-2.4694,-2.5253,-2.5964,-2.6539,-2.6285,-2.5981,-2.6556,-2.6691,-2.6691,-2.6691,-2.6691,-2.6691,-2.6691,-2.5998,-2.5422,0.0,0.0,0.0,0.0,0.0,0.0,0.0,0.0,0.0,0.0,0.0,0.0,0.0,0.0,0.0,0.0,0.0,0.0,0.0,0.0,0.0,0.0,0.0,-2.76,-2.76,-2.76,-2.76,0.0,-2.6111,-2.5479,-2.5591,-2.4041,-2.3454,-2.359,-2.3424,-2.3365,-2.3335,-2.3155,-2.3108,-2.3108,-2.3108,-2.3108,-2.3108,-2.3108,-2.3108,-2.3108,0.0,0.0,0.0,0.0,0.0,0.0,0.0,0.0,0.0,0.0,0.0,0.0,0.0,0.0,0.0,0.0,0.0,0.0,0.0,0.0,-2.4804,-2.4804,-2.4708,-2.4734,-2.4904,-2.4904,-2.4968,-2.5068,-2.5068,-2.5049,-2.5004,-2.5004,-2.4824,-2.4503,-2.4503,-2.4393,-2.419,-2.419,-2.441,-2.4805,-2.5227,-2.5852,-2.6458,-2.5686,-2.5461,-2.5339,-2.3767,0.0,0.0,0.0,0.0,0.0,0.0,0.0,-2.4491,-2.4491,-2.5017,-2.5677,-2.6065,-2.5896,-2.5795,-2.6522,-2.6691,-2.6691,-2.6691,-2.6691,-2.6641,-2.6401,-2.5728,0.0,0.0,0.0,0.0,0.0,0.0,0.0,0.0,0.0,0.0,0.0,0.0,0.0,0.0,0.0,0.0,0.0,0.0,0.0,0.0,0.0,0.0,0.0,-2.7294,-2.7115,-2.706,-2.6756,-2.6577,-2.6522,-2.5106,-2.4265,-2.3893,-2.3331,-2.3108,-2.3108,-2.3108,-2.3108,-2.3108,-2.3108,-2.3108,-2.3108,-2.3108,-2.3108,-2.3108,-2.3108,-2.3108,-2.3108,0.0,0.0,0.0,0.0,0.0,0.0,0.0,0.0,0.0,0.0,0.0,0.0,0.0,0.0,0.0,0.0,0.0,0.0,0.0,0.0,0.0,-2.47,-2.4545,-2.4534,-2.4746,-2.4753,-2.4768,-2.4804,-2.4804,-2.4842,-2.4898,-2.4898,-2.474,-2.4444,-2.4444,-2.4348,-2.419,-2.419,-2.4585,-2.5191,-2.5338,-2.6201,-2.7247,-2.5907,-2.5812,-2.61,-2.3962,-2.3193,-2.3122,-2.2513,0.0,0.0,0.0,0.0,-2.466,-2.4541,-2.5017,-2.5575,-2.5439,-2.5507,-2.5761,-2.6353,-2.6607,-2.6691,-2.6691,-2.6641,-2.647,-2.6085,0.0,0.0,0.0,0.0,0.0,0.0,0.0,0.0,0.0,0.0,0.0,0.0,0.0,0.0,0.0,0.0,0.0,0.0,0.0,0.0,0.0,0.0,-2.7181,-2.7405,-2.688,-2.6564,-2.65,-2.5955,-2.5571,-2.5379,-2.4142,-2.3111,-2.2323,-2.2867,-2.3108,-2.3108,-2.3108,-2.3108,-2.3108,-2.3108,-2.3108,-2.3108,-2.3108,-2.3108,-2.3108,-2.3108,-2.3017,-2.2884,0.0,0.0,0.0,0.0,0.0,0.0,0.0,0.0,0.0,0.0,-2.4545,-2.4461,0.0,0.0,0.0,0.0,0.0,0.0,-2.4275,0.0,0.0,-2.4275,-2.4247,-2.4321,-2.4545,-2.4545,-2.4623,-2.4804,-2.4804,-2.4723,-2.4575,-2.4575,-2.4452,-2.4247,-2.4247,-2.4228,-2.419,-2.419,-2.4263,-2.441,-2.5117,-2.5521,-2.5705,-2.5485,-2.5117,-2.4594,-2.3572,-2.2881,-2.2431,-2.233,-2.2733,0.0,0.0,0.0,-2.5338,-2.4694,-2.5017,-2.5456,-2.4829,-2.5101,-2.5625,-2.5711,-2.6234,-2.6691,-2.6691,-2.6384,-2.6085,0.0,0.0,0.0,0.0,0.0,0.0,0.0,0.0,0.0,0.0,0.0,0.0,0.0,0.0,0.0,0.0,0.0,0.0,0.0,0.0,0.0,0.0,-2.526,-2.5525,-2.6712,-2.6646,-2.6561,-2.651,-2.64,-2.6034,-2.5373,-2.4584,-2.3513,-2.2324,-2.2862,-2.3108,-2.3108,-2.3108,-2.3108,-2.3108,-2.3108,-2.3108,-2.3108,-2.3108,-2.3108,-2.3108,-2.3108,-2.2659,-2.2063,0.0,0.0,0.0,0.0,0.0,0.0,0.0,0.0,0.0,0.0,0.0,-2.4303,0.0,0.0,0.0,-2.419,-2.419,-2.419,-2.419,-2.419,-2.4256,-2.4357,-2.4366,-2.4419,-2.4503,-2.4503,-2.4486,-2.4461,-2.4461,-2.4428,-2.4321,-2.4321,-2.4284,-2.419,-2.419,-2.419,-2.419,-2.419,-2.419,-2.4226,-2.4585,-2.4899,-2.5084,-2.4837,-2.4493,-2.409,-2.3442,-2.2824,-2.2296,-2.2296,-2.2516,-2.2936,-2.3763,0.0,0.0,0.0,-2.444,-2.4306,-2.3983,-2.4423,-2.4983,-2.4983,-2.5312,-2.5646,-2.5646,-2.5594,-2.5354,0.0,0.0,0.0,0.0,0.0,0.0,0.0,0.0,0.0,0.0,0.0,0.0,0.0,0.0,0.0,0.0,0.0,0.0,0.0,0.0,0.0,-2.5023,-2.512,-2.5435,-2.6029,-2.6046,0.0,-2.5313,-2.5328,-2.4619,-2.3193,-2.2895,-2.243,-2.186,-2.2427,-2.2815,-2.3083,-2.2782,-2.2819,-2.3083,-2.2769,-2.2832,-2.3108,-2.3108,-2.3108,-2.3108,-2.3108,-2.2598,-2.1908,0.0,0.0,0.0,0.0,0.0,0.0,0.0,0.0,0.0,0.0,0.0,0.0,0.0,0.0,0.0,0.0,-2.419,-2.419,-2.419,-2.419,-2.4275,-2.4428,-2.4409,-2.4409,-2.4409,-2.4409,-2.4348,-2.419,-2.419,-2.419,-2.419,-2.419,-2.419,-2.419,-2.419,-2.419,-2.419,-2.419,-2.419,-2.419,-2.419,-2.4361,-2.4556,-2.4213,-2.3905,-2.3619,-2.3225,-2.2747,-2.2296,-2.2296,-2.2415,-2.2784,-2.3881,-2.3966,0.0,0.0,0.0,-2.3122,-2.3122,-2.3661,-2.422,-2.422,-2.4396,-2.4576,-2.4576,0.0,0.0,0.0,0.0,0.0,0.0,0.0,0.0,0.0,0.0,0.0,0.0,0.0,0.0,0.0,0.0,0.0,0.0,0.0,0.0,0.0,0.0,0.0,-2.435,-2.4819,-2.5086,-2.5121,-2.5118,-2.4741,-2.3952,-2.3758,-2.2874,-2.1308,-2.1584,-2.1639,-2.1518,-2.2206,-2.2648,-2.2862,-2.2472,-2.2594,-2.3058,-2.2506,-2.2606,-2.3108,-2.3108,-2.3108,-2.3078,-2.2884,-2.2279,-2.1522,0.0,0.0,0.0,0.0,0.0,0.0,0.0,0.0,0.0,0.0,0.0,0.0,-2.4218,-2.419,-2.419,-2.419,-2.419,-2.419,-2.419,-2.419,-2.4199,-2.4209,-2.4209,0.0,-2.4209,-2.4209,-2.4209,-2.419,-2.419,-2.419,-2.419,-2.419,-2.419,-2.419,-2.419,-2.419,-2.419,-2.419,-2.419,-2.419,-2.419,-2.4014,-2.3757,-2.3732,-2.3329,-2.276,-2.2738,-2.2537,0.0,0.0,0.0,0.0,0.0,-2.3915,-2.4305,0.0,0.0,0.0,-2.2347,-2.2902,-2.346,-2.346,-2.3693,-2.3951,0.0,0.0,0.0,0.0,0.0,0.0,0.0,0.0,0.0,0.0,0.0,0.0,0.0,0.0,0.0,0.0,0.0,0.0,0.0,0.0,0.0,0.0,0.0,0.0,-2.3655,-2.3699,-2.3729,-2.3803,-2.3811,-2.3452,-2.2684,-2.199,-2.1354,-2.0746,-2.1784,-2.1984,-2.156,-2.2595,-2.2786,-2.2337,-2.2313,-2.2594,-2.3058,-2.2506,-2.2606,-2.3108,-2.3108,-2.3108,-2.3017,-2.2249,-2.1396,-2.0558,0.0,0.0,0.0,0.0,0.0,0.0,0.0,0.0,0.0,0.0,0.0,0.0,0.0,-2.419,-2.419,-2.419,-2.419,-2.419,-2.419,-2.419,-2.419,-2.419,-2.419,-2.419,-2.419,-2.419,-2.419,-2.419,-2.419,-2.419,-2.419,-2.419,-2.419,-2.419,-2.419,-2.419,-2.419,-2.419,-2.419,-2.418,-2.3976,-2.3682,-2.338,-2.338,-2.2995,-2.2463,0.0,0.0,0.0,0.0,0.0,0.0,0.0,0.0,-2.2977,-2.241,-2.2069,-2.1794,-2.1539,-2.1658,-2.1869,-2.1869,-2.2052,-2.2226,-2.2226,-2.2084,0.0,0.0,0.0,0.0,0.0,0.0,0.0,0.0,0.0,0.0,0.0,0.0,0.0,0.0,0.0,0.0,0.0,0.0,0.0,0.0,0.0,0.0,-2.303,-2.303,-2.284,-2.2432,-2.2837,-2.2908,-2.2603,-2.1533,-2.0876,-2.0708,-2.1432,-2.1506,-2.1014,-2.211,-2.2286,-2.1777,-2.1428,-2.1769,-2.2531,-2.2008,-2.1989,-2.2322,-2.2322,-2.199,-2.1447,-2.1164,-2.0526,-1.9726,0.0,0.0,0.0,0.0,0.0,0.0,0.0,0.0,0.0,-2.419,0.0,0.0,0.0,0.0,-2.419,-2.419,-2.419,-2.419,-2.419,-2.419,-2.419,-2.419,-2.419,-2.419,-2.419,-2.419,-2.419,-2.419,-2.419,-2.419,-2.419,-2.419,-2.419,-2.419,-2.419,-2.419,-2.419,-2.419,-2.419,-2.417,-2.3827,-2.3511,-2.3189,-2.3081,-2.2734,0.0,0.0,0.0,0.0,0.0,0.0,0.0,0.0,0.0,0.0,-2.1688,-2.1506,-2.1337,-2.1071,-2.0991,-2.0991,-2.0991,-2.0979,-2.0963,-2.0963,0.0,0.0,0.0,0.0,0.0,0.0,0.0,0.0,0.0,0.0,0.0,0.0,0.0,0.0,0.0,0.0,0.0,0.0,0.0,0.0,0.0,0.0,0.0,-2.2395,-2.2366,-2.2068,-2.1425,-2.1603,-2.1718,-2.1666,-2.0823,-2.0386,-2.0386,-2.0965,-2.1031,-2.0746,-2.1606,-2.1728,-2.1212,-2.1041,-2.1496,-2.2243,-2.1411,-2.1382,-2.1877,-2.1585,-2.1112,-2.0558,-2.0268,-1.9792,-1.9276,0.0,0.0,0.0,0.0,0.0,0.0,0.0,0.0,-2.419,-2.419,0.0,0.0,0.0,0.0,0.0,-2.419,-2.419,-2.419,-2.419,-2.419,-2.419,-2.419,-2.419,-2.419,-2.419,-2.419,-2.4208,-2.418,-2.4208,-2.419,-2.418,-2.4208,-2.419,-2.419,-2.419,-2.419,-2.419,-2.419,-2.419,-2.417,-2.3827,-2.3511,-2.3165,-2.2835,0.0,0.0,-2.2296,-2.2296,0.0,-2.2296,0.0,0.0,0.0,0.0,-2.1582,-2.1582,-2.1291,-2.0975,0.0,0.0,0.0,-2.0959,-2.0616,0.0,-2.028,0.0,0.0,0.0,0.0,0.0,0.0,0.0,0.0,0.0,0.0,0.0,0.0,0.0,0.0,0.0,0.0,0.0,0.0,0.0,0.0,0.0,0.0,-2.2388,-2.1701,-2.1665,-2.1375,-2.0797,-2.0156,-1.9798,-1.9798,-1.9798,-1.9798,-1.9811,-2.0425,-2.0677,-2.0694,-2.1223,-2.1198,-2.0707,-2.1255,-2.1782,-2.216,-2.0812,-2.0896,-2.1784,-2.0942,-2.0558,-2.043,-1.9562,-1.9276,-1.9144,0.0,0.0,0.0,0.0,0.0,-2.419,-2.419,-2.419,-2.419,0.0,0.0,0.0,-2.419,-2.419,-2.419,-2.419,-2.419,-2.419,-2.419,-2.419,-2.419,-2.419,-2.419,-2.419,-2.419,-2.419,-2.4084,-2.3837,-2.4084,-2.4084,-2.3837,-2.4084,-2.419,-2.419,-2.419,-2.419,-2.419,-2.419,-2.419,-2.417,-2.3827,-2.3511,-2.3165,0.0,0.0,0.0,0.0,-2.2296,-2.2296,0.0,-2.2296,-2.2296,0.0,0.0,-2.1166,-2.1166,-2.0846,-2.0416,-2.0139,0.0,0.0,0.0,0.0,0.0,0.0,0.0,0.0,0.0,0.0,0.0,0.0,0.0,0.0,0.0,0.0,0.0,0.0,0.0,0.0,0.0,0.0,0.0,0.0,0.0,0.0,0.0,-2.2712,-2.2215,-2.1121,-2.0587,-2.0241,-2.0092,-1.99,-1.9798,-1.9798,-1.9798,-1.9798,-1.9811,-2.0425,-2.0485,-2.0077,-2.0641,-2.0605,-2.0066,-2.0668,-2.1232,-2.1732,-2.1712,-2.141,-2.0942,-2.0687,-1.9814,-1.8687,-1.8462,-1.8361,-1.8337,0.0,0.0,0.0,0.0,0.0,-2.419,-2.419,-2.419,-2.419,0.0,0.0,0.0,-2.419,-2.419,-2.419,-2.419,-2.419,-2.419,-2.419,-2.419,-2.419,-2.419,-2.419,-2.4123,-2.3996,-2.3996,-2.3827,-2.35,-2.3827,-2.3896,-2.3703,-2.4036,-2.419,-2.419,-2.4046,-2.4074,-2.419,-2.4054,-2.4074,-2.4161,-2.3682,0.0,0.0,-2.2704,-2.244,0.0,0.0,0.0,-2.2268,-2.2061,-2.1901,0.0,0.0,0.0,0.0,0.0,-2.0398,-2.0061,-2.0092,-1.9899,-1.9768,-2.0049,0.0,0.0,-1.9708,-1.9708,0.0,0.0,0.0,0.0,0.0,0.0,0.0,0.0,0.0,0.0,0.0,0.0,0.0,0.0,0.0,0.0,0.0,0.0,0.0,0.0,-2.1899,-2.1469,-2.0444,-2.0016,-1.9798,-1.9798,-1.9798,-1.9798,-1.9798,-1.9798,-1.9798,-1.9798,-2.0156,-2.0156,-1.9811,-2.0156,-2.0281,-2.0215,-2.0774,-2.1138,-2.1358,-2.1911,-2.1531,-2.0526,-1.9814,-1.8877,-1.8008,-1.8008,-1.8008,-1.8008,0.0,0.0,-2.4419,-2.4228,-2.419,-2.419,-2.419,-2.419,-2.419,0.0,-2.419,-2.419,-2.419,-2.419,-2.419,-2.419,-2.419,-2.419,-2.419,-2.419,-2.418,-2.4151,-2.4133,-2.3986,-2.366,-2.3631,-2.3488,-2.3141,-2.3522,-2.3682,-2.366,-2.4026,-2.418,-2.4123,-2.3827,-2.3876,-2.4113,-2.3785,-2.3837,-2.4094,-2.35,-2.3224,0.0,0.0,-2.2338,-2.2296,-2.2296,-2.2296,-2.224,-2.1832,-2.1469,0.0,0.0,0.0,0.0,0.0,-2.0246,-2.0049,-2.0662,-2.0378,-2.0052,0.0,0.0,0.0,-1.9723,-1.9708,0.0,0.0,0.0,0.0,0.0,0.0,0.0,0.0,0.0,0.0,0.0,0.0,0.0,0.0,0.0,0.0,0.0,0.0,-2.1448,-2.0845,-2.0716,-2.0431,-1.9824,-1.9798,-1.9798,-1.9798,-1.9798,-1.9798,-1.9798,-1.9798,-1.9798,-1.9798,-1.9798,-1.9798,-1.9798,-1.9798,-2.0129,-2.0727,-2.1145,-2.1215,-2.1044,-2.1435,-2.1144,-2.0301,-1.8754,-1.8076,-1.8008,-1.8008,-1.8008,-1.8008,0.0,-2.4266,-2.4256,-2.4199,-2.419,-2.419,-2.419,-2.419,-2.419,-2.419,-2.419,-2.419,-2.419,-2.419,-2.419,-2.419,-2.419,-2.419,-2.419,-2.419,-2.4084,-2.3806,-2.3795,-2.3649,-2.3294,-2.3311,-2.3129,-2.281,-2.3403,-2.3555,-2.3311,-2.3917,-2.4064,-2.3795,-2.3724,-2.3753,-2.3785,-2.3437,0.0,-2.3785,-2.366,0.0,-2.3153,-2.2776,-2.2487,-2.2296,-2.2296,-2.2296,-2.231,-2.2381,-2.2241,-2.2116,0.0,0.0,0.0,0.0,0.0,0.0,0.0,0.0,0.0,0.0,0.0,0.0,-1.9828,-1.9708,-1.9708,0.0,0.0,0.0,0.0,0.0,0.0,0.0,0.0,0.0,0.0,0.0,0.0,0.0,0.0,0.0,0.0,0.0,-2.1448,-2.0845,-2.0308,-1.9927,-1.9798,-1.9798,-1.9798,-1.9798,-1.9798,-1.9798,-1.9798,-1.9798,-1.9798,-1.9798,-1.9798,-1.9798,-1.9798,-1.9798,-2.0134,-2.0695,-2.0524,-2.0669,-2.0954,-2.0123,-1.9726,-1.9529,-1.9177,-1.862,-1.8008,-1.8008,-1.8008,-1.8008,-2.4266,-2.419,-2.419,-2.419,-2.419,-2.419,-2.419,-2.419,-2.419,-2.419,-2.419,-2.419,-2.419,-2.419,-2.419,-2.419,-2.419,-2.419,-2.419,-2.4036,-2.3884,-2.3711,-2.3529,-2.3282,-2.296,-2.296,-2.2802,-2.25,-2.2977,-2.3117,-2.296,-2.3477,-2.3599,-2.3437,-2.3288,-2.3282,-2.3426,-2.3093,-2.3359,-2.3945,-2.3425,0.0,-2.2923,-2.2616,-2.2412,-2.2296,-2.2296,-2.2239,-2.2161,-2.223,-2.2146,0.0,0.0,-2.2204,-2.1754,0.0,-2.1877,-2.1769,0.0,0.0,0.0,-2.1291,0.0,0.0,0.0,-1.9708,-1.9621,0.0,0.0,0.0,0.0,0.0,0.0,0.0,0.0,0.0,0.0,0.0,0.0,0.0,0.0,0.0,0.0,0.0,-2.062,-2.0321,-2.0003,-1.9798,-1.9798,-1.9798,-1.9798,-1.9798,-1.9798,-1.9798,-1.9798,-2.0092,-2.0092,-1.9798,-2.0117,-2.0105,-1.9798,-1.9649,-1.9793,-2.0157,-2.0036,-1.992,-1.978,-1.9425,-1.9044,-1.8654,-1.8654,-1.8395,-1.8008,-1.8008,-1.8008,-1.8008,-2.4237,-2.419,-2.419,-2.419,-2.419,-2.419,-2.419,-2.419,-2.419,-2.419,-2.4151,-2.4141,-2.419,-2.4084,-2.4026,-2.4094,-2.4036,-2.4016,-2.4009,-2.3751,-2.3577,-2.351,-2.3259,-2.2954,-2.2621,-2.2621,-2.2527,-2.2296,-2.2577,-2.2708,-2.2708,-2.3045,-2.3165,-2.3093,-2.2822,-2.286,-2.3081,-2.2764,0.0,-2.3912,0.0,-2.2747,-2.2881,-2.2466,-2.2381,-2.2516,-2.2565,-2.2423,-2.2236,-2.2191,-2.2126,-2.2113,-2.2443,-2.2323,0.0,0.0,0.0,0.0,0.0,0.0,0.0,0.0,0.0,-2.0722,0.0,0.0,0.0,-1.9006,0.0,0.0,0.0,0.0,0.0,0.0,0.0,0.0,0.0,0.0,0.0,0.0,0.0,0.0,0.0,0.0,-1.9798,-1.9798,-1.9798,-1.9798,-1.9798,-1.9798,-1.9798,-1.9798,-1.9798,-1.9798,-1.9798,-2.0136,-2.0058,-1.9589,-1.9944,-1.9856,-1.9366,-1.9258,-1.9317,-1.9494,-1.9537,-1.9251,-1.8731,-1.8955,-1.862,-1.8008,-1.8008,-1.8008,-1.8008,-1.8008,-1.8008,-1.8008,-2.4199,-2.419,-2.419,-2.419,-2.419,-2.419,-2.419,-2.419,-2.419,-2.419,-2.3937,-2.3876,-2.417,-2.3671,-2.3426,-2.3724,-2.3488,-2.3309,-2.3307,0.0,-2.3116,-2.2835,-2.278,-2.2635,-2.2349,-2.2349,-2.2321,-2.2296,-2.2577,-2.2708,-2.2708,-2.3045,-2.3045,-2.2759,-2.2721,-2.2721,-2.2733,-2.245,-2.2552,0.0,-2.2484,-2.2918,0.0,-2.2657,-2.2716,-2.3298,-2.3485,-2.3367,-2.3161,0.0,-2.3259,-2.3385,0.0,-2.3415,-2.3385,0.0,0.0,0.0,0.0,0.0,0.0,0.0,-2.2069,0.0,0.0,0.0,-1.9548,-1.9006,0.0,-1.8727,-1.8204,0.0,0.0,0.0,0.0,0.0,0.0,0.0,0.0,0.0,0.0,0.0,0.0,0.0,0.0,-1.9798,-1.9798,-1.9798,-1.9798,-1.9798,-1.9798,-1.9798,-1.9798,-1.9798,-1.9798,-1.9226,-1.8895,-1.8834,-1.8221,-1.7915,-1.7857,-1.825,-1.8696,-1.9149,-1.8793,-1.888,-1.9159,-1.8442,-1.8076,-1.8008,-1.8008,-1.8008,-1.8008,-1.8008,-1.8008,-1.8008,-2.419,-2.419,-2.419,-2.419,-2.419,-2.419,-2.419,-2.419,-2.419,-2.419,-2.4084,-2.4036,-2.418,-2.3785,-2.3544,-2.3692,0.0,-2.3318,0.0,0.0,-2.2923,-2.2718,-2.2691,-2.2566,-2.231,-2.2457,-2.2457,-2.2296,-2.2412,-2.2463,-2.2477,-2.2607,-2.2594,-2.2463,-2.2463,-2.2463,-2.2463,0.0,-2.2615,0.0,0.0,0.0,0.0,-2.3265,-2.3195,-2.3601,-2.3843,-2.3666,-2.3317,0.0,-2.3525,0.0,0.0,0.0,0.0,0.0,0.0,0.0,0.0,0.0,0.0,0.0,0.0,0.0,-2.0929,0.0,-1.994,0.0,0.0,0.0,0.0,0.0,0.0,0.0,0.0,0.0,0.0,0.0,0.0,0.0,0.0,0.0,0.0,0.0,0.0,0.0,0.0,-1.9798,-1.9798,-1.9798,-1.9798,-1.9798,-1.9652,-1.9558,-1.9558,-1.9424,-1.9154,-1.8818,-1.8825,-1.8666,-1.8371,-1.8407,-1.8407,-1.8343,-1.826,-1.8217,-1.8177,-1.8035,-1.8008,-1.8008,-1.8008,-1.8008,-1.8008,-1.8008,-1.8008,-1.8008,-2.419,-2.419,-2.419,-2.419,-2.419,-2.419,-2.419,-2.419,-2.417,-2.4074,-2.3986,-2.3927,-2.3927,-2.3562,0.0,0.0,-2.3265,-2.3117,0.0,0.0,-2.2693,0.0,0.0,0.0,0.0,-2.2487,-2.2488,-2.2296,-2.2296,-2.2296,-2.2296,-2.2296,-2.2296,-2.2296,-2.2296,-2.2398,-2.2598,0.0,-2.3038,-2.3697,-2.3543,-2.3857,-2.4346,-2.3939,-2.3703,-2.3634,-2.4045,-2.3854,-2.3392,-2.3558,-2.3595,0.0,-2.3595,0.0,0.0,0.0,0.0,0.0,-2.3595,0.0,0.0,0.0,0.0,0.0,0.0,0.0,0.0,0.0,0.0,0.0,0.0,0.0,-1.6587,-1.6827,0.0,0.0,0.0,0.0,0.0,0.0,0.0,0.0,0.0,0.0,0.0,0.0,-1.9585,0.0,-1.9798,-1.9798,-1.9721,-1.9501,-1.9312,-1.9163,-1.9109,-1.9089,-1.892,-1.8586,-1.8797,-1.8679,-1.8281,-1.822,-1.8001,-1.7696,-1.7909,-1.7842,-1.7578,-1.7881,-1.8008,-1.8008,-1.8008,-1.8008,-1.8008,-1.8008,-1.8008,-1.7974,-2.419,-2.419,-2.419,-2.419,-2.419,-2.419,-2.419,0.0,0.0,0.0,0.0,0.0,0.0,0.0,0.0,0.0,0.0,-2.2338,-2.2338,0.0,-2.2324,0.0,0.0,-2.2299,0.0,0.0,-2.2296,-2.2296,-2.2296,-2.2296,-2.2296,-2.2296,-2.2296,-2.2296,-2.2296,-2.2699,-2.3359,-2.3359,-2.3797,-2.4426,-2.39,-2.3858,-2.4163,0.0,-2.4154,-2.342,-2.4131,0.0,0.0,-2.3595,-2.3595,0.0,0.0,0.0,0.0,0.0,0.0,0.0,0.0,0.0,0.0,-2.2846,0.0,0.0,0.0,0.0,-1.9524,0.0,0.0,0.0,0.0,-1.65,-1.6346,-1.5827,-1.617,0.0,0.0,0.0,0.0,0.0,0.0,0.0,0.0,0.0,0.0,0.0,-1.9033,0.0,-1.9773,-1.9798,-1.9475,-1.8768,-1.8727,-1.8608,-1.8344,-1.7645,-1.7474,-1.7821,-1.7128,-1.678,-1.6799,-1.7239,-1.7425,-1.7416,-1.7822,-1.8008,-1.7988,-1.8008,-1.8008,-1.8008,-1.8008,-1.8008,-1.8008,-1.8008,-1.8008,-1.7872,-2.419,-2.419,-2.419,-2.419,-2.419,0.0,0.0,-2.4006,0.0,0.0,0.0,0.0,0.0,-2.2815,-2.2647,0.0,0.0,-2.2296,-2.2296,-2.2296,0.0,0.0,0.0,-2.247,0.0,0.0,0.0,-2.2296,-2.2296,-2.2296,-2.2296,-2.2296,-2.2296,-2.2313,-2.2818,-2.3173,0.0,0.0,0.0,0.0,0.0,-2.4114,-2.4347,0.0,0.0,-2.4059,-2.4312,-2.4053,0.0,-2.3595,-2.3595,-2.3595,-2.3595,-2.3595,-2.3595,-2.3595,-2.3334,0.0,0.0,0.0,-2.2294,-2.21,0.0,0.0,0.0,0.0,0.0,0.0,0.0,0.0,0.0,-1.7087,-1.6898,-1.6333,-1.6375,-1.6437,0.0,0.0,0.0,0.0,0.0,0.0,0.0,0.0,0.0,-1.9008,-1.9008,-1.9221,0.0,-1.9345,-1.8953,-1.8715,-1.8058,-1.7672,-1.7584,-1.741,-1.7418,-1.7536,-1.754,-1.7545,-1.7578,-1.7725,-1.7803,-1.7803,-1.7949,-1.8008,-1.8008,-1.8008,-1.8008,-1.8008,-1.8008,-1.7613,-1.707,-1.707,-1.707,-1.6922,-2.419,-2.419,-2.419,0.0,0.0,0.0,0.0,0.0,0.0,0.0,-2.3271,0.0,-2.2895,0.0,-2.2581,0.0,-2.2449,-2.2296,-2.2296,-2.2296,0.0,-2.2296,-2.2474,0.0,0.0,0.0,0.0,0.0,-2.2296,-2.2296,-2.2296,-2.2296,-2.2296,-2.233,-2.3071,-2.3439,-2.3554,-2.4291,-2.4464,0.0,0.0,-2.4162,0.0,0.0,-2.441,-2.4116,0.0,-2.39,-2.3595,-2.3595,-2.3595,-2.3595,-2.3595,-2.3595,-2.3595,-2.3595,-2.3165,-2.2694,-2.2694,-2.2193,0.0,0.0,-2.139,0.0,-2.0597,0.0,0.0,0.0,0.0,0.0,0.0,0.0,-1.7262,-1.6886,-1.6823,-1.6898,0.0,-1.7752,0.0,0.0,0.0,0.0,0.0,0.0,-1.8436,-1.8017,-1.8123,-1.839,0.0,0.0,-1.8194,-1.7934,-1.728,-1.6898,-1.6797,-1.704,-1.7227,-1.7393,-1.7812,-1.8008,-1.8008,-1.8008,-1.8008,-1.8008,-1.8008,-1.8008,-1.8008,-1.8008,-1.7794,-1.7501,-1.7501,-1.6932,-1.614,-1.6498,-1.6175,-1.5473,-2.419,0.0,0.0,0.0,-2.419,0.0,0.0,0.0,-2.3573,0.0,-2.3015,-2.2716,-2.2338,-2.2296,-2.2296,-2.2296,-2.2296,0.0,-2.2296,-2.2296,0.0,0.0,-2.2296,-2.2296,-2.2296,0.0,0.0,0.0,0.0,-2.2296,-2.2296,-2.2296,-2.2296,-2.233,-2.3103,-2.3553,-2.3753,-2.4542,-2.498,-2.5112,-2.4576,-2.4053,-2.3595,-2.3595,0.0,-2.3595,-2.3595,-2.3595,-2.3595,-2.3595,-2.3595,-2.3595,-2.3595,-2.3573,-2.3551,-2.3551,-2.3098,-2.2603,-2.2603,-2.2123,-2.1472,-2.0881,0.0,0.0,0.0,0.0,-1.966,0.0,0.0,0.0,0.0,0.0,-1.7473,-1.7448,-1.7448,-1.7624,-1.8129,0.0,0.0,0.0,0.0,0.0,0.0,-1.7879,-1.7398,-1.6272,-1.6573,-1.6852,0.0,0.0,0.0,-1.651,-1.6454,-1.6337,-1.6085,-1.6514,-1.6953,-1.7393,-1.7812,-1.8008,-1.8008,-1.8008,-1.8008,-1.8008,-1.8008,-1.8008,-1.8008,-1.794,-1.7389,-1.6602,-1.6567,-1.5965,-1.5234,-1.614,-1.5261,-1.3637,-2.419,-2.4196,-2.4203,0.0,-2.419,-2.4196,0.0,0.0,0.0,0.0,-2.2754,-2.2422,-2.231,-2.2296,-2.2296,-2.2296,-2.2296,0.0,0.0,0.0,0.0,-2.2296,-2.2296,-2.2296,-2.2296,-2.2296,0.0,-2.2296,0.0,-2.2296,-2.2296,-2.2296,-2.2296,-2.2361,-2.3651,-2.4018,-2.3779,-2.5142,-2.5274,-2.455,-2.4009,-2.3709,0.0,0.0,-2.3595,-2.3595,-2.3595,-2.3595,-2.3595,-2.3595,-2.3595,-2.3595,-2.3595,-2.3275,-2.292,-2.292,-2.2151,-2.1296,-2.1296,-2.0794,-2.0257,-2.0105,-2.0055,-2.0003,0.0,0.0,0.0,0.0,0.0,0.0,0.0,0.0,0.0,-1.8053,-1.799,-1.8041,-1.8191,0.0,0.0,0.0,0.0,0.0,0.0,-1.739,-1.6833,-1.6247,-1.6573,-1.6852,0.0,0.0,0.0,-1.6521,-1.5979,-1.5821,-1.6085,-1.6514,-1.6953,-1.7393,-1.7812,-1.8008,-1.8008,-1.8008,-1.8008,-1.8008,-1.8008,-1.8008,-1.794,-1.7251,-1.6819,-1.6523,-1.5825,-1.495,-1.4099,-1.4343,-1.3702,-1.2666,-2.419,0.0,0.0,-2.5126,0.0,0.0,-2.4194,0.0,0.0,-2.3206,-2.2672,0.0,-2.2296,-2.2296,-2.2296,-2.2296,-2.2296,0.0,-2.2296,0.0,0.0,-2.2296,-2.2296,-2.2296,-2.2296,-2.2296,0.0,-2.1995,0.0,-2.2119,-2.1734,-2.2119,-2.2102,-2.1782,-2.3122,-2.3481,-2.3168,-2.4417,-2.4594,-2.4009,-2.3719,0.0,0.0,-2.3595,-2.3595,-2.3595,-2.3595,-2.3595,-2.3595,-2.3595,-2.3595,-2.3551,-2.3275,-2.2965,-2.2649,-2.2346,-2.1571,-2.0795,-2.0795,-2.0295,-1.9798,-1.9798,-1.9798,-1.9798,-1.9798,-1.9798,-1.9798,0.0,0.0,0.0,0.0,0.0,0.0,-1.813,-1.7605,-1.7397,0.0,0.0,0.0,0.0,0.0,0.0,0.0,-1.6895,-1.6359,-1.5632,-1.5959,-1.6138,0.0,0.0,0.0,-1.6007,-1.5831,-1.584,-1.6095,-1.6699,-1.7139,-1.7393,-1.7812,-1.8008,-1.8008,-1.8008,-1.7794,-1.7389,-1.7389,-1.7148,-1.6724,-1.6219,-1.572,-1.5226,-1.4307,-1.3593,-1.3098,-1.3098,-1.2732,-1.2305,-2.4198,0.0,0.0,0.0,0.0,0.0,0.0,-2.3595,0.0,-2.3098,0.0,-2.2296,-2.2296,-2.2296,-2.2296,-2.2296,0.0,-2.2296,-2.2296,-2.2296,-2.2296,-2.2296,-2.2296,-2.2268,-2.2209,-2.2209,0.0,0.0,-2.1936,-2.175,-2.1019,-2.1773,-2.1773,-2.1178,-2.2272,-2.2698,0.0,-2.3314,-2.3595,-2.3595,-2.3595,-2.3595,-2.3595,-2.3595,-2.3595,-2.3595,-2.3507,-2.3543,-2.3588,-2.3501,-2.348,-2.3377,-2.2762,-2.2498,-2.2337,-2.1734,-2.1161,-2.0671,-2.0671,-2.0245,-1.9798,-1.9798,-1.9798,-1.9773,-1.9669,-1.9669,-1.9631,-1.9527,-1.9006,0.0,0.0,0.0,0.0,-1.7986,0.0,0.0,0.0,0.0,0.0,0.0,0.0,0.0,0.0,0.0,-1.591,-1.487,-1.5176,0.0,0.0,0.0,0.0,0.0,-1.587,0.0,-1.6183,0.0,-1.7445,-1.7471,-1.7832,-1.8008,-1.8008,-1.7862,-1.7354,-1.6593,-1.6463,-1.5965,-1.5199,-1.5057,-1.4414,-1.3455,-1.2629,-1.2305,-1.2305,-1.2305,-1.2305,-1.2305,0.0,0.0,0.0,0.0,0.0,-2.5443,-2.2993,-2.3419,-2.3646,-2.261,-2.2369,-2.2296,-2.2296,-2.2296,-2.2296,-2.2296,-2.2296,0.0,0.0,0.0,0.0,-2.2296,-2.2296,-2.212,-2.1718,-2.1718,-2.1532,0.0,-2.1183,-2.1146,-2.1005,-2.115,-2.144,-2.1854,-2.2671,-2.3404,-2.4015,-2.3728,0.0,-2.3595,-2.3595,-2.3595,-2.3595,-2.3595,-2.3595,-2.3543,-2.303,-2.3183,-2.3523,-2.3022,-2.2857,-2.2725,-2.2077,-2.1534,-2.1115,-2.0979,-2.0497,-1.9978,-1.9978,-1.9901,-1.9798,-1.9798,-1.9798,-1.9643,-1.9044,-1.8874,-1.8715,-1.8124,-1.7868,-1.7797,-1.7797,0.0,0.0,0.0,0.0,0.0,0.0,0.0,0.0,0.0,0.0,0.0,0.0,0.0,0.0,0.0,0.0,0.0,0.0,0.0,0.0,0.0,0.0,0.0,0.0,0.0,0.0,-1.79,-1.7978,-1.8008,-1.7974,-1.7207,-1.674,-1.6567,-1.579,-1.534,-1.5128,-1.4314,-1.3419,-1.2519,-1.2372,-1.2305,-1.2305,-1.2305,-1.2305,-1.2305,0.0,0.0,0.0,0.0,0.0,0.0,0.0,-2.381,0.0,-2.2375,-2.2296,-2.2296,-2.2296,-2.2296,-2.2296,-2.2296,-2.2296,-2.2296,-2.2296,-2.2296,-2.2194,-2.1943,-2.1928,0.0,-2.1291,-2.1291,-2.107,-2.0638,-2.0873,-2.0762,-2.0336,-2.1144,-2.1455,-2.1373,-2.2416,-2.3122,0.0,0.0,0.0,-2.3595,-2.3595,-2.3595,-2.3558,-2.325,-2.3132,-2.3044,-2.2417,-2.2366,-2.2563,-2.2275,-2.2175,-2.2066,-2.1435,-2.1037,-2.0721,-2.0371,-2.0055,-1.9798,-1.9798,-1.9798,-1.9798,-1.9798,-1.9501,-1.915,-1.8768,-1.8394,-1.8043,-1.766,-1.7302,-1.7034,-1.7034,-1.6726,0.0,0.0,0.0,0.0,0.0,0.0,0.0,0.0,0.0,0.0,0.0,0.0,0.0,0.0,0.0,0.0,0.0,0.0,0.0,0.0,0.0,0.0,0.0,0.0,0.0,-1.7285,-1.7285,-1.7001,-1.655,-1.6079,-1.5579,-1.5084,-1.4629,-1.4163,-1.3665,-1.3164,-1.2703,-1.2305,-1.2305,-1.2305,-1.2305,-1.2305,-1.2305,-1.2305,0.0,-2.5905,0.0,0.0,-2.669,0.0,-2.6697,-2.4201,-2.2287,-2.2302,-2.2296,-2.2296,-2.2296,-2.2296,-2.222,-2.2037,-2.2189,-2.2251,-2.2118,-2.2149,-2.1988,-2.1628,-2.1521,-2.1275,-2.0862,-2.0845,-2.0632,0.0,-2.0553,-2.0439,-1.9944,-2.1169,-2.1506,-2.119,0.0,0.0,0.0,0.0,-2.3595,-2.3595,-2.3595,-2.3523,-2.3377,-2.2877,-2.2608,-2.239,-2.1733,-2.1518,-2.1486,-2.1328,-2.1388,-2.1391,-2.0779,-2.0581,-2.0472,-1.9952,-1.9798,-1.9798,-1.9798,-1.9695,-1.9553,-1.9553,-1.9006,-1.8421,-1.8274,-1.7797,-1.733,-1.7163,-1.6669,-1.6322,-1.6464,-1.5892,0.0,0.0,0.0,0.0,0.0,0.0,0.0,0.0,0.0,0.0,0.0,0.0,0.0,0.0,0.0,-1.541,-1.541,-1.541,0.0,0.0,0.0,0.0,-1.7091,0.0,-1.7044,0.0,-1.628,-1.593,-1.5199,-1.4985,-1.445,-1.3709,-1.3491,-1.2989,-1.2305,-1.2305,-1.2305,-1.2305,-1.2305,-1.2305,-1.2305,-1.2305,-1.2305,-1.2305,0.0,0.0,0.0,0.0,0.0,0.0,0.0,-2.4202,-2.2304,-2.2304,-2.2296,-2.2296,-2.2296,-2.2296,-2.1991,-2.1192,-2.1838,-2.2073,-2.1528,-2.1594,-2.1658,-2.1597,-2.1244,-2.0845,-2.0382,-2.0365,-2.0176,0.0,0.0,-2.0085,-2.0612,-2.0746,-2.1421,0.0,0.0,0.0,0.0,-2.358,-2.3595,-2.3595,-2.3595,-2.3268,-2.2795,-2.2717,-2.2319,-2.1711,-2.1103,-2.0873,-2.0797,-2.0182,-2.0386,-2.0764,-2.0105,-1.9888,-1.9875,-1.9824,-1.9798,-1.9798,-1.9798,-1.9307,-1.8794,-1.8794,-1.8259,-1.7523,-1.6866,-1.6652,-1.6397,-1.5748,-1.5555,-1.5719,-1.6379,-1.5892,-1.5642,0.0,0.0,0.0,0.0,0.0,0.0,0.0,0.0,0.0,0.0,0.0,0.0,0.0,0.0,-1.541,-1.541,-1.541,-1.5615,-1.6085,0.0,-1.564,-1.6039,-1.5644,0.0,-1.534,-1.534,-1.5305,-1.5163,-1.4279,-1.3781,-1.3637,-1.2806,-1.2378,-1.2305,-1.2305,-1.2305,-1.2305,-1.2305,-1.2305,-1.2305,-1.2305,-1.2305,-1.2305,0.0,0.0,0.0,0.0,0.0,0.0,0.0,-2.47,-2.3402,-2.3975,-2.303,-2.2099,-2.1593,-2.1659,-2.1617,-2.1277,-2.1409,-2.1522,-2.1517,-2.1352,-2.1102,-2.083,-2.0666,-2.0381,-1.9962,-1.9929,-2.0068,0.0,0.0,0.0,-2.1311,-2.17,0.0,0.0,0.0,-2.3053,-2.3029,-2.2634,-2.2472,-2.2455,-2.2452,-2.2335,-2.2075,-2.1684,-2.139,-2.1069,-2.0425,-2.0194,-2.0156,-1.9888,-1.9991,-2.0153,-1.9889,-1.9798,-1.9798,-1.9798,-1.9798,-1.9695,-1.9254,-1.8927,-1.8581,-1.814,-1.7495,-1.6866,-1.6567,-1.6151,-1.5748,-1.5468,-1.541,-1.5497,-1.5777,-1.5613,-1.5497,0.0,0.0,0.0,0.0,0.0,0.0,0.0,0.0,0.0,0.0,0.0,-1.541,0.0,0.0,-1.541,-1.541,-1.4932,-1.5245,-1.6414,0.0,-1.5131,-1.6307,-1.559,-1.4914,-1.4314,-1.4314,-1.3991,-1.3448,-1.3055,-1.2842,-1.2842,-1.2445,-1.2305,-1.2305,-1.2305,-1.2305,-1.2305,-1.2305,-1.2305,-1.2305,-1.2305,-1.2305,-1.2305,-2.6974,0.0,-2.6698,0.0,-2.6691,-2.6708,-2.6704,-2.5354,-2.4517,-2.5021,-2.3713,-2.2397,-2.1587,-2.1561,-2.1436,-2.11,-2.1038,-2.1071,-2.1212,-2.0943,-2.0649,-2.0314,-2.0193,0.0,-1.9708,-1.9708,-2.0034,-2.0703,-2.0703,0.0,0.0,0.0,0.0,0.0,-2.2875,-2.2586,-2.2352,-2.1916,-2.1695,-2.1701,-2.1708,-2.1592,-2.1401,-2.0945,-2.0686,-2.0438,-1.9977,-1.9798,-1.9798,-1.9798,-1.9798,-1.9798,-1.9798,-1.9798,-1.9798,-1.9798,-1.9656,-1.9344,-1.8833,-1.8382,-1.7934,-1.7413,-1.6726,-1.6179,-1.6179,-1.5777,-1.541,-1.541,-1.541,-1.541,-1.541,-1.541,-1.541,0.0,0.0,0.0,0.0,0.0,0.0,0.0,0.0,0.0,0.0,0.0,0.0,0.0,0.0,-1.4805,-1.5021,-1.4342,0.0,0.0,0.0,0.0,0.0,-1.4807,-1.3991,-1.328,-1.328,-1.2952,-1.2305,-1.2305,-1.2305,-1.2305,-1.2305,-1.2305,-1.2305,-1.2305,-1.2305,-1.2305,-1.2305,-1.2305,-1.2305,-1.2305,-1.2305,-1.2305,-2.7218,-2.6971,-2.6708,-2.6691,-2.6691,-2.6691,-2.6708,-2.6065,-2.5379,-2.4875,-2.4148,-2.344,-2.2748,-2.2264,-2.1542,-2.0412,-2.0732,-2.0813,-2.0348,-2.0314,-2.0314,0.0,0.0,-1.9693,-1.9708,-1.9708,-2.0034,-2.0703,0.0,0.0,-2.2703,0.0,0.0,-2.2694,-2.2694,-2.2323,-2.171,-2.1704,-2.1701,-2.171,-2.1697,-2.1346,-2.082,-2.0795,-2.0383,-1.9811,-1.9798,-1.9798,-1.9798,-1.9798,-1.9798,-1.9798,-1.9798,-1.9798,-1.9798,-1.9798,-1.9275,-1.8699,-1.8712,-1.7633,-1.651,-1.6521,-1.595,-1.541,-1.541,-1.541,-1.541,-1.541,-1.541,-1.541,-1.541,-1.541,-1.541,-1.541,0.0,0.0,0.0,0.0,0.0,0.0,0.0,0.0,-1.4204,0.0,0.0,0.0,0.0,0.0,0.0,0.0,0.0,-1.4106,-1.3458,0.0,-1.3745,-1.2806,-1.2342,-1.2335,-1.2335,-1.2305,-1.2305,-1.2305,-1.2305,-1.2305,-1.2305,-1.2305,-1.2305,-1.2305,-1.2305,-1.2305,-1.2305,-1.2305,-1.2305,-1.2305,-1.2305,-1.2305,-2.6873,-2.6791,-2.6691,-2.6691,-2.6691,-2.6691,-2.6691,-2.5765,-2.5193,-2.5567,-2.4349,-2.3361,-2.3199,-2.2187,-2.1385,0.0,-2.0452,-2.0174,0.0,-2.0052,-1.9892,-1.9892,-2.0197,-2.0378,-2.0378,-2.0827,-2.138,-2.2074,0.0,0.0,0.0,-2.3076,-2.2875,-2.2649,-2.1799,-2.1296,-2.1053,-2.0599,-2.041,-2.0395,-2.0395,-2.0282,-2.0118,-2.0129,-1.9991,-1.9798,-1.9798,-1.9798,-1.9798,-1.9798,-1.9455,-1.9063,-1.9063,-1.9063,-1.9047,-1.9042,-1.854,-1.783,-1.7329,-1.6864,-1.6381,-1.5882,-1.5584,-1.541,-1.541,-1.541,-1.541,-1.541,-1.541,-1.541,-1.541,-1.541,-1.541,-1.541,0.0,0.0,0.0,0.0,0.0,0.0,0.0,0.0,0.0,-1.3627,0.0,0.0,0.0,0.0,0.0,0.0,0.0,0.0,-1.3026,0.0,-1.3709,-1.2769,-1.2305,-1.2305,-1.2305,-1.2305,-1.2305,-1.2305,-1.2305,-1.2305,-1.2305,-1.2305,-1.2305,-1.2305,-1.2305,-1.2305,-1.2305,-1.2305,-1.2305,-1.2305,-1.1885,-1.1279,-2.6285,-2.6285,-2.6285,-2.6285,-2.6522,-2.6641,-2.6453,-2.5759,-2.5291,-2.54,-2.4414,-2.365,-2.3488,-2.2485,0.0,-2.1124,-2.0681,0.0,-2.0449,-2.0454,-2.0456,-2.0456,-2.0857,-2.1081,-2.1081,0.0,0.0,-2.2323,-2.233,-2.2527,-2.2891,-2.2506,-2.2207,-2.1941,-2.1151,-2.0646,-2.0396,-1.9978,-1.9798,-1.9798,-1.9798,-1.9798,-1.9798,-1.9798,-1.9798,-1.976,-1.9493,-1.9404,-1.9328,-1.9075,-1.8685,-1.8291,-1.83,-1.8105,-1.7927,-1.8198,-1.775,-1.7092,-1.6642,-1.6308,-1.5965,-1.5517,-1.5537,-1.5653,-1.5664,-1.5527,-1.541,-1.541,-1.541,-1.541,-1.541,-1.541,-1.541,-1.541,0.0,-1.4962,0.0,0.0,0.0,0.0,0.0,0.0,0.0,-1.3037,0.0,0.0,0.0,0.0,0.0,0.0,0.0,-1.3473,-1.2564,0.0,-1.3164,-1.2586,-1.2305,-1.2305,-1.2305,-1.2305,-1.2305,-1.2305,-1.2305,-1.2305,-1.2305,-1.2305,-1.2305,-1.2305,-1.2305,-1.2305,-1.2305,-1.207,-1.1731,-1.1731,-1.1093,-1.0228,-2.5525,-2.5492,0.0,0.0,-2.6084,0.0,-2.5997,-2.5906,-2.554,-2.4532,-2.4369,-2.4158,-2.3659,-2.3107,-2.2254,-2.0942,0.0,0.0,0.0,-2.1321,-2.165,-2.1695,-2.1739,0.0,-2.1769,-2.1759,-2.1751,-2.1707,-2.1704,-2.1697,-2.1697,-2.1663,-2.1342,-2.0795,-2.0746,-2.0371,-1.9798,-1.9798,-1.9798,-1.9798,-1.9798,-1.9798,-1.9798,-1.9747,-1.9721,-1.9644,-1.8884,-1.863,-1.8526,-1.7824,-1.7575,-1.7515,-1.7516,-1.7011,-1.6566,-1.7299,-1.7011,-1.6432,-1.6402,-1.592,-1.541,-1.541,-1.5731,-1.6038,-1.6055,-1.5703,-1.541,-1.541,-1.541,-1.5381,-1.5323,-1.5323,-1.5294,-1.5235,-1.4599,-1.4115,-1.4115,0.0,0.0,0.0,0.0,0.0,0.0,-1.1915,-1.1455,0.0,0.0,0.0,0.0,0.0,-1.1933,-1.1933,-1.2164,-1.2305,-1.2305,-1.2305,-1.2305,-1.2305,-1.2305,-1.2305,-1.2305,-1.2305,-1.2305,-1.2305,-1.2305,-1.2305,-1.2305,-1.2305,-1.2261,-1.2187,-1.2187,-1.1583,-1.0708,-1.0708,-1.0078,-0.9183,0.0,0.0,-2.4448,-2.4911,-2.4866,-2.4928,-2.533,-2.5047,-2.4692,-2.443,-2.4032,-2.3745,-2.3616,-2.3475,-2.3056,-2.2298,-2.144,-2.1096,-2.144,-2.1122,-2.1171,-2.168,-2.2194,-2.2463,-2.2463,-2.2467,-2.2216,-2.1713,-2.1712,-2.1697,-2.1697,-2.1221,-2.0944,-2.0771,-2.0283,-1.9952,-1.9798,-1.9798,-1.9798,-1.9798,-1.9798,-1.9798,-1.9747,-1.9176,-1.8948,-1.8878,-1.8127,-1.7859,-1.7844,-1.7647,-1.7233,-1.6757,-1.6748,-1.6241,-1.581,-1.6526,-1.6241,-1.5663,-1.5669,-1.5545,-1.541,-1.541,-1.5493,-1.5581,-1.5556,-1.5488,-1.541,-1.541,-1.541,-1.5196,-1.4599,-1.4481,-1.4273,-1.3674,-1.3403,-1.3282,-1.3282,0.0,0.0,0.0,-1.2176,-1.1991,-1.2073,-1.2107,-1.2091,0.0,0.0,0.0,0.0,0.0,-1.2204,-1.2204,-1.2265,-1.2305,-1.2305,-1.2305,-1.2305,-1.2305,-1.2305,-1.2305,-1.2305,-1.2305,-1.2305,-1.2305,-1.2305,-1.2305,-1.2305,-1.2305,-1.1848,-1.1168,-1.1168,-1.0527,-0.9669,-0.9669,-0.9031,-0.8161,-2.3854,-2.3501,-2.349,-2.3941,-2.4118,-2.4348,-2.478,-2.4592,-2.4307,-2.4074,-2.3773,-2.3595,-2.3595,-2.3595,-2.346,-2.3152,-2.2443,-2.2069,-2.2164,-2.2069,-2.2188,-2.2547,-2.2927,-2.3122,-2.3122,-2.2849,-2.2244,-2.1293,-2.0964,-2.083,-2.083,-2.0509,-2.0346,-2.0334,-1.9952,-1.9798,-1.9798,-1.9798,-1.9618,-1.9293,-1.9293,-1.9097,-1.8741,-1.8355,-1.8193,-1.8109,-1.7368,-1.7097,-1.7051,-1.6724,-1.6319,-1.6005,-1.6005,-1.5722,-1.5488,-1.5888,-1.5722,-1.541,-1.541,-1.541,-1.5449,-1.5683,-1.5566,-1.5453,-1.5653,-1.5557,-1.5294,-1.4932,-1.4835,-1.4599,-1.3786,-1.3636,-1.3524,-1.307,-1.2696,-1.2451,-1.2451,-1.1992,0.0,-1.1815,-1.1861,-1.1953,-1.2051,-1.2204,-1.2305,-1.2305,0.0,0.0,-1.2305,-1.2305,-1.2305,-1.2305,-1.2305,-1.2305,-1.2305,-1.2305,-1.2305,-1.2305,-1.2305,-1.2305,-1.2305,-1.2305,-1.2305,-1.2305,-1.2305,-1.2033,-1.162,-1.162,-1.1019,-1.0115,-1.0115,-0.9518,-0.8618,-0.8618,-0.797,-0.7099,-2.3058,-2.2717,-2.272,-2.3065,-2.3597,-2.4046,-2.4256,-2.4266,-2.4116,-2.3659,-2.3595,-2.3595,-2.3595,-2.3595,-2.3595,-2.3595,-2.3508,-2.3241,-2.2742,-2.3178,-2.3447,-2.345,-2.3465,-2.3465,-2.3465,-2.2785,-2.1846,-2.066,-2.008,-1.9798,-1.9798,-1.9798,-1.9798,-1.9798,-1.9798,-1.9798,-1.9798,-1.9669,-1.9281,-1.8688,-1.8581,-1.8167,-1.7578,-1.7468,-1.7434,-1.7327,-1.661,-1.6345,-1.6241,-1.5615,-1.541,-1.541,-1.541,-1.541,-1.541,-1.541,-1.541,-1.541,-1.541,-1.541,-1.5517,-1.5998,-1.5694,-1.5398,-1.5825,-1.5493,-1.4881,-1.4163,-1.4025,-1.3756,-1.297,-1.2826,-1.2795,-1.2673,-1.205,-1.1617,-1.1617,0.0,-1.1149,-1.1362,-1.173,-1.2067,-1.2278,-1.2305,-1.2305,-1.2305,-1.2305,-1.2305,0.0,-1.2305,-1.2305,-1.2305,-1.2305,-1.2305,-1.2305,-1.2305,-1.2305,-1.2305,-1.2305,-1.2305,-1.2305,-1.2305,-1.2305,-1.2298,-1.215,-1.1583,-1.0783,-1.0634,-0.9965,-0.9069,-0.9069,-0.8466,-0.7591,-0.7591,-0.7022,-0.63,-2.367,-2.2768,-2.2361,-2.3141,-2.3075,-2.3111,-2.364,-2.3709,-2.3702,-2.3595,-2.3595,-2.3595,-2.3595,-2.3595,-2.3595,-2.3595,-2.312,-2.2801,-2.27,-2.2786,-2.2829,-2.2838,-2.283,-2.283,-2.283,-2.1704,-2.0708,-1.9952,-1.985,-1.9798,-1.9798,-1.9798,-1.9798,-1.9798,-1.9798,-1.9798,-1.9747,-1.915,-1.8794,-1.8661,-1.8004,-1.7715,-1.7523,-1.6922,-1.6662,-1.657,-1.5825,-1.5565,-1.5537,-1.5449,-1.541,-1.541,-1.541,-1.541,-1.541,-1.541,-1.541,-1.541,-1.541,-1.541,-1.5498,-1.5985,-1.5436,-1.4867,-1.5043,-1.4382,-1.3613,-1.325,-1.3191,-1.294,-1.2143,-1.1989,-1.1772,-1.1076,-1.0863,-1.0776,-1.0776,0.0,-1.1342,-1.1389,-1.1904,-1.2251,-1.2298,-1.2305,-1.2305,-1.2305,-1.2305,-1.2305,-1.2305,-1.2305,-1.2305,-1.2305,-1.2305,-1.2305,-1.2305,-1.2305,-1.2305,-1.2305,-1.2305,-1.2305,-1.2305,-1.2305,-1.2305,-1.2261,-1.1391,-1.0932,-1.0746,-0.9895,-0.8955,-0.805,-0.805,-0.7403,-0.6528,-0.6528,-0.6451,-0.63,-2.36,-2.2952,-2.2677,-2.2923,-2.2817,-2.2897,-2.3505,-2.3595,-2.3595,-2.3595,-2.3595,-2.3595,-2.3595,-2.3595,-2.3465,-2.3143,-2.2852,-2.242,-2.1728,-2.1985,-2.2161,-2.2156,-2.217,-2.2021,-2.168,-2.1115,-2.0472,-1.9798,-1.9798,-1.9798,-1.9798,-1.9798,-1.9798,-1.9798,-1.9798,-1.9798,-1.9747,-1.9006,-1.8474,-1.8031,-1.7302,-1.6782,-1.6386,-1.6026,-1.5921,-1.5864,-1.5526,-1.541,-1.541,-1.541,-1.541,-1.541,-1.541,-1.541,-1.541,-1.541,-1.541,-1.541,-1.541,-1.541,-1.54,-1.5356,-1.5034,-1.4596,-1.4179,-1.3727,-1.3217,-1.2491,-1.2358,-1.2112,-1.1288,-1.1132,-1.1045,-1.0649,-1.0593,0.0,0.0,-1.1156,-1.1483,-1.1643,-1.2037,-1.2305,-1.2305,-1.2305,-1.2305,-1.2305,-1.2305,-1.2305,-1.2305,-1.2305,-1.2305,-1.2305,-1.2305,-1.2305,-1.2305,-1.2305,-1.2305,-1.2305,-1.2305,-1.2305,-1.2261,-1.1731,-1.1502,-1.1428,-1.0421,-0.9701,-0.9135,-0.8689,-0.7897,-0.6984,-0.6984,-0.6718,-0.63,-0.63,-0.63,-0.63,-2.3824,-2.3363,-2.3105,-2.2923,-2.2912,-2.3077,-2.3535,-2.3595,-2.3595,-2.3595,-2.3595,-2.3595,-2.3595,-2.3465,-2.3187,-2.274,-2.2443,-2.1846,-2.087,-2.1075,-2.1328,-2.1472,-2.1496,-2.1197,-2.0572,-2.0572,-2.0334,-1.9798,-1.9798,-1.9798,-1.9798,-1.9605,-1.9527,-1.9527,-1.9371,-1.9281,-1.9228,-1.8489,-1.7841,-1.7274,-1.6539,-1.5921,-1.541,-1.541,-1.541,-1.541,-1.541,-1.541,-1.541,-1.541,-1.541,-1.5371,-1.5187,-1.5109,-1.5071,-1.4906,-1.4839,-1.4886,-1.5173,-1.523,-1.5132,-1.4742,-1.4495,-1.4144,-1.3429,-1.3091,-1.2684,-1.1737,-1.1531,-1.1313,-1.0713,-1.0593,-1.0593,-1.0593,0.0,0.0,0.0,-1.1303,-1.1617,-1.1879,-1.2124,-1.2305,-1.2305,-1.2077,-1.1959,-1.1959,-1.1737,-1.1589,-1.1589,-1.1589,-1.1589,-1.1589,-1.2077,-1.2305,-1.2305,-1.2305,-1.2187,-1.1959,-1.1959,-1.1848,-1.1589,-1.0789,-1.0453,-1.0415,-0.9405,-0.8504,-0.7783,-0.7557,-0.6984,-0.63,-0.63,-0.63,-0.63,-0.63,-0.63,-0.63,-2.5024,-2.4092,-2.3334,-2.3486,-2.3535,-2.355,-2.3595,-2.3595,-2.3595,-2.3595,-2.3595,-2.3595,-2.3595,-2.3098,-2.2754,-2.2694,-2.1633,-2.0894,-2.0795,-2.0245,-2.022,-2.0845,-2.087,-2.0547,-1.9901,-1.9875,-1.985,-1.9798,-1.9798,-1.9798,-1.9798,-1.9097,-1.8768,-1.8741,-1.807,-1.7759,-1.7715,-1.6978,-1.6624,-1.651,-1.5777,-1.5439,-1.541,-1.541,-1.541,-1.541,-1.541,-1.541,-1.541,-1.541,-1.541,-1.5264,-1.453,-1.428,-1.4127,-1.3392,-1.3174,-1.3405,-1.4453,-1.4737,-1.4719,-1.4547,-1.3849,-1.3159,-1.2979,-1.2231,-1.1364,-1.0803,-1.0688,-1.0681,-1.0624,-1.0593,-1.0593,-1.0593,0.0,0.0,-1.0989,-1.1511,-1.1879,-1.1899,-1.2124,-1.2305,-1.2305,-1.1465,-1.0901,-1.0901,-1.0045,-0.9523,-0.9523,-0.9523,-0.9523,-0.9523,-1.1323,-1.2305,-1.2305,-1.2305,-1.1842,-1.0901,-1.0901,-1.0415,-0.9523,-0.9448,-0.941,-0.9372,-0.8351,-0.7859,-0.7744,-0.6795,-0.6377,-0.63,-0.63,-0.63,-0.63,-0.63,-0.63,-0.63,-2.5153,-2.4532,-2.3892,-2.3636,-2.3595,-2.3595,-2.3595,-2.3595,-2.3465,-2.3076,-2.3031,-2.2883,-2.2469,-2.2216,-2.1913,-2.1561,-2.1091,-2.0622,-2.0194,-1.9952,-1.9901,-2.0182,-2.0182,-2.0055,-1.9811,-1.9798,-1.9798,-1.9798,-1.9798,-1.9553,-1.9123,-1.8821,-1.8474,-1.8015,-1.7743,-1.7605,-1.755,-1.681,-1.6492,-1.6436,-1.569,-1.541,-1.541,-1.541,-1.541,-1.541,-1.541,-1.5071,-1.4655,-1.4655,-1.4309,-1.3859,-1.3564,-1.3455,-1.3411,-1.3085,-1.3,-1.302,-1.3122,-1.3506,-1.3867,-1.3685,-1.3364,-1.2906,-1.2134,-1.1662,-1.1263,-1.0713,-1.0593,-1.0646,-1.0827,-1.0861,-1.0889,-1.1069,0.0,-1.1323,-1.1544,-1.1765,-1.1973,-1.2118,-1.1704,-1.1354,-1.1354,-1.0453,-0.9857,-0.9857,-0.9523,-0.9296,-0.9296,-0.9384,-0.9416,-0.9416,-1.025,-1.0645,-1.0565,-1.064,-1.0483,-1.0129,-1.0129,-0.9932,-0.9548,-0.8913,-0.8567,-0.845,-0.7442,-0.6962,-0.6834,-0.6451,-0.63,-0.63,-0.63,-0.63,-0.63,-0.63,-0.63,-0.63,-2.5115,-2.4617,-2.4032,-2.3659,-2.3595,-2.3595,-2.3595,-2.3443,-2.3179,-2.274,-2.2521,-2.2193,-2.1744,-2.152,-2.1245,-2.0845,-2.0597,-2.0295,-1.9824,-1.9579,-1.9553,-1.9798,-1.9798,-1.9798,-1.9798,-1.9798,-1.9798,-1.9798,-1.9798,-1.9423,-1.8688,-1.8463,-1.7961,-1.7246,-1.6996,-1.6912,-1.6884,-1.6368,-1.6151,-1.6122,-1.5613,-1.541,-1.541,-1.541,-1.5235,-1.5011,-1.5022,-1.4501,-1.3821,-1.3821,-1.3473,-1.2969,-1.271,-1.2458,-1.2239,-1.2239,-1.2242,-1.2189,-1.2003,-1.2336,-1.2763,-1.2748,-1.2785,-1.2607,-1.1613,-1.1389,-1.1263,-1.0713,-1.0593,-1.068,-1.0942,-1.0995,-1.1089,-1.1342,-1.1503,-1.1532,-1.144,-1.1501,-1.152,-1.1378,-1.0757,-1.034,-1.034,-0.9405,-0.8846,-0.8846,-0.8542,-0.8379,-0.8438,-0.8545,-0.8608,-0.8608,-0.8765,-0.8759,-0.8702,-0.9342,-0.9543,-0.9222,-0.9222,-0.9059,-0.8733,-0.8045,-0.7663,-0.7497,-0.6788,-0.6429,-0.63,-0.63,-0.63,-0.63,-0.63,-0.63,-0.63,-0.63,-0.63,-0.63,-2.5038,-2.4328,-2.3595,-2.3595,-2.3595,-2.3595,-2.3595,-2.3076,-2.2694,-2.2694,-2.21,-2.1697,-2.1697,-2.1161,-2.0795,-2.0795,-2.0169,-1.9798,-1.9798,-1.9123,-1.9006,-1.9747,-1.9773,-1.9773,-1.9773,-1.9773,-1.9773,-1.9773,-1.9773,-1.9397,-1.8661,-1.7934,-1.7191,-1.6464,-1.5719,-1.541,-1.541,-1.541,-1.541,-1.541,-1.541,-1.541,-1.541,-1.541,-1.4903,-1.4186,-1.42,-1.3678,-1.2994,-1.2994,-1.3003,-1.2838,-1.205,-1.1238,-1.0593,-1.0593,-1.0593,-1.0733,-1.1245,-1.1386,-1.1471,-1.181,-1.2091,-1.2151,-1.1529,-1.1389,-1.1263,-1.0713,-1.0593,-1.0687,-1.0949,-1.1002,-1.1096,-1.1349,-1.1677,-1.1543,-1.0551,-1.0625,-1.0415,-0.941,-0.9296,-0.9296,-0.9296,-0.8389,-0.7783,-0.7783,-0.6876,-0.6364,-0.6508,-0.662,-0.6702,-0.6702,-0.6851,-0.6886,-0.6886,-0.8756,-0.9186,-0.8209,-0.8209,-0.7683,-0.6705,-0.6705,-0.662,-0.6515,-0.6515,-0.6433,-0.63,-0.63,-0.63,-0.63,-0.63,-0.63,-0.63,-0.63,-0.63,-0.63,-2.4473,-2.4074,-2.3595,-2.3595,-2.3595,-2.3595,-2.3595,-2.3076,-2.2521,-2.2053,-2.1476,-2.0892,-2.0421,-2.022,-2.0105,-2.0105,-1.9927,-1.9579,-1.9071,-1.8821,-1.8581,-1.8274,-1.8259,-1.8259,-1.8259,-1.8259,-1.8259,-1.8259,-1.8259,-1.7879,-1.7146,-1.6922,-1.6425,-1.5729,-1.5497,-1.541,-1.541,-1.541,-1.541,-1.541,-1.541,-1.541,-1.541,-1.541,-1.4903,-1.4183,-1.4195,-1.3318,-1.2153,-1.2166,-1.1784,-1.1277,-1.1027,-1.0803,-1.0593,-1.0593,-1.0593,-1.0663,-1.102,-1.1277,-1.152,-1.206,-1.2238,-1.2141,-1.1535,-1.1406,-1.1282,-1.0942,-1.0894,-1.1015,-1.1551,-1.1638,-1.1703,-1.1991,-1.1516,-1.1009,-1.0708,-1.0146,-0.9631,-0.9334,-0.8694,-0.8237,-0.8237,-0.7326,-0.68,-0.6871,-0.6706,-0.6586,-0.663,-0.6776,-0.6861,-0.6861,-0.6957,-0.7034,-0.7034,-0.7588,-0.7735,-0.7433,-0.7433,-0.7263,-0.6964,-0.6964,-0.6871,-0.663,-0.663,-0.6491,-0.63,-0.63,-0.63,-0.63,-0.63,-0.63,-0.63,-0.63,-0.63,-0.63,-2.4186,-2.397,-2.3595,-2.3595,-2.3595,-2.3508,-2.329,-2.2725,-2.2077,-2.1438,-2.0807,-2.0245,-1.985,-1.9798,-1.9798,-1.9798,-1.9527,-1.9176,-1.8741,-1.814,-1.7633,-1.7191,-1.6884,-1.6996,-1.7578,-1.7605,-1.7605,-1.7605,-1.7605,-1.7219,-1.6492,-1.6492,-1.6122,-1.541,-1.541,-1.541,-1.541,-1.541,-1.541,-1.541,-1.541,-1.5216,-1.4916,-1.4916,-1.4238,-1.3237,-1.3248,-1.25,-1.1454,-1.1375,-1.0989,-1.0593,-1.0593,-1.0593,-1.0593,-1.0593,-1.0593,-1.0663,-1.1059,-1.1269,-1.1532,-1.2161,-1.2305,-1.2195,-1.1719,-1.16,-1.1512,-1.1216,-1.1169,-1.1321,-1.1797,-1.1572,-1.1405,-1.1649,-1.087,-1.0078,-0.9658,-0.9102,-0.8542,-0.8161,-0.7614,-0.7247,-0.7219,-0.6752,-0.6511,-0.6556,-0.6705,-0.679,-0.679,-0.6889,-0.6967,-0.6967,-0.7051,-0.7095,-0.7095,-0.7095,-0.7095,-0.7095,-0.7095,-0.7095,-0.7095,-0.7095,-0.6967,-0.6787,-0.6725,-0.66,-0.6467,-0.6347,-0.6334,-0.6378,-0.632,-0.63,-0.63,-0.63,-0.63,-0.63,-2.3988,-2.3851,-2.3513,-2.3515,-2.3508,-2.3297,-2.2645,-2.2025,-2.1411,-2.0803,-2.0194,-1.9798,-1.9798,-1.9798,-1.9773,-1.9721,-1.9044,-1.8581,-1.8501,-1.7257,-1.6464,-1.6397,-1.5748,-1.6026,-1.7374,-1.7401,-1.7401,-1.7401,-1.7401,-1.7052,-1.6397,-1.6397,-1.6036,-1.541,-1.541,-1.541,-1.541,-1.5323,-1.5323,-1.5381,-1.5235,-1.479,-1.4203,-1.4125,-1.315,-1.1839,-1.1798,-1.1457,-1.0966,-1.0696,-1.0593,-1.0593,-1.0593,-1.0593,-1.0593,-1.0593,-1.0593,-1.0733,-1.1245,-1.141,-1.1556,-1.2137,-1.2305,-1.2218,-1.197,-1.1891,-1.1799,-1.1499,-1.1435,-1.1519,-1.177,-1.1061,-1.0477,-1.0636,-0.982,-0.8841,-0.7936,-0.7706,-0.7326,-0.6412,-0.6426,-0.646,-0.633,-0.6546,-0.6722,-0.6722,-0.6861,-0.6906,-0.6906,-0.7024,-0.7095,-0.7095,-0.7095,-0.7095,-0.7095,-0.7095,-0.7095,-0.7095,-0.7095,-0.7095,-0.7095,-0.7095,-0.7018,-0.6876,-0.6766,-0.6695,-0.6658,-0.6416,-0.6375,-0.648,-0.6351,-0.63,-0.63,-0.63,-0.63,-0.63,-2.2859,-2.2966,-2.2899,-2.2892,-2.2897,-2.2521,-2.1459,-2.1118,-2.0795,-2.026,-1.995,-1.9798,-1.9798,-1.9798,-1.9553,-1.8992,-1.8259,-1.7594,-1.7006,-1.668,-1.6226,-1.5661,-1.5497,-1.5555,-1.5853,-1.5882,-1.5882,-1.5882,-1.5882,-1.5806,-1.5642,-1.5642,-1.5555,-1.541,-1.541,-1.541,-1.5352,-1.4726,-1.4815,-1.5294,-1.4034,-1.3779,-1.4125,-1.3511,-1.2778,-1.2094,-1.1872,-1.146,-1.0948,-1.0703,-1.0593,-1.0593,-1.0593,-1.0593,-1.0593,-1.0593,-1.0593,-1.0733,-1.1245,-1.141,-1.1556,-1.2137,-1.2305,-1.2218,-1.197,-1.1915,-1.1889,-1.1823,-1.1782,-1.164,-1.1138,-1.0855,-1.0459,-0.9734,-0.8765,-0.8046,-0.7821,-0.7138,-0.6528,-0.6338,-0.6426,-0.6501,-0.647,-0.6702,-0.6836,-0.6836,-0.697,-0.7051,-0.7051,-0.7082,-0.7095,-0.7095,-0.7095,-0.7095,-0.7095,-0.7095,-0.7095,-0.7095,-0.7095,-0.7095,-0.7095,-0.7095,-0.7018,-0.6876,-0.6766,-0.663,-0.6549,-0.6371,-0.6317,-0.634,-0.6313,-0.63,-0.63,-0.63,-0.63,-0.63,-2.2054,-2.2224,-2.2129,-2.1888,-2.1845,-2.1432,-2.0229,-2.001,-1.9774,-1.9229,-1.9305,-1.9334,-1.907,-1.9166,-1.8992,-1.8248,-1.7495,-1.6922,-1.6521,-1.6179,-1.5806,-1.541,-1.541,-1.541,-1.541,-1.541,-1.541,-1.541,-1.541,-1.541,-1.541,-1.541,-1.541,-1.5381,-1.4991,-1.4844,-1.4776,-1.3974,-1.3876,-1.4183,-1.3342,-1.3033,-1.3024,-1.2593,-1.2012,-1.1432,-1.129,-1.1059,-1.0812,-1.0803,-1.071,-1.0593,-1.0593,-1.0593,-1.0593,-1.0593,-1.0593,-1.0733,-1.1245,-1.141,-1.1433,-1.1556,-1.1593,-1.168,-1.2013,-1.2094,-1.2078,-1.208,-1.1713,-1.1245,-1.0883,-1.0034,-0.9195,-0.8689,-0.7744,-0.7099,-0.7099,-0.6644,-0.6323,-0.6395,-0.6532,-0.6634,-0.6776,-0.6875,-0.6913,-0.698,-0.7055,-0.7095,-0.7095,-0.7095,-0.7095,-0.7095,-0.7095,-0.7095,-0.7095,-0.7095,-0.7095,-0.7095,-0.7095,-0.7095,-0.7095,-0.7095,-0.7055,-0.6977,-0.6871,-0.6763,-0.6671,-0.6494,-0.6402,-0.6395,-0.6327,-0.63,-0.63,-0.63,-0.63,-0.63,-2.1445,-2.1565,-2.1366,-2.0849,-2.0745,-2.0288,-1.9021,-1.8897,-1.8731,-1.8136,-1.8519,-1.8657,-1.8099,-1.8081,-1.7894,-1.7362,-1.6637,-1.6239,-1.6312,-1.5748,-1.541,-1.541,-1.541,-1.541,-1.541,-1.541,-1.541,-1.541,-1.541,-1.541,-1.541,-1.541,-1.541,-1.5352,-1.4569,-1.4213,-1.4145,-1.3183,-1.2879,-1.2978,-1.2704,-1.2266,-1.179,-1.165,-1.1197,-1.0663,-1.0624,-1.0593,-1.0628,-1.0856,-1.0771,-1.0593,-1.0593,-1.0485,-1.0376,-1.0376,-1.0268,-1.0268,-1.0771,-1.0913,-1.0862,-1.0617,-1.0541,-1.0748,-1.1614,-1.1774,-1.1766,-1.176,-1.1107,-1.0498,-1.0314,-0.8931,-0.7783,-0.7591,-0.6872,-0.6352,-0.6347,-0.6344,-0.6388,-0.6535,-0.6647,-0.6844,-0.7068,-0.6991,-0.697,-0.7088,-0.7095,-0.7095,-0.7095,-0.7095,-0.7095,-0.7095,-0.7095,-0.7095,-0.7095,-0.7095,-0.7095,-0.7095,-0.7095,-0.7095,-0.7095,-0.7095,-0.7095,-0.7088,-0.6947,-0.6873,-0.6868,-0.6586,-0.6497,-0.6463,-0.6344,-0.63,-0.63,-0.63,-0.63,-0.63,-2.0918,-2.0955,-2.0681,-2.0203,-2.008,-1.9475,-1.7878,-1.8017,-1.8145,-1.7574,-1.7978,-1.8076,-1.7497,-1.6367,-1.5796,-1.6094,-1.5456,-1.5189,-1.5526,-1.5468,-1.541,-1.541,-1.541,-1.541,-1.541,-1.541,-1.541,-1.541,-1.541,-1.541,-1.541,-1.541,-1.541,-1.5352,-1.4569,-1.4213,-1.4085,-1.2596,-1.2358,-1.2887,-1.1476,-1.1298,-1.1736,-1.1024,-1.0852,-1.0918,-1.0663,-1.0593,-1.06,-1.0648,-1.0621,-1.0593,-1.0593,-1.0091,-0.9491,-0.9491,-0.8937,-0.845,-0.8868,-0.899,-0.9059,-0.9411,-0.9497,-0.9535,-0.9661,-0.9691,-0.969,-0.9569,-0.9532,-0.9231,-0.8373,-0.8069,-0.7694,-0.6834,-0.6574,-0.6521,-0.6619,-0.6558,-0.6542,-0.6651,-0.6803,-0.692,-0.7082,-0.7078,-0.7075,-0.7095,-0.7095,-0.7095,-0.7095,-0.7095,-0.7095,-0.7095,-0.7095,-0.7095,-0.7095,-0.7095,-0.7095,-0.7095,-0.7095,-0.7095,-0.7095,-0.7095,-0.7095,-0.7088,-0.6947,-0.6854,-0.6719,-0.6546,-0.6439,-0.6327,-0.6306,-0.63,-0.63,-0.63,-0.63,-0.63,-2.0202,-2.0205,-2.0084,-1.9866,-1.9168,-1.823,-1.7068,-1.7099,-1.7174,-1.6936,-1.74,-1.7395,-1.6441,-1.539,-1.4894,-1.5249,-1.4998,-1.4961,-1.5381,-1.541,-1.541,-1.541,-1.541,-1.541,-1.541,-1.4962,-1.4726,-1.4726,-1.5167,-1.541,-1.541,-1.541,-1.5167,-1.4688,-1.3885,-1.3274,-1.2779,-1.1624,-1.132,-1.16,-1.0902,-1.0825,-1.108,-1.0737,-1.0663,-1.0771,-1.0631,-1.0593,-1.053,-1.0028,-0.9868,-0.9786,-0.9301,-0.8888,-0.8581,-0.8587,-0.8295,-0.8084,-0.8398,-0.8554,-0.8543,-0.8344,-0.8392,-0.8276,-0.7626,-0.7544,-0.7942,-0.8988,-0.8827,-0.8329,-0.788,-0.7399,-0.6906,-0.6471,-0.6468,-0.6536,-0.6563,-0.6583,-0.6658,-0.681,-0.6913,-0.7028,-0.7092,-0.7095,-0.7095,-0.7095,-0.7095,-0.7095,-0.7095,-0.7095,-0.7095,-0.7095,-0.7095,-0.7095,-0.7095,-0.7095,-0.7095,-0.7095,-0.7095,-0.7095,-0.7095,-0.7095,-0.7095,-0.7092,-0.7031,-0.6873,-0.6695,-0.6627,-0.6508,-0.63,-0.63,-0.63,-0.63,-0.63,-0.5906,-0.5395]},{"header":{"parameterUnit":"m.s-1","parameterCategory":1,"la1":30.6,"la2":28.766,"lo1":-90.7593,"lo2":-88.6598,"dy":0.0162,"dx":0.0183,"nx":116,"ny":114,"refTime":"2023-06-02T06:00:00:Z","depth":0,"parameterNumber":3,"parameterNumberName":"V-component_of_WINDS"},"data":[0.0,0.0,0.0,0.0,0.0,0.0,0.0,0.0,0.0,0.0,0.0,0.0,0.0,0.0,0.0,0.0,0.0,0.0,0.0,0.0,0.0,0.0,0.0,0.0,0.0,0.0,0.0,0.0,0.0,0.0,0.0,0.0,0.0,0.0,0.0,0.0,0.0,0.0,0.0,0.0,0.0,0.0,0.0,0.0,0.0,0.0,0.0,0.0,0.0,0.0,0.0,0.0,0.0,0.0,0.0,0.0,0.0,0.0,0.0,0.0,0.0,0.0,0.0,0.0,0.0,0.0,0.0,0.0,0.0,0.0,0.0,0.0,0.0,0.0,0.0,0.0,0.0,0.0,0.0,0.0,0.0,0.0,0.0,0.0,0.0,0.0,0.0,0.0,0.0,0.0,0.0,0.0,0.0,0.0,0.0,0.0,0.0,0.0,0.0,0.0,0.0,0.0,0.0,0.0,0.0,0.0,0.0,0.0,0.0,0.0,0.0,0.0,0.0,0.0,0.0,0.0,0.0,0.0,0.0,0.0,0.0,0.0,0.0,0.0,0.0,0.0,0.0,0.0,0.0,0.0,0.0,0.0,0.0,0.0,0.0,0.0,0.0,0.0,0.0,0.0,0.0,0.0,0.0,0.0,0.0,0.0,0.0,0.0,0.0,0.0,0.0,0.0,0.0,0.0,0.0,0.0,0.0,0.0,0.0,0.0,0.0,0.0,0.0,0.0,0.0,0.0,0.0,0.0,0.0,0.0,0.0,0.0,0.0,0.0,0.0,0.0,0.0,0.0,0.0,0.0,0.0,0.0,0.0,0.0,0.0,0.0,0.0,0.0,0.0,0.0,0.0,0.0,0.0,0.0,0.0,0.0,0.0,0.0,0.0,0.0,0.0,0.0,0.0,0.0,0.0,0.0,0.0,0.0,0.0,0.0,0.0,0.0,0.0,0.0,0.0,0.0,0.0,0.0,0.0,0.0,0.0,0.0,0.0,0.0,0.0,0.0,0.0,0.0,0.0,0.0,0.0,0.0,0.0,0.0,0.0,0.0,0.0,0.0,0.0,0.0,0.0,0.0,0.0,0.0,0.0,0.0,0.0,0.0,0.0,0.0,0.0,0.0,0.0,0.0,0.0,0.0,0.0,0.0,0.0,0.0,0.0,0.0,0.0,0.0,0.0,0.0,0.0,0.0,0.0,0.0,0.0,0.0,0.0,0.0,0.0,0.0,0.0,0.0,0.0,0.0,0.0,0.0,0.0,0.0,0.0,0.0,0.0,0.0,0.0,0.0,0.0,0.0,0.0,0.0,0.0,0.0,0.0,0.0,0.0,0.0,0.0,0.0,0.0,0.0,0.0,0.0,0.0,0.0,0.0,0.0,0.0,0.0,0.0,0.0,0.0,0.0,0.0,0.0,0.0,0.0,0.0,0.0,0.0,0.0,0.0,0.0,0.0,0.0,0.0,0.0,0.0,0.0,0.0,0.0,0.0,0.0,0.0,0.0,0.0,0.0,0.0,0.0,0.0,0.0,0.0,0.0,0.0,0.0,0.0,0.0,0.0,0.0,0.0,0.0,0.0,0.0,0.0,0.0,0.0,0.0,0.0,0.0,0.0,0.0,0.0,0.0,0.0,0.0,0.0,0.0,0.0,0.0,0.0,0.0,0.0,0.0,0.0,0.0,0.0,0.0,0.0,0.0,0.0,0.0,0.0,0.0,0.0,0.0,0.0,0.0,0.0,0.0,0.0,0.0,0.0,0.0,0.0,0.0,0.0,0.0,0.0,0.0,0.0,0.0,0.0,0.0,0.0,0.0,0.0,0.0,0.0,0.0,0.0,0.0,0.0,0.0,0.0,0.0,0.0,0.0,0.0,0.0,0.0,0.0,0.0,0.0,0.0,0.0,0.0,0.0,0.0,0.0,0.0,0.0,0.0,0.0,0.0,0.0,0.0,0.0,0.0,0.0,0.0,0.0,0.0,0.0,0.0,0.0,0.0,0.0,0.0,0.0,0.0,0.0,0.0,0.0,0.0,0.0,0.0,0.0,0.0,0.0,0.0,0.0,0.0,0.0,0.0,0.0,0.0,0.0,0.0,0.0,0.0,0.0,0.0,0.0,0.0,0.0,0.0,0.0,0.0,0.0,0.0,0.0,0.0,0.0,0.0,0.0,0.0,0.0,0.0,0.0,0.0,0.0,0.0,0.0,0.0,0.0,0.0,0.0,0.0,0.0,0.0,0.0,0.0,0.0,0.0,0.0,0.0,0.0,0.0,0.0,0.0,0.0,0.0,0.0,0.0,0.0,0.0,0.0,0.0,0.0,0.0,0.0,0.0,0.0,0.0,0.0,0.0,0.0,0.0,0.0,0.0,0.0,0.0,0.0,0.0,0.0,0.0,0.0,0.0,0.0,0.0,0.0,0.0,0.0,0.0,0.0,0.0,0.0,0.0,0.0,0.0,0.0,0.0,0.0,0.0,0.0,0.0,0.0,0.0,0.0,0.0,0.0,0.0,0.0,0.0,0.0,0.0,0.0,0.0,0.0,0.0,0.0,0.0,0.0,0.0,0.0,0.0,0.0,0.0,0.0,0.0,0.0,0.0,0.0,0.0,0.0,0.0,0.0,0.0,0.0,0.0,0.0,0.0,0.0,0.0,0.0,0.0,0.0,0.0,0.0,0.0,0.0,0.0,0.0,0.0,0.0,0.0,0.0,0.0,0.0,0.0,0.0,0.0,0.0,0.0,0.0,0.0,0.0,0.0,0.0,0.0,0.0,0.0,0.0,0.0,0.0,0.0,0.0,0.0,0.0,0.0,0.0,0.0,0.0,0.0,0.0,0.0,0.0,0.0,0.0,0.0,0.0,0.0,0.0,0.0,0.0,0.0,0.0,0.0,0.0,0.0,0.0,0.0,0.0,0.0,0.0,0.0,0.0,0.0,0.0,0.0,0.0,0.0,0.0,0.0,0.0,0.0,0.0,0.0,0.0,0.0,0.0,0.0,0.0,0.0,0.0,0.0,0.0,0.0,0.0,0.0,0.0,0.0,0.0,0.0,0.0,0.0,0.0,0.0,0.0,0.0,0.0,0.0,0.0,0.0,0.0,0.0,0.0,0.0,0.0,0.0,0.0,0.0,0.0,0.0,0.0,0.0,0.0,0.0,0.0,0.0,0.0,0.0,0.0,0.0,0.0,0.0,0.0,0.0,0.0,0.0,0.0,0.0,0.0,0.0,0.0,0.0,0.0,0.0,0.0,0.0,0.0,0.0,0.0,0.0,0.0,0.0,0.0,0.0,0.0,0.0,0.0,0.0,0.0,0.0,0.0,0.0,0.0,0.0,0.0,0.0,0.0,0.0,0.0,0.0,0.0,0.0,0.0,0.0,0.0,0.0,0.0,0.0,0.0,0.0,0.0,0.0,0.0,0.0,0.0,0.0,0.0,0.0,0.0,0.0,0.0,0.0,0.0,0.0,0.0,0.0,0.0,0.0,0.0,0.0,0.0,0.0,0.0,0.0,0.0,0.0,0.0,0.0,0.0,0.0,0.0,0.0,0.0,0.0,0.0,0.0,0.0,0.0,0.0,0.0,0.0,0.0,0.0,0.0,0.0,0.0,0.0,0.0,0.0,0.0,0.0,0.0,0.0,0.0,0.0,0.0,0.0,0.0,0.0,0.0,0.0,0.0,0.0,0.0,0.0,0.0,0.0,0.0,0.0,0.0,0.0,0.0,0.0,0.0,0.0,0.0,0.0,0.0,0.0,0.0,0.0,0.0,0.0,0.0,0.0,0.0,0.0,0.0,0.0,0.0,0.0,0.0,0.0,0.0,0.0,0.0,0.0,0.0,0.0,0.0,0.0,0.0,0.0,0.0,0.0,0.0,0.0,0.0,0.0,0.0,0.0,0.0,0.0,0.0,0.0,0.0,0.0,0.0,0.0,0.0,0.0,0.0,0.0,0.0,0.0,0.0,0.0,0.0,0.0,0.0,0.0,0.0,0.0,0.0,0.0,0.0,0.0,0.0,0.0,0.0,0.0,0.0,0.0,0.0,0.0,0.0,0.0,0.0,0.0,0.0,0.0,0.0,0.0,0.0,0.0,0.0,0.0,0.0,0.0,0.0,0.0,0.0,0.0,0.0,0.0,0.0,0.0,0.0,0.0,0.0,0.0,0.0,0.0,0.0,0.0,0.0,0.0,0.0,0.0,0.0,0.0,0.0,0.0,0.0,0.0,0.0,0.0,0.0,0.0,0.0,0.0,0.0,0.0,0.0,0.0,0.0,0.0,0.0,0.0,0.0,0.0,0.0,0.0,0.0,0.0,0.0,0.0,0.0,0.0,0.0,0.0,0.0,0.0,0.0,0.0,0.0,0.0,0.0,0.0,0.0,0.0,0.0,0.0,0.0,0.0,0.0,0.0,0.0,0.0,0.0,0.0,0.0,0.0,0.0,0.0,0.0,0.0,0.0,0.0,0.0,0.0,0.0,0.0,0.0,0.0,0.0,0.0,0.0,0.0,0.0,0.0,0.0,0.0,0.0,0.0,0.0,0.0,0.0,0.0,0.0,0.0,0.0,0.0,0.0,0.0,0.0,0.0,0.0,0.0,0.0,0.0,0.0,0.0,0.0,0.0,0.0,0.0,0.0,0.0,0.0,0.0,0.0,0.0,0.0,0.0,0.0,0.0,0.0,0.0,0.0,0.0,0.0,0.0,0.0,0.0,0.0,0.0,0.0,0.0,0.0,0.0,0.0,0.0,0.0,0.0,0.0,0.0,0.0,0.0,0.0,0.0,0.0,0.0,0.0,0.0,0.0,0.0,0.0,0.0,0.0,0.0,0.0,0.0,0.0,0.0,0.0,0.0,0.0,0.0,0.0,0.0,0.0,0.0,0.0,0.0,0.0,0.0,0.0,0.0,0.0,0.0,0.0,0.0,0.0,0.0,0.0,0.0,0.0,0.0,0.0,0.0,0.0,0.0,0.0,0.0,0.0,0.0,0.0,0.0,0.0,0.0,0.0,0.0,0.0,0.0,0.0,0.0,0.0,0.0,0.0,0.0,0.0,0.0,0.0,0.0,0.0,0.0,0.0,0.0,0.0,0.0,0.0,0.0,0.0,0.0,0.0,0.0,0.0,0.0,0.0,0.0,0.0,0.0,0.0,0.0,0.0,0.0,0.0,0.0,0.0,0.0,0.0,0.0,0.0,0.0,0.0,0.0,0.0,0.0,0.0,0.0,0.0,0.0,0.0,0.0,0.0,0.0,0.0,0.0,0.0,0.0,0.0,0.0,0.0,0.0,0.0,0.0,0.0,0.0,0.0,0.0,0.0,0.0,0.0,0.0,0.0,0.0,0.0,0.0,0.0,0.0,0.0,0.0,0.0,0.0,0.0,0.0,0.0,0.0,0.0,0.0,0.0,0.0,0.0,0.0,0.0,0.0,0.0,0.0,0.0,0.0,0.0,0.0,0.0,0.0,0.0,0.0,0.0,0.0,0.0,0.0,0.0,0.0,0.0,0.0,0.0,0.0,0.0,0.0,0.0,0.0,0.0,0.0,0.0,0.0,0.0,0.0,0.0,0.0,0.0,0.0,0.0,0.0,0.0,0.0,0.0,0.0,0.0,0.0,0.0,0.0,0.0,0.0,0.0,0.0,0.0,0.0,0.0,0.0,0.0,0.0,0.0,0.0,0.0,0.0,0.0,0.0,0.0,0.0,0.0,0.0,0.0,0.0,0.0,0.0,0.0,0.0,0.0,0.0,0.0,0.0,0.0,0.0,0.0,0.0,0.0,0.0,0.0,0.0,0.0,0.0,0.0,0.0,0.0,0.0,0.0,0.0,0.0,0.0,0.0,0.0,0.0,0.0,0.0,0.0,0.0,0.0,0.0,0.0,0.0,0.0,0.0,0.0,0.0,0.0,0.0,0.0,0.0,0.0,0.0,0.0,0.0,0.0,0.0,0.0,0.0,0.0,0.0,0.0,0.0,0.0,0.0,0.0,0.0,0.0,0.0,0.0,0.0,0.0,0.0,0.0,0.0,0.0,0.0,0.0,0.0,0.0,0.0,0.0,0.0,0.0,0.0,0.0,0.0,0.0,0.0,0.0,0.0,0.0,0.0,0.0,0.0,0.0,0.92,0.0,0.0,0.0,0.0,0.0,0.0,0.0,0.0,0.0,0.0,0.0,0.0,0.0,0.0,0.0,0.0,0.0,0.0,0.0,0.0,0.0,0.0,0.0,0.0,0.0,0.0,0.0,0.0,0.0,0.0,0.0,0.0,0.0,0.0,0.0,0.0,0.0,0.0,1.0593,1.0734,1.0915,1.1202,1.2267,1.3331,1.4321,0.0,0.0,0.0,0.0,0.0,0.0,0.0,0.0,0.0,0.0,0.0,0.0,0.0,0.0,0.0,0.0,0.0,0.0,0.0,0.0,0.0,0.0,0.0,0.0,0.0,0.0,0.0,0.0,0.0,0.0,0.0,0.0,0.0,0.0,0.0,0.0,0.0,0.0,0.0,0.0,0.0,0.0,0.0,0.0,0.0,0.0,0.0,0.0,0.0,0.0,0.0,0.0,0.0,0.0,0.0,0.0,0.0,0.0,0.0,0.0,0.0,0.0,0.0,0.0,0.0,0.0,0.0,0.0,0.0,0.0,0.0,0.9465,0.0,0.0,0.0,0.0,0.0,0.0,0.0,0.0,0.0,0.0,0.0,0.0,0.0,0.0,0.0,0.0,0.0,0.0,0.0,0.0,0.0,0.0,0.0,0.5988,0.6427,0.7088,0.6731,0.6461,0.0,0.0,0.0,0.0,0.0,0.0,1.0364,1.0364,1.0391,1.0443,1.0963,1.1343,1.1549,1.1884,1.2821,1.4244,1.5069,0.0,0.0,0.0,0.0,0.0,0.0,0.0,0.0,0.0,0.0,0.0,0.0,0.0,0.0,0.0,0.0,0.0,0.0,0.0,0.0,0.0,0.0,0.0,0.0,0.0,0.0,0.0,0.0,0.0,0.0,0.0,0.0,0.0,0.0,0.0,0.0,0.0,0.0,0.0,0.0,0.0,0.0,0.0,0.0,0.0,0.0,0.0,0.0,0.0,0.0,0.0,0.0,0.0,0.0,0.0,0.0,0.0,0.0,0.0,0.0,0.0,0.0,0.0,0.0,1.2376,1.1906,1.1906,1.1562,1.0951,1.049,1.0401,1.0542,0.0,0.0,0.0,0.0,0.0,0.0,0.0,0.0,0.0,0.0,0.0,0.0,0.0,0.0,0.0,0.0,0.0,0.0,0.0,0.0,0.0,0.0,0.5231,0.5375,0.5647,0.5609,0.5557,0.5557,0.0,0.0,0.0,0.0,0.0,0.9466,0.9466,0.9574,0.9802,1.1378,1.2151,1.2191,1.2529,1.2814,1.3027,1.2861,1.3266,1.4112,0.0,0.0,0.0,0.0,0.0,0.0,0.0,0.0,0.0,0.0,0.0,0.0,0.0,0.0,0.0,0.0,0.0,0.0,0.0,0.0,0.0,0.0,0.0,0.0,0.0,0.0,0.0,0.0,0.0,0.0,0.0,0.0,0.0,0.0,0.0,0.0,0.0,0.0,0.0,0.0,0.0,1.2854,1.2249,0.0,0.0,0.0,0.0,0.0,0.0,0.0,0.0,0.0,0.0,0.0,0.0,0.0,0.0,1.2716,1.4208,1.4383,1.3258,1.4221,1.4275,1.3502,1.3502,1.2849,1.1765,1.2026,0.0,0.9865,0.9106,0.0,0.0,0.0,0.0,0.0,0.0,0.0,0.0,0.0,0.0,0.0,0.0,0.0,0.0,0.0,0.0,0.0,0.0,0.0,0.0,0.0,0.5209,0.532,0.5388,0.5474,0.5487,0.5399,0.5836,0.0,0.0,0.0,0.8059,0.8549,0.9043,0.9835,1.0924,1.2051,1.2726,1.3027,1.336,1.3414,1.3247,1.3113,1.3262,1.3759,1.429,0.0,0.0,0.0,0.0,0.0,0.0,0.0,0.0,0.0,0.0,0.0,0.0,0.0,0.0,0.0,0.0,0.0,0.0,0.0,0.0,0.0,0.0,0.0,0.0,0.0,0.0,0.0,0.0,0.0,0.0,0.0,0.0,0.0,0.0,0.0,0.0,0.0,0.0,0.0,1.39,1.3464,1.2821,1.2477,1.2328,0.0,0.0,0.0,0.0,0.0,0.0,0.0,0.0,0.0,1.4335,1.4862,1.5221,1.5386,1.5875,1.5961,1.5646,1.5892,1.5666,1.5067,1.483,1.4279,1.3488,1.2404,1.1713,1.1231,0.9896,0.9814,1.0364,0.0,0.0,0.0,0.0,0.0,0.8315,0.0,0.0,0.0,0.0,0.0,0.0,0.0,0.0,0.0,0.0,0.0,0.0,0.5157,0.5359,0.5494,0.5457,0.559,0.5579,0.5463,0.5525,0.588,0.6658,0.6687,0.7013,0.7665,0.8728,0.9975,1.1352,1.2528,1.3353,1.3833,1.4175,1.4148,1.3826,1.3826,1.3718,1.3484,1.4002,1.4393,1.4638,0.0,0.0,0.0,0.0,0.0,0.0,0.0,0.0,0.0,0.0,0.0,0.0,0.0,0.0,0.0,0.0,0.0,0.0,0.0,0.0,0.0,0.0,0.0,0.0,0.0,0.0,0.0,0.0,0.0,0.0,0.0,0.0,0.0,0.0,0.0,0.0,0.0,1.4602,1.427,1.3139,1.31,1.3058,0.0,0.0,0.0,0.0,0.0,0.0,1.4686,1.572,1.6365,1.6594,1.6787,1.7109,1.7539,1.7119,1.7119,1.7539,1.7184,1.6768,1.6251,1.5898,1.5332,1.4554,1.3004,1.2431,1.2457,1.0579,1.0389,1.1166,0.984,0.9413,0.9517,0.9185,0.8962,0.8804,0.0,0.0,0.0,0.0,0.0,0.0,0.0,0.0,0.0,0.0,0.0,0.4408,0.5282,0.5606,0.5725,0.5589,0.5708,0.5732,0.5589,0.5484,0.5793,0.6654,0.6687,0.6719,0.6752,0.8434,0.9458,0.9825,1.266,1.4175,1.4439,1.4783,1.4763,1.4432,1.4432,1.3869,1.2889,1.3352,1.3251,1.2952,1.4204,0.0,0.0,0.0,0.0,0.0,0.0,0.0,0.0,0.0,0.0,0.0,0.0,0.0,0.0,0.0,0.0,0.0,0.0,0.0,0.0,0.0,0.0,0.0,0.0,0.0,0.0,0.0,0.0,0.0,0.0,0.0,0.0,0.0,0.0,0.0,0.0,0.0,0.0,1.3233,1.407,0.0,0.0,0.0,0.0,1.3551,1.4028,1.4799,1.5921,1.6483,1.7108,1.7876,1.7549,1.7549,1.7978,1.7559,1.7559,1.7978,1.7959,1.751,1.6668,1.6648,1.5752,1.4248,1.4535,1.3978,1.2724,1.0656,0.984,0.9961,1.0491,0.9943,0.8936,0.9536,0.9335,0.8804,0.0,0.0,0.0,0.0,0.0,0.0,0.0,0.0,0.2259,0.3749,0.3953,0.4381,0.5426,0.5684,0.5779,0.5732,0.5864,0.5847,0.5606,0.5538,0.5629,0.5855,0.5848,0.6212,0.6944,0.7851,0.8846,0.9888,1.1413,1.2738,1.378,1.4149,1.4553,1.5084,1.5084,1.4636,1.3883,1.3482,1.328,1.3216,1.3349,1.3517,0.0,0.0,0.0,0.0,0.0,0.0,0.0,0.0,0.0,0.0,0.0,0.0,0.0,0.0,0.0,0.0,0.0,0.0,0.0,0.0,0.0,0.0,0.0,0.0,0.0,0.0,0.0,0.0,0.0,0.0,0.0,0.0,0.0,0.0,0.0,0.0,0.0,1.5455,1.6062,0.0,0.0,1.5666,1.5891,1.6039,1.6453,1.6998,1.7678,1.7859,1.8219,1.8828,1.8691,1.8682,1.8828,1.8398,1.8227,1.8373,1.7871,1.7451,1.7129,1.6562,1.6001,1.5392,1.4534,1.3969,1.3564,1.2132,1.1644,1.1726,1.1049,1.0762,1.0661,1.0038,0.964,0.9387,0.0,0.0,0.0,0.0,0.0,0.0,0.0,0.0,0.1394,0.29,0.3366,0.3958,0.5014,0.5581,0.5878,0.5878,0.5936,0.5888,0.5677,0.5569,0.5501,0.5399,0.5491,0.5901,0.67,0.7616,0.8629,0.9742,1.1186,1.2242,1.2911,1.404,1.4659,1.4918,1.5351,1.5271,1.477,1.4088,1.3591,1.3242,1.2963,1.2971,1.3172,0.0,0.0,0.0,0.0,0.0,0.0,0.0,0.0,0.0,0.0,0.0,0.0,0.0,0.0,0.0,0.0,0.0,0.0,0.0,0.0,0.0,0.0,0.0,0.0,0.0,0.0,0.0,0.0,0.0,0.0,0.0,0.0,0.0,0.0,0.0,1.7242,1.6968,1.7712,1.8071,1.7686,1.7881,1.8027,1.8027,1.8418,1.8779,1.9017,1.9173,1.9424,1.9744,1.958,1.9502,1.9502,1.889,1.8598,1.8598,1.793,1.7441,1.7139,1.6553,1.6153,1.5811,1.4762,1.4241,1.4031,1.3319,1.2972,1.2774,1.1609,1.1266,1.1341,1.021,0.9788,0.9718,0.0,0.0,0.0,0.0,0.0,0.0,0.0,0.0,0.0308,0.1201,0.2102,0.3046,0.4109,0.5231,0.5918,0.5993,0.5956,0.5925,0.5803,0.5559,0.5399,0.5409,0.5654,0.5888,0.6016,0.7768,0.8849,0.9268,1.1909,1.2727,1.1896,1.4418,1.4997,1.3974,1.5194,1.5624,1.5391,1.5149,1.4184,1.2874,1.3042,1.293,1.271,0.0,0.0,0.0,0.0,0.0,0.0,0.0,0.0,0.0,0.0,0.0,0.0,0.0,0.0,0.0,0.0,0.0,0.0,0.0,0.0,0.0,0.0,0.0,0.0,0.0,0.0,0.0,0.0,0.0,0.0,0.0,0.0,0.0,1.6746,1.7837,1.8353,1.7604,1.8945,1.9485,1.8332,1.8877,1.9326,1.9326,1.9707,1.9932,1.9932,2.0332,2.0605,2.0605,2.0156,1.9922,1.9912,1.9056,1.8637,1.8617,1.8213,1.7578,1.6746,1.6697,1.621,1.543,1.542,1.4903,1.4124,1.4124,1.3662,1.2842,1.2113,1.1441,1.0788,1.0115,0.984,0.9718,0.0,0.0,0.0,0.0,0.0,0.0,0.0,0.0,0.0308,0.1201,0.1521,0.2385,0.4209,0.4102,0.4448,0.5878,0.5346,0.5139,0.5629,0.5501,0.5491,0.5671,0.5864,0.6155,0.663,0.74,0.7889,0.8208,0.9082,0.9845,1.0534,1.1263,1.2425,1.3926,1.4262,1.4905,1.5691,1.5398,1.4917,1.4291,1.3272,1.2693,1.24,0.0,0.0,0.0,0.0,0.0,0.0,0.0,0.0,0.0,0.0,0.0,0.0,0.0,0.0,0.0,0.0,0.0,0.0,0.0,0.0,0.0,0.0,0.0,0.0,0.0,0.0,0.0,0.0,0.0,0.0,0.0,0.0,1.7974,1.7672,1.8724,1.9603,1.9725,2.0372,2.0702,2.0389,2.0285,2.0253,2.0253,2.0361,2.0429,2.0429,2.0537,2.0605,2.0605,2.0488,2.0234,1.9922,1.964,1.9414,1.9102,1.8359,1.7891,1.7594,1.668,1.6144,1.5899,1.5547,1.5107,1.4609,1.4609,1.4102,1.3276,1.2782,1.2486,1.223,1.1525,1.0636,0.9718,0.0,0.0,0.0,0.0,0.0,0.0,0.0,0.0,0.0185,0.0678,0.1069,0.1941,0.3655,0.3329,0.3814,0.5742,0.4955,0.472,0.553,0.5542,0.5589,0.5884,0.6162,0.6563,0.7102,0.7404,0.7672,0.7906,0.8534,0.897,0.9167,1.0288,1.1604,1.3102,1.3638,1.4609,1.5771,1.5651,1.5478,1.5231,1.4164,1.3387,1.2804,1.2389,1.2441,1.28,1.3502,1.4294,1.4989,1.5088,0.0,0.0,0.0,0.0,0.0,0.0,0.0,0.0,0.0,0.0,0.0,0.0,0.0,0.0,0.0,0.0,0.0,0.0,0.0,0.0,0.0,0.0,0.0,0.0,1.8588,1.9241,1.959,2.0273,2.0898,2.1328,2.1768,2.199,2.199,2.1797,2.1572,2.1396,2.1377,2.1309,2.1163,2.0947,2.084,2.084,2.0703,2.0478,2.0185,2.0,1.9707,1.9277,1.8603,1.7964,1.7451,1.6875,1.6339,0.0,1.5743,1.5342,1.4813,1.4813,1.4385,0.0,0.0,0.0,0.0,0.0,1.0939,0.9736,0.0,0.0,0.0,0.0,0.0,0.0,0.0,0.0,0.0,0.0,0.0679,0.1553,0.2643,0.2722,0.3451,0.5295,0.4666,0.457,0.5555,0.5603,0.5759,0.6054,0.6519,0.6959,0.7456,0.7695,0.7902,0.7988,0.9236,0.9198,0.8065,1.0422,1.1644,1.198,1.3167,1.4465,1.5784,1.5818,1.5811,1.5738,1.5271,1.4529,1.3606,1.2779,1.306,1.3797,1.3373,1.3963,1.4965,1.4783,0.0,0.0,0.0,0.0,0.0,0.0,0.0,0.0,0.0,0.0,0.0,0.0,0.0,0.0,0.0,0.0,0.0,0.0,0.0,0.0,0.0,0.0,0.0,0.0,1.9572,2.0576,2.1846,2.2031,2.2168,2.2539,2.2867,2.3091,2.3091,2.3052,2.2867,2.2539,2.2471,2.2275,2.1904,0.0,0.0,0.0,0.0,2.0683,2.0683,2.0156,1.9727,1.9346,1.8867,1.8013,1.6931,1.7246,1.6748,1.5644,1.5968,1.5664,1.495,1.4873,1.46,1.408,1.3021,1.2729,1.2798,1.208,1.104,0.0,0.0,0.0,0.0,0.0,0.0,0.0,0.0,0.0,0.0,0.0,0.0159,0.0663,0.1738,0.1711,0.2097,0.3338,0.3811,0.4501,0.552,0.5698,0.6003,0.6546,0.6839,0.722,0.7716,0.7902,0.7961,0.7988,0.8412,0.8479,0.8279,0.878,1.0125,1.2148,1.2217,1.3596,1.5798,1.6086,1.6046,1.5771,1.5705,1.5137,1.4233,1.3586,1.3238,1.3106,1.362,1.4044,1.4405,1.4692,1.4912,1.5001,1.4631,1.4192,0.0,0.0,0.0,0.0,0.0,0.0,0.0,0.0,0.0,0.0,0.0,0.0,0.0,0.0,0.0,0.0,0.0,0.0,0.0,2.042,2.1172,2.1826,2.2721,2.2847,2.2886,2.2964,2.3042,2.3091,2.3091,2.2789,2.2598,2.2519,2.2197,2.1973,2.1894,2.1807,0.0,2.1758,2.1338,2.1064,2.1064,2.0312,1.9873,1.9785,0.0,0.0,1.8217,1.7656,1.7246,1.6963,1.6369,1.5997,1.5821,1.543,1.5039,1.458,1.3668,1.3152,1.2798,1.208,1.1641,1.1266,0.0,0.0,0.0,0.0,0.0,0.0,0.0,0.0,0.0,0.0,0.0,0.0359,0.1338,0.0974,0.1241,0.2678,0.3547,0.4241,0.4851,0.5535,0.6186,0.6787,0.7099,0.7465,0.7867,0.7951,0.7988,0.7988,0.8194,0.8323,0.8323,0.8395,0.9444,1.1309,1.1805,1.3139,1.5019,1.5908,1.6106,1.5798,1.5992,1.5698,1.5065,1.4522,1.4021,1.3696,1.3943,1.4152,1.4319,1.4364,1.46,1.4822,1.4423,1.4013,1.3776,0.0,0.0,0.0,0.0,0.0,0.0,0.0,0.0,0.0,0.0,0.0,0.0,0.0,0.0,1.7847,0.0,0.0,2.0029,2.1348,2.1924,2.2422,2.3003,2.3091,2.3091,2.3091,2.3091,2.3091,2.3091,2.2906,2.2779,2.2779,2.2627,2.251,2.251,2.2314,2.2197,2.2197,2.1531,2.119,2.119,2.0576,2.0019,1.959,1.917,1.8633,1.7998,1.7578,1.7266,1.7021,1.6388,1.6095,1.6056,1.5586,1.5166,1.4774,1.4316,1.375,1.3139,1.2552,1.2129,1.169,0.0,0.0,0.0,0.0,0.0,0.0,0.0,0.0,0.0,0.0,0.0,0.0254,0.0957,0.0575,0.0926,0.2545,0.3355,0.3906,0.4244,0.5387,0.6303,0.69,0.7255,0.7611,0.7982,0.8019,0.8019,0.7988,0.8252,0.834,0.8368,0.8459,0.9182,1.0435,1.1663,1.289,1.4146,1.5705,1.6186,1.5939,1.6239,1.6179,1.5852,1.5271,1.4863,1.4563,1.4208,1.4145,1.4144,1.3865,1.4022,1.4275,1.4065,1.3847,1.3769,1.4374,1.4369,0.0,0.0,0.0,0.0,0.0,0.0,0.0,0.0,1.6846,1.7418,1.8223,1.8721,1.9212,2.0029,2.0527,2.1153,2.1982,2.2412,2.2711,2.3052,2.3091,2.3033,2.2877,2.2994,2.3091,2.3091,2.3091,2.3091,2.3091,2.3091,2.3091,2.3091,2.2779,2.2637,2.2637,2.1765,2.1317,2.1317,2.0752,2.0049,1.9287,1.9199,1.8584,1.75,1.75,1.7266,1.6794,1.632,1.6046,1.5938,1.5557,1.5215,1.4902,1.4814,1.4316,1.3574,1.3154,1.2601,1.1996,0.0,0.0,0.0,0.0,0.0,0.0,0.0,0.0,0.0,0.0,0.0,0.003,0.0124,0.0743,0.1577,0.2595,0.2782,0.3314,0.4399,0.5609,0.6498,0.7048,0.7411,0.7719,0.7982,0.8174,0.8177,0.7988,0.8455,0.8591,0.8462,0.8615,0.9292,1.0435,1.1663,1.2849,1.4045,1.5877,1.6486,1.6253,1.654,1.648,1.6159,1.5571,1.517,1.4888,1.4289,1.379,1.3278,1.3,1.277,1.2633,1.2904,1.2906,1.3009,1.3744,1.4073,1.4392,1.5167,1.541,1.541,1.541,1.5976,1.6765,0.0,0.0,1.9131,1.96,2.0049,2.0498,2.0956,2.1445,2.2012,2.2818,2.2994,2.3042,2.3091,2.3091,2.2818,2.2119,2.2685,2.3091,2.3091,2.3091,2.3091,2.3091,2.3091,2.3091,2.3091,2.3052,2.3023,2.3023,2.2256,2.1816,2.1816,2.0596,1.9746,1.9277,1.8896,1.8403,1.7939,1.7939,1.7705,1.7266,1.6457,1.587,1.5478,1.543,1.5381,1.5303,1.4932,1.4492,1.3987,1.3594,1.3143,1.2691,0.0,0.0,0.0,0.0,0.0,0.0,0.0,0.0,0.0,0.0,0.0,0.0,0.0,0.033,0.0715,0.108,0.2102,0.2983,0.3635,0.5325,0.6525,0.7068,0.7434,0.7736,0.7982,0.8191,0.8238,0.8174,0.8445,0.8591,0.8615,0.8679,0.894,0.9451,1.0732,1.2021,1.3236,1.4761,1.5775,1.6335,1.6406,1.6179,1.5718,1.5304,1.475,1.4162,1.3915,1.3333,0.0,1.2569,1.2405,1.2298,1.2288,1.2106,1.2164,1.3282,1.3712,1.4149,1.5443,1.5821,1.5918,1.6426,1.7021,1.7764,1.8867,1.959,2.0263,2.0918,2.1406,2.1826,2.2223,2.2448,2.2734,0.0,2.3091,2.3091,2.3091,2.2715,2.2187,2.1582,2.1582,2.1748,2.196,2.2223,2.251,2.2711,2.2955,2.3091,2.3091,2.3091,2.3091,2.3091,2.2324,2.1885,2.1885,2.082,1.9951,1.9287,1.9102,1.8535,1.7646,1.7646,1.7266,1.6623,1.6251,1.584,1.541,1.541,1.541,1.5391,1.5215,1.4893,1.4434,1.376,1.3242,1.2856,0.0,0.0,0.0,0.0,0.0,0.0,0.0,0.0,0.0,0.0,0.0,0.0,0.0,0.0,0.0086,0.0281,0.1531,0.2607,0.3262,0.486,0.6139,0.6886,0.7288,0.7631,0.7921,0.817,0.8323,0.8323,0.8455,0.8601,0.871,0.871,0.8686,0.8699,0.9965,1.1239,1.2521,1.3853,1.514,1.6315,1.6186,1.5798,1.5224,1.477,1.4001,1.3127,1.3207,1.2714,1.2044,1.1971,1.1944,1.1917,1.179,1.1709,1.1854,1.3036,1.3714,1.4396,1.5856,1.6369,1.6672,1.751,1.8232,1.8994,2.0001,2.0703,2.1318,2.207,2.2383,2.2607,2.2867,2.2925,2.2925,2.2925,2.3023,2.3052,2.2945,2.2246,2.1494,2.0898,2.0273,2.0039,2.043,2.124,2.1836,2.2139,2.2613,2.2925,2.2925,2.3033,2.3091,2.3091,2.2324,2.1885,2.1885,2.1045,2.0175,1.9287,1.9287,1.8682,1.7549,1.7432,1.6936,1.6095,1.6095,1.584,1.541,1.541,1.541,1.541,1.541,1.5156,1.4707,1.4092,1.3516,1.3081,0.0,0.0,0.0,0.0,0.0,0.0,0.0,0.0,0.0,0.0,0.0,0.0,0.0,0.0,0.028,0.1006,0.124,0.2026,0.3658,0.4251,0.5137,0.6464,0.6915,0.7318,0.7807,0.8116,0.8323,0.8323,0.856,0.8706,0.871,0.871,0.8632,0.8535,0.9705,1.0875,1.2029,1.362,1.5066,1.6246,1.5959,1.5491,1.4928,1.3973,1.2953,1.1993,1.2245,1.1957,1.1375,1.1129,1.1035,1.1082,1.1356,1.1759,1.233,1.3156,1.4337,1.5527,1.6443,1.7021,1.7539,1.8354,1.9551,2.0615,2.1044,2.1846,2.2578,2.2974,2.274,2.2519,2.2529,2.2529,2.2529,2.2529,2.2828,2.2955,2.2588,2.1756,2.0888,2.0059,1.8848,1.8252,0.0,2.0216,2.122,2.1239,2.2009,2.2529,2.2529,2.2877,2.3091,2.3091,2.2324,2.1885,2.1885,2.1045,2.0175,1.9287,1.9287,1.8838,1.7978,1.7568,1.6936,1.6095,1.6095,1.584,1.541,1.541,1.541,1.541,1.541,1.5156,1.4813,1.4784,1.4209,1.3486,0.0,0.0,0.0,0.0,0.0,0.0,0.0,0.0,0.0,0.0,0.0,0.0,0.0,0.0,0.0,0.0,0.1441,0.2378,0.3036,0.4436,0.5513,0.6121,0.6607,0.701,0.7314,0.7668,0.7919,0.8116,0.8214,0.8367,0.8557,0.8462,0.8391,0.8446,0.9765,1.1056,1.2311,1.341,1.4697,1.5899,1.5023,1.4436,1.3988,1.3093,1.2265,1.1563,0.0,1.1182,1.0868,1.0774,1.0734,1.0843,1.1472,1.1804,1.2295,1.4224,1.571,1.6904,1.773,1.8481,1.9268,2.0108,2.0908,2.1631,2.2292,2.2682,2.2812,2.2393,2.1963,2.1444,2.0898,2.1025,2.1318,2.157,2.2223,2.2676,2.2529,2.1736,2.0761,1.9639,1.8867,0.0,0.0,0.0,0.0,2.0723,2.1602,2.2217,2.25,2.2867,2.3091,2.3091,2.2598,2.2168,2.1885,2.1299,2.043,1.9277,1.8428,1.8018,1.7988,1.7275,1.6787,1.6494,1.6222,1.584,1.541,1.541,1.541,1.541,1.541,1.5322,1.5205,1.5205,1.4844,1.4316,0.0,0.0,0.0,0.0,0.0,0.0,0.0,0.0,0.0,0.0,0.0,0.0,0.0,0.0,0.0,0.0,0.0,0.1977,0.2848,0.3901,0.4858,0.5659,0.6091,0.6468,0.6817,0.7021,0.7292,0.7594,0.754,0.7712,0.8001,0.7858,0.779,0.7839,0.9016,1.0251,1.1574,1.2438,1.3609,1.4816,1.3955,1.3367,1.2933,1.2251,1.1623,0.0,1.0909,1.0754,1.0593,1.0593,1.0593,1.0681,1.1202,1.1854,1.2798,1.4548,1.5957,1.7213,1.8335,1.9175,2.002,2.1343,2.2012,2.2471,2.2974,2.2867,2.249,2.1797,2.1055,2.0312,1.9553,1.9687,1.9971,2.0225,2.0898,2.1416,2.1562,2.081,2.0069,1.957,1.8867,1.8286,0.0,0.0,0.0,2.0077,2.1211,2.2002,2.2275,2.2789,2.3091,2.3091,2.2734,2.2314,2.1894,2.1414,2.0547,1.9277,1.8144,1.7666,1.7773,1.734,1.6934,1.6484,1.6357,1.5967,1.541,1.541,1.541,1.541,1.541,1.541,1.541,1.541,1.5244,1.4951,0.0,0.0,0.0,0.0,0.0,0.0,0.0,0.0,0.0,0.0,0.0,0.0,0.0,0.0,0.0,0.0,0.0,0.0,0.3093,0.282,0.3311,0.5,0.5403,0.5805,0.6245,0.6262,0.6441,0.6839,0.6736,0.6814,0.7048,0.692,0.6862,0.6898,0.7703,0.8724,0.9979,1.0825,1.1964,1.316,1.2857,1.2382,1.1852,1.1503,1.1042,1.0593,1.0593,1.0593,1.0593,1.0593,1.0631,1.0676,1.0753,1.2151,1.3831,1.4317,1.5392,1.6768,1.8344,1.9205,2.009,2.2028,2.2818,2.311,2.3042,2.2441,2.1709,2.1171,2.0078,1.9043,1.8549,1.851,1.8549,1.8598,1.9062,1.9531,1.9961,1.9299,1.9085,0.0,0.0,0.0,0.0,0.0,0.0,1.9355,0.0,2.1875,2.1914,2.2738,2.3178,2.3091,2.2767,2.2347,2.1894,2.1427,2.0546,1.9277,1.8453,1.7827,1.7432,1.7832,1.7314,1.6153,1.6512,1.62,1.541,1.541,1.541,1.541,1.541,1.541,1.541,1.541,1.541,1.5409,0.0,0.0,0.0,0.0,0.0,0.0,0.0,0.0,0.0,0.0,0.0,0.0,0.0,0.0,0.0,0.0,0.0,0.0,0.2397,0.302,0.3778,0.4769,0.5087,0.5355,0.562,0.574,0.5925,0.6219,0.6182,0.6298,0.6485,0.6556,0.6586,0.6671,0.7881,0.8973,0.9969,1.1004,1.1995,1.2837,1.2058,1.167,1.1483,1.0975,1.072,1.0593,1.0593,1.0593,1.0593,1.0593,1.1135,1.199,1.3041,1.4246,1.5481,1.6419,1.7998,1.9506,1.9634,2.112,2.2702,2.2911,2.3301,2.3379,2.2422,2.1787,2.0966,1.9553,1.8535,1.767,1.6887,1.7256,0.0,1.85,1.9777,0.0,2.1328,2.1465,0.0,2.0908,0.0,2.0038,2.0253,2.0175,0.0,0.0,2.1112,2.168,2.2314,2.3626,2.3963,2.3135,2.3537,2.3185,2.1926,2.1151,2.0252,1.9314,1.9079,1.8569,1.7852,1.7959,1.748,1.6541,1.6648,1.62,1.541,1.541,1.541,1.541,1.541,1.541,1.541,1.541,1.5748,1.6187,0.0,0.0,0.0,0.0,0.0,0.0,0.0,0.0,0.0,0.0,0.0,0.0,0.0,0.0,0.0,0.0,0.0,0.0,0.0,0.2695,0.347,0.456,0.4748,0.4908,0.5095,0.5119,0.5243,0.5508,0.5474,0.5521,0.5674,0.5755,0.5789,0.5868,0.707,0.791,0.8454,0.9918,1.0739,0.0,0.0,1.0969,1.0796,1.0667,1.0593,1.0593,1.0593,1.0593,1.0653,1.1035,1.1565,1.2308,1.3704,1.4791,1.5856,1.7361,1.8336,1.9207,2.0515,2.1491,2.2235,2.2924,2.3184,2.2939,2.1846,2.0967,1.9941,1.8398,1.7402,1.6623,1.5908,1.6369,1.6995,0.0,0.0,0.0,2.0635,2.1113,2.1406,0.0,2.1133,0.0,2.1163,2.0977,2.1312,0.0,2.2065,2.196,2.249,2.3975,2.45,2.3887,2.4075,2.3371,2.1602,2.1601,2.0837,1.9314,1.9548,1.9072,1.8008,1.8008,1.7646,1.7021,0.0,1.6514,1.5723,1.6077,1.5869,1.5439,1.5748,1.5892,1.5892,1.5892,1.634,1.6978,0.0,0.0,0.0,0.0,0.0,0.0,0.0,0.0,0.0,0.0,0.0,0.0,0.0,0.0,0.0,0.0,0.0,0.0,0.0,0.0,0.2843,0.4267,0.4432,0.4552,0.4657,0.4559,0.4631,0.486,0.4735,0.4748,0.4887,0.4867,0.4881,0.4952,0.5853,0.6306,0.6556,0.8366,0.9038,0.8964,1.0127,1.0439,1.0207,0.0,1.0593,1.0593,1.0593,1.0593,1.0734,1.1651,1.196,1.2224,1.3758,1.482,1.5866,1.7814,1.8028,1.8228,2.1037,2.1191,2.0902,2.2504,2.2693,2.2187,2.1229,2.001,1.8691,1.7494,1.6584,1.5889,1.5488,1.5762,1.6134,1.6251,0.0,1.7998,1.9277,1.9873,2.0625,2.1826,2.1631,2.1531,2.2012,2.166,2.2139,2.4022,2.3114,2.2657,2.3003,2.4303,2.4978,2.4861,2.4416,2.3255,2.1342,2.2399,2.1882,1.9783,2.0042,1.9549,1.845,1.8129,1.7841,1.757,0.0,0.0,1.6416,1.7095,1.6767,1.5857,1.6314,1.6578,1.6624,1.6539,1.7078,1.7872,0.0,0.0,0.0,0.0,0.0,0.0,0.0,0.0,0.0,0.0,0.0,0.0,0.0,0.0,0.0,0.0,0.0,0.0,0.0,0.0,0.0,0.3483,0.4153,0.4501,0.4528,0.4505,0.458,0.4731,0.4604,0.4675,0.4884,0.4789,0.486,0.5063,0.5244,0.583,0.6709,0.778,0.8618,0.9299,1.0218,1.0566,1.0519,1.0573,0.0,0.0,1.0593,1.0593,1.076,1.185,1.2225,1.2597,1.471,1.637,1.7736,1.8896,2.057,2.1839,2.1045,2.2196,2.3343,2.2291,2.2023,2.167,2.043,1.8887,1.7474,1.6515,1.5909,1.5498,1.543,1.5762,1.6339,1.7063,1.7871,1.8867,2.0204,2.1035,2.1758,0.0,2.2334,2.2461,2.2838,2.2539,0.0,0.0,0.0,0.0,2.5708,2.6055,2.5858,2.5166,2.4548,2.3443,2.1859,2.2769,2.2903,2.2262,2.1074,2.0621,2.0753,1.886,1.8122,1.8393,0.0,0.0,1.7686,1.8097,1.8138,1.7845,1.6896,1.6866,1.733,1.6708,1.7678,1.9254,0.0,0.0,0.0,0.0,0.0,0.0,0.0,0.0,0.0,0.0,0.0,0.0,0.0,0.0,0.0,0.0,0.0,0.0,0.0,0.0,0.0,0.3317,0.4098,0.4491,0.4491,0.4566,0.4644,0.4691,0.0,0.4697,0.4884,0.4762,0.4809,0.4992,0.5066,0.5644,0.6615,0.7589,0.8409,0.9131,1.0173,1.0499,1.0347,1.0533,0.0,0.0,1.0593,1.0863,1.1301,1.1906,1.236,1.2987,1.4598,1.5799,1.7053,1.9011,2.0176,2.1069,2.2243,2.2981,2.3214,2.2642,2.1839,2.0859,1.9514,1.8105,1.6797,1.5908,1.5557,1.541,1.541,1.5762,1.6232,1.6662,1.7422,1.8437,1.9754,2.0449,2.1269,2.2383,2.2119,2.2146,0.0,2.2568,0.0,0.0,0.0,0.0,2.5538,2.62,2.6209,2.5547,2.5452,2.4405,2.2371,2.3498,2.339,2.2013,2.1341,2.0993,2.0938,1.937,1.9019,1.9629,0.0,0.0,1.9024,1.9575,1.9441,1.8876,1.8312,1.8492,1.8969,1.8351,1.917,2.0597,0.0,0.0,0.0,0.0,0.0,0.0,0.0,0.0,0.0,0.0,0.0,0.0,0.0,0.0,0.0,0.0,0.0,0.0,0.0,0.0,0.0,0.0,0.0,0.0,0.4491,0.0,0.0,0.4691,0.4657,0.0,0.0,0.0,0.0,0.0,0.5063,0.5618,0.6514,0.7564,0.8334,0.0,0.0,1.0452,0.0,0.0,0.0,0.0,0.0,1.1021,1.1607,1.1936,1.2368,1.2963,1.4202,1.5,1.6017,1.864,1.936,1.995,2.2832,2.3159,2.2686,2.2682,2.1484,2.0038,1.8896,1.7467,1.6219,1.5527,1.541,1.541,1.541,1.5693,1.5987,1.6075,1.6682,1.7582,1.8838,1.9453,2.0352,2.1914,2.1748,0.0,2.2867,0.0,0.0,0.0,0.0,0.0,0.0,2.6115,2.6343,2.5635,2.6077,2.5178,2.284,2.402,2.3725,2.1963,2.1658,2.144,2.1293,2.0118,2.0042,2.0878,0.0,0.0,0.0,2.1026,2.0742,1.9918,1.9819,2.0121,2.0588,1.9997,2.0583,2.1656,0.0,0.0,0.0,0.0,0.0,0.0,0.0,0.0,0.0,0.0,0.0,0.0,0.0,0.0,0.0,0.0,0.0,0.0,0.0,0.0,0.0,0.0,0.0,0.0,0.0,0.0,0.0,0.4691,0.458,0.0,0.0,0.0,0.0,0.0,0.0,0.5681,0.6726,0.7623,0.0,0.0,0.0,0.0,0.0,0.0,0.0,0.0,0.0,1.0656,1.0903,1.2202,1.2147,1.193,1.4076,1.5289,1.616,1.7836,1.97,2.1182,2.1014,2.2277,2.3316,2.1688,2.0323,1.9268,1.8805,1.7041,1.5508,1.543,1.541,1.541,1.541,1.5449,1.5596,1.6026,1.6163,1.6672,1.7939,1.8828,1.9697,2.0674,0.0,0.0,2.2559,0.0,0.0,0.0,0.0,0.0,0.0,2.6919,2.6548,2.5123,2.5475,2.4887,2.3248,2.3796,2.4198,2.4449,2.2698,2.2501,2.3598,2.1446,2.0942,2.1784,0.0,0.0,0.0,2.2056,2.2126,2.1911,2.0769,2.0771,2.1313,2.0576,2.1133,2.2234,0.0,0.0,0.0,0.0,0.0,0.0,0.0,0.0,0.0,0.0,0.0,0.0,0.0,0.0,0.0,0.0,0.0,0.0,0.0,0.0,0.0,0.0,0.0,0.0,0.0,0.0,0.4658,0.4691,0.4658,0.0,0.0,0.0,0.0,0.0,0.0,0.0,0.6585,0.7348,0.0,0.0,0.0,0.0,0.0,0.0,0.0,0.0,0.0,0.0,1.1418,1.1958,1.2232,1.2534,1.3421,1.4185,1.5022,1.6521,1.8179,1.9711,2.0639,2.1808,2.255,2.1763,2.0446,1.9079,1.814,1.6602,1.541,1.541,1.541,1.541,1.541,1.541,1.5469,1.5644,1.5674,1.6035,1.7058,1.7539,1.835,1.998,2.0635,0.0,0.0,0.0,0.0,0.0,0.0,0.0,0.0,2.6681,2.6377,2.5394,2.5199,2.4663,2.374,2.3567,2.3559,2.3772,2.2497,2.2431,2.3403,2.2004,2.1846,2.2628,0.0,0.0,0.0,2.2738,2.2782,2.2689,2.1865,2.1911,2.2376,2.1766,2.206,2.2782,0.0,0.0,0.0,0.0,0.0,0.0,0.0,0.0,0.0112,0.0392,0.0196,0.0168,0.0616,0.0252,0.0,0.0,0.0,0.0,0.0,0.0,0.0,0.0,0.0,0.0,0.0,0.0,0.4651,0.4651,0.4651,0.4701,0.0,0.0,0.0,0.0,0.0,0.0,0.0,0.0,0.0,0.0,0.0,0.0,0.0,0.0,0.0,0.0,0.0,0.0,0.0,0.0,0.0,1.2726,1.3213,1.3636,1.422,1.5325,1.6589,1.7971,1.9737,2.0698,2.1154,2.1153,2.0,1.8613,1.7451,1.6269,1.541,1.541,1.541,1.541,1.541,1.541,1.541,1.541,1.541,1.5733,1.6694,1.7095,1.7862,0.0,0.0,0.0,0.0,0.0,0.0,0.0,0.0,0.0,0.0,2.6235,2.5984,2.5385,2.4858,2.4305,2.3753,2.3308,2.3108,2.3078,2.2537,2.2537,2.3065,2.2506,2.2567,0.0,0.0,0.0,0.0,2.3108,2.3108,2.3058,2.2681,2.2757,2.3058,2.2669,2.2769,2.3108,0.0,0.0,0.0,0.0,0.0,0.0,0.0,0.0,0.0364,0.1365,0.0613,0.0559,0.2015,0.0866,0.0,0.0,0.0,0.0,0.0,0.0,0.0,0.0,0.0,0.0,0.0,0.0,0.4491,0.4491,0.4491,0.4573,0.4694,0.4694,0.4775,0.0,0.0,0.0,0.0,0.0,0.0,0.0,0.0,0.0,0.0,0.0,0.0,0.0,0.0,0.0,0.0,0.0,0.0,0.0,0.0,1.4183,1.4205,1.4313,1.5222,1.648,1.7772,1.8677,1.9236,1.93,1.8662,1.7793,1.6902,1.6015,1.541,1.541,1.541,1.541,1.541,1.541,1.541,1.541,1.541,1.582,1.7042,1.7998,1.871,0.0,0.0,0.0,0.0,0.0,0.0,0.0,0.0,0.0,0.0,0.0,2.536,2.4813,2.4293,2.3728,2.312,2.3108,2.3108,2.3108,2.3078,2.3078,2.3108,2.3078,0.0,0.0,0.0,0.0,0.0,2.3108,2.3108,2.3108,2.3095,2.3095,2.3108,2.3095,2.3095,2.3108,0.0,0.0,0.0,0.0,0.0,0.0,0.0,0.1515,0.1513,0.1505,0.1505,0.1673,0.215,0.1785,0.1088,0.0084,0.0,0.0,0.0,0.0,0.0,0.0,0.0,0.0,0.0,0.0,0.4491,0.4491,0.4491,0.4515,0.4563,0.4672,0.4718,0.4769,0.487,0.0,0.0,0.0,0.0,0.0,0.0,0.0,0.0,0.0,0.0,0.0,0.0,0.0,0.0,0.0,0.0,0.0,0.0,0.0,0.0,1.4378,1.4936,1.5912,1.683,1.7538,1.8115,1.8331,1.7998,1.7353,1.6475,1.583,1.541,1.541,1.541,1.541,1.541,1.541,1.541,1.541,1.541,1.5546,1.5909,0.0,0.0,1.9215,0.0,0.0,0.0,0.0,0.0,0.0,0.0,0.0,0.0,0.0,2.4431,2.4268,2.4092,2.3715,2.3108,2.3108,2.3108,2.3108,2.3108,2.3108,2.3108,2.3108,0.0,0.0,0.0,0.0,0.0,2.3108,2.3108,2.3108,2.3108,2.3108,2.3108,2.3108,2.3108,2.3108,0.0,0.0,0.0,0.0,0.0,0.0,0.0,0.2207,0.2204,0.2169,0.2195,0.2419,0.301,0.3067,0.2456,0.0949,0.0838,0.0,0.0,0.0,0.0,0.0,0.0,0.0,0.4491,0.4491,0.4491,0.4491,0.4491,0.4491,0.4491,0.459,0.4634,0.4638,0.4704,0.4694,0.0,0.0,0.0,0.0,0.0,0.0,0.9071,0.0,0.0,0.0,0.0,0.0,0.0,0.0,0.0,0.0,0.0,0.0,0.0,0.0,1.5044,1.5588,1.6248,1.6533,1.6764,1.7177,1.708,1.6731,1.6016,1.5605,1.541,1.541,1.541,1.541,1.541,1.541,1.541,1.541,1.541,1.5556,1.6007,0.0,0.0,0.0,0.0,0.0,0.0,0.0,0.0,0.0,0.0,0.0,0.0,0.0,2.3904,2.3678,2.3665,2.3471,2.3108,2.3108,2.3108,2.3108,2.3108,2.3108,2.3108,0.0,0.0,0.0,0.0,0.0,0.0,2.3108,2.3108,2.3108,2.3108,2.3108,2.3108,2.3108,2.3108,2.3108,0.0,0.0,0.0,0.0,0.0,0.0,0.0,0.2353,0.2603,0.3302,0.2798,0.2911,0.4346,0.4501,0.3888,0.2378,0.0,0.0,0.0,0.0,0.0,0.0,0.0,0.0,0.4491,0.4491,0.4491,0.4491,0.4491,0.4491,0.4491,0.4491,0.4491,0.4491,0.4491,0.4546,0.4736,0.61,0.7101,0.783,0.854,0.8804,0.0,0.0,0.0,0.0,0.0,0.0,0.0,0.0,0.0,0.0,0.0,0.0,0.0,0.0,0.0,0.0,0.0,1.5701,1.5437,1.5921,1.6046,1.5938,1.5508,1.541,0.0,1.541,1.541,1.541,1.541,1.541,1.541,1.541,1.5439,1.5831,0.0,1.8112,0.0,0.0,0.0,0.0,0.0,0.0,0.0,0.0,0.0,0.0,0.0,0.0,0.0,2.312,2.3108,2.3108,2.3108,2.3108,2.3108,2.3108,2.3108,2.3108,2.3108,0.0,0.0,0.0,0.0,0.0,0.0,2.3108,2.3108,2.3108,2.3108,2.3108,2.3108,2.3108,2.3108,2.3108,0.0,0.0,0.0,0.0,0.0,0.0,0.0,0.0,0.0,0.0,0.4064,0.4091,0.446,0.4491,0.4045,0.0,0.0,0.0,0.0,0.0,0.0,0.0,0.0,0.0,0.4491,0.4491,0.4491,0.4491,0.4491,0.4491,0.4491,0.4491,0.4491,0.4491,0.4491,0.5089,0.615,0.7074,0.7857,0.8566,0.8725,0.8804,0.0,0.0,0.0,0.0,0.9499,1.0257,0.0,0.0,0.0,0.0,0.0,0.0,0.0,0.0,1.541,1.543,1.5537,0.0,1.5416,1.5527,1.5566,1.5537,0.0,1.541,1.541,1.541,1.541,1.541,1.541,1.541,1.541,1.541,1.5693,1.6028,1.6317,0.0,0.0,0.0,0.0,0.0,0.0,0.0,0.0,0.0,0.0,0.0,0.0,0.0,0.0,2.3108,2.3108,2.3108,2.3108,2.3108,2.3108,2.3108,2.3108,2.3108,2.3108,0.0,0.0,0.0,0.0,0.0,2.3108,2.3108,2.3108,2.3108,2.3108,2.3108,2.3108,2.3108,2.3108,2.3108,0.0,0.0,0.0,0.0,0.0,0.0,0.0,0.0,0.0,0.0,0.0,0.0,0.0,0.0,0.0,0.0,0.0,0.0,0.0,0.0,0.0,0.0,0.0,0.4491,0.4491,0.4491,0.4491,0.4491,0.4491,0.4491,0.4491,0.4491,0.4491,0.4491,0.4491,0.5089,0.6145,0.688,0.7616,0.8321,0.8672,0.0,0.0,0.0,0.0,0.0,0.9319,1.0314,0.0,1.1548,1.2994,1.4688,0.0,0.0,0.0,0.0,1.541,1.541,1.541,1.541,1.541,1.541,1.541,1.541,1.541,1.541,1.541,1.541,1.541,1.541,1.541,1.541,1.541,1.541,1.5781,0.0,0.0,0.0,0.0,0.0,0.0,0.0,0.0,0.0,0.0,0.0,0.0,0.0,0.0,0.0,0.0,0.0,2.3108,2.3108,2.3108,2.3108,2.3108,2.3108,2.3108,2.3108,2.3108,0.0,0.0,0.0,0.0,0.0,2.3108,2.3108,2.3108,2.3108,2.3108,2.3108,2.3125,2.3514,2.3662,2.3708,0.0,0.0,0.0,0.0,0.0,0.0,0.0,0.0,0.0,0.0,0.0,0.0,0.0,0.0,0.0,0.0,0.0,0.0,0.0,0.0,0.0,0.0,0.4125,0.4491,0.4491,0.4491,0.4491,0.4491,0.4491,0.4491,0.4491,0.4491,0.4491,0.4519,0.4736,0.514,0.5733,0.6583,0.7289,0.791,0.8533,0.0,0.0,0.0,0.0,0.0,0.0,0.0,0.0,1.1649,1.3205,1.5206,1.458,0.0,0.0,0.0,0.0,0.0,1.541,1.541,1.541,1.541,1.541,1.541,1.541,1.541,1.541,1.541,1.541,1.541,1.541,1.541,1.541,1.541,0.0,0.0,0.0,0.0,0.0,0.0,0.0,0.0,0.0,0.0,0.0,0.0,0.0,0.0,0.0,0.0,0.0,0.0,2.3108,2.3108,2.3108,2.3108,2.3108,2.3108,2.3108,2.3108,2.3108,2.3108,0.0,0.0,0.0,0.0,2.3108,2.3108,2.3108,2.3108,2.3108,2.3108,2.3198,2.4002,2.4292,2.4408,0.0,0.0,0.0,0.0,0.0,0.0,0.0,0.0,0.0,0.0,0.0,0.0,0.0,0.0,0.0,0.0,0.0,0.0,0.0,0.0,0.0,0.4322,0.4436,0.4491,0.4491,0.4491,0.4491,0.4491,0.4491,0.4491,0.4491,0.4491,0.4491,0.4546,0.5741,0.6344,0.6529,0.7883,0.8533,0.8646,0.8752,0.0,0.0,0.0,0.0,0.0,0.0,0.0,0.0,1.2413,1.352,1.4941,1.5148,0.0,0.0,0.0,0.0,0.0,1.541,1.541,1.541,1.541,1.541,1.541,1.541,1.541,1.541,1.541,1.541,1.541,1.541,1.541,1.541,0.0,0.0,0.0,0.0,0.0,0.0,0.0,0.0,0.0,0.0,0.0,0.0,0.0,0.0,0.0,0.0,0.0,0.0,0.0,0.0,2.3108,2.3108,2.3108,2.3108,2.3108,2.3108,2.3108,2.3108,2.3108,2.3108,0.0,0.0,2.3108,2.3108,2.3108,2.3108,2.3108,2.3108,2.3108,2.3198,2.4002,2.4292,2.4408,0.0,0.0,0.0,0.0,0.0,0.0,0.0,0.0,0.0,0.0,0.0,0.0,0.0,0.0,0.0,0.0,0.0,0.0,0.0,0.0,0.4491,0.4491,0.4491,0.4491,0.4491,0.4491,0.4491,0.4491,0.4491,0.4491,0.4491,0.4491,0.4491,0.4546,0.555,0.6231,0.6669,0.775,0.8427,0.8804,0.0,0.0,0.0,0.0,0.0,0.0,0.0,0.0,0.0,0.0,1.3015,1.4355,1.4896,0.0,0.0,0.0,0.0,0.0,1.541,1.541,1.541,1.541,1.541,1.541,1.541,1.541,1.541,1.541,1.541,1.541,1.541,1.541,1.5537,1.6015,0.0,0.0,0.0,0.0,0.0,0.0,0.0,0.0,0.0,0.0,0.0,0.0,0.0,0.0,0.0,0.0,0.0,0.0,0.0,2.3108,2.3108,2.3108,2.3108,2.3108,2.3108,2.3108,2.3108,2.3108,2.3108,2.3108,0.0,2.3108,2.3108,2.3108,2.3108,2.3125,2.3573,2.3738,2.3884,2.5063,2.5755,2.612,0.0,0.0,0.0,0.0,0.0,0.0,0.0,0.0,0.0,0.0,0.0,0.0,0.0,0.0,0.0,0.0,0.0,0.0,0.0,0.4491,0.4491,0.4491,0.4491,0.4491,0.4491,0.4491,0.4491,0.4491,0.4491,0.4491,0.4491,0.4491,0.4598,0.4759,0.5437,0.6172,0.6912,0.7643,0.8289,0.8804,0.0,0.0,0.0,0.0,0.0,0.0,0.0,0.0,0.0,0.0,0.0,0.0,0.0,0.0,0.0,1.5381,1.541,1.541,1.541,1.541,1.541,1.541,1.541,1.541,1.541,1.541,1.541,1.541,1.541,1.541,1.541,1.5663,0.0,1.7112,0.0,0.0,0.0,0.0,0.0,0.0,0.0,0.0,0.0,0.0,0.0,0.0,0.0,0.0,0.0,0.0,0.0,0.0,0.0,0.0,2.3108,2.3108,2.3108,2.3108,2.3108,2.3032,2.292,2.3045,2.3032,2.292,2.3045,2.3108,2.3108,2.3108,2.3108,2.3198,2.4002,2.4509,2.4951,2.6095,2.6956,2.76,0.0,0.0,0.0,0.0,0.0,0.0,0.0,0.0,0.0,0.0,0.0,0.0,0.0,0.0,0.0,0.0,0.0,0.0,0.0,0.4491,0.4491,0.4491,0.4491,0.4491,0.4491,0.4491,0.4491,0.4491,0.4491,0.4491,0.4491,0.4491,0.4842,0.546,0.6204,0.6939,0.767,0.8401,0.8752,0.8804,0.8804,0.0,0.0,0.0,0.0,0.0,0.0,0.0,0.0,0.0,0.0,0.0,0.0,0.0,1.4902,1.5293,1.541,1.541,1.541,1.541,1.541,1.541,1.541,1.541,1.541,1.541,1.541,1.541,1.541,1.541,1.541,1.642,1.7621,1.8754,0.0,0.0,0.0,0.0,0.0,0.0,0.0,0.0,0.0,0.0,0.0,0.0,0.0,0.0,0.0,0.0,0.0,0.0,0.0,0.0,2.3108,2.3108,2.3108,2.3108,2.3108,2.2832,2.2355,2.2869,2.2832,2.2397,2.2882,2.3108,2.3108,2.3108,2.3108,2.3198,2.4002,2.5147,2.6336,2.6457,2.6956,2.76,0.0,0.0,0.0,0.0,0.0,0.0,0.0,0.0,0.0,0.0,0.0,0.0,0.0,0.0,0.0,0.0,0.0,0.0,0.0,0.4491,0.4491,0.4491,0.4491,0.4491,0.4491,0.4491,0.4491,0.4491,0.4491,0.4491,0.4491,0.4491,0.4866,0.5538,0.6285,0.702,0.775,0.848,0.8804,0.8804,0.8804,0.8804,0.0,0.0,0.0,0.0,0.0,0.0,0.0,0.0,1.2264,1.2711,1.3974,1.457,1.4891,1.5283,1.541,1.541,1.541,1.541,1.541,1.541,1.541,1.541,1.541,1.541,1.541,1.541,1.541,1.541,1.541,0.0,1.7277,0.0,0.0,0.0,0.0,0.0,0.0,0.0,0.0,0.0,0.0,0.0,0.0,0.0,0.0,0.0,0.0,0.0,0.0,0.0,0.0,0.0,0.0,2.3108,2.2932,2.2594,2.2594,2.2656,2.2794,2.2656,2.2669,2.2807,2.3007,2.3395,2.3796,2.3305,2.3395,2.3914,2.4709,2.5892,2.7163,2.7163,2.7357,2.76,0.0,0.0,0.0,0.0,0.0,0.0,0.0,0.0,0.0,0.0,0.0,0.0,0.0,0.0,0.0,0.0,0.0,0.0,0.4491,0.4491,0.4491,0.4491,0.4491,0.4491,0.4491,0.4491,0.4491,0.4491,0.4491,0.4491,0.4491,0.4491,0.4979,0.5869,0.6367,0.7128,0.8076,0.8593,0.8804,0.8804,0.8804,0.8864,0.0,0.0,0.0,0.0,0.0,0.0,0.0,0.0,1.2198,1.2501,1.3707,1.4309,1.4687,1.5254,1.541,1.541,1.541,1.541,1.541,1.541,1.541,1.541,1.541,1.541,1.541,1.541,1.541,1.5517,1.5909,1.682,0.0,0.0,0.0,0.0,0.0,0.0,0.0,0.0,0.0,0.0,0.0,0.0,0.0,0.0,0.0,0.0,0.0,0.0,0.0,0.0,0.0,0.0,2.3108,2.3108,2.292,2.2543,2.2616,2.2629,2.2611,2.2836,2.2908,2.2887,2.3289,2.3796,2.4263,2.3708,2.4076,2.5035,2.5536,2.6522,2.76,2.76,2.76,2.76,0.0,0.0,0.0,0.0,0.0,0.0,0.0,0.0,0.0,0.0,0.0,0.0,0.0,0.0,0.0,0.0,0.0,0.0,0.4491,0.4491,0.4491,0.4491,0.4491,0.4491,0.4491,0.4491,0.4491,0.4491,0.4491,0.4491,0.4491,0.4491,0.5254,0.6588,0.6588,0.7429,0.8804,0.8804,0.8804,0.8804,0.8804,0.8951,0.9178,0.0,0.0,0.0,0.0,0.0,0.0,0.0,1.2403,1.2084,1.3611,1.4104,1.428,1.5128,1.5371,1.541,1.541,1.541,1.541,1.541,1.541,1.541,1.541,1.541,1.541,1.541,1.541,1.5771,1.6981,1.8356,0.0,0.0,0.0,0.0,0.0,0.0,0.0,0.0,0.0,0.0,0.0,0.0,0.0,0.0,0.0,0.0,0.0,0.0,0.0,0.0,0.0,0.0,2.3108,2.3108,2.3108,2.3095,2.3316,2.2758,2.1571,2.3451,2.3573,2.2405,2.3725,2.4321,2.4321,2.4321,2.5175,2.651,2.651,2.6956,2.76,2.76,2.76,2.76,0.0,0.0,0.0,0.0,0.0,0.0,0.0,0.0,0.0,0.0,0.0,0.0,0.0,0.0,0.0,0.0,0.0,0.0,0.4491,0.4491,0.4491,0.4491,0.4491,0.4491,0.4491,0.4491,0.4491,0.4491,0.4491,0.4491,0.4491,0.4491,0.5254,0.6588,0.6588,0.7429,0.8804,0.8804,0.8804,0.8804,0.8804,0.8858,0.8898,0.0,0.0,0.0,0.0,0.0,0.0,0.0,0.0,0.0,1.3439,1.387,1.4221,1.4805,1.4971,1.5039,1.5332,1.5195,1.5039,1.5342,1.541,1.541,1.541,1.541,1.541,1.541,1.5806,1.6278,1.6642,1.8057,0.0,0.0,0.0,0.0,0.0,0.0,0.0,0.0,0.0,0.0,0.0,0.0,0.0,0.0,0.0,0.0,0.0,0.0,0.0,0.0,0.0,0.0,2.3108,2.3108,2.3102,2.311,2.3895,2.3686,2.2665,2.3897,2.4158,2.3754,2.4685,2.537,2.5837,2.5837,2.6122,2.651,2.651,2.6956,2.76,2.76,2.76,2.76,0.0,0.0,0.0,0.0,0.0,0.0,0.0,0.0,0.0,0.0,0.5109,0.5054,0.0,0.0,0.0,0.0,0.0,0.0,0.0,0.4491,0.4625,0.4893,0.4893,0.4893,0.4893,0.4893,0.4759,0.4491,0.4491,0.4491,0.4491,0.4491,0.5254,0.6588,0.6588,0.7429,0.8804,0.8804,0.8871,0.8951,0.8951,0.9091,0.9299,0.0,0.0,0.0,0.0,0.0,0.0,0.0,0.0,0.0,1.3379,1.3773,1.4192,1.4658,1.4902,1.5088,1.5342,1.5225,1.5098,1.5352,1.541,1.541,1.541,1.541,1.541,1.541,1.5979,1.6545,1.6733,1.8169,0.0,0.0,0.0,0.0,0.0,0.0,0.0,0.0,0.0,0.0,0.0,0.0,0.0,0.0,0.0,0.0,0.0,0.0,0.0,0.0,0.0,0.0,2.3108,2.3108,2.3097,2.3103,2.372,2.4116,2.4301,2.4998,2.5093,2.4794,2.5508,2.6095,2.651,2.6826,2.693,2.693,2.693,2.7203,2.76,2.76,2.76,2.76,0.0,0.0,0.0,0.0,0.0,0.0,0.0,0.0,0.0,0.0,0.4763,0.5003,0.0,0.0,0.0,0.0,0.0,0.0,0.0,0.468,0.4952,0.5569,0.5597,0.5569,0.5515,0.5515,0.5164,0.4491,0.4491,0.4543,0.4598,0.4598,0.5332,0.6696,0.6696,0.7482,0.8804,0.8804,0.8931,0.9178,0.9204,0.9531,0.995,0.9417,0.0,0.0,0.0,0.0,0.0,0.0,0.0,0.0,1.333,1.3743,1.4182,1.4609,1.5029,1.5361,1.54,1.5381,1.5361,1.54,1.541,1.541,1.541,1.541,1.541,1.541,0.0,1.6732,1.7153,0.0,0.0,0.0,0.0,0.0,0.0,0.0,0.0,0.0,0.0,0.0,0.0,0.0,0.0,0.0,0.0,0.0,0.0,0.0,0.0,0.0,0.0,0.0,2.3108,2.3108,2.3108,0.0,2.3101,2.4126,2.6056,2.6432,2.6229,2.5646,2.631,2.659,2.6642,2.7331,2.76,2.76,2.76,2.76,2.76,2.76,2.76,2.76,0.0,0.0,0.0,0.0,0.0,0.0,0.0,0.0,0.0,0.0,0.0,0.0,0.0,0.0,0.0,0.0,0.0,0.0,0.0,0.6154,0.6204,0.6367,0.6367,0.6091,0.5515,0.5515,0.5164,0.4491,0.4491,0.4759,0.5296,0.5296,0.6064,0.745,0.745,0.7969,0.8804,0.8804,0.8844,0.8891,0.9124,0.9291,0.9384,0.9257,1.0177,0.0,0.0,0.0,0.0,0.0,0.0,0.0,1.2988,1.3525,1.4124,1.4221,1.458,1.499,1.5322,1.5176,1.5,1.5332,1.541,1.541,1.541,1.541,1.541,1.541,1.6443,1.739,0.0,0.0,0.0,0.0,0.0,0.0,0.0,0.0,0.0,0.0,0.0,0.0,0.0,0.0,0.0,0.0,0.0,0.0,0.0,0.0,0.0,0.0,0.0,2.3108,2.3108,2.3108,2.3108,0.0,2.3101,2.3968,2.5591,2.6817,2.728,2.7137,2.7306,2.7357,2.7382,2.7534,2.76,2.76,2.76,2.76,2.76,2.76,2.76,2.76,0.0,0.0,0.0,0.0,0.0,0.0,0.0,0.0,0.0,0.0,0.0,0.0,0.0,0.0,0.0,0.0,0.0,0.0,0.0,0.0,0.6588,0.6588,0.6939,0.6772,0.6036,0.6036,0.585,0.55,0.55,0.5496,0.5515,0.5515,0.6276,0.7696,0.7696,0.8103,0.8804,0.8804,0.8884,0.8998,0.9151,0.9377,0.9597,0.9317,1.0287,1.1748,1.1051,0.0,0.0,0.0,0.0,0.0,0.0,0.0,1.4104,1.4104,1.4443,1.4862,1.5049,1.4951,1.4893,1.5312,1.541,1.541,1.541,1.541,1.5497,1.5864,1.6828,0.0,0.0,0.0,0.0,0.0,0.0,0.0,0.0,0.0,0.0,0.0,0.0,0.0,0.0,0.0,0.0,0.0,0.0,0.0,0.0,0.0,0.0,0.0,2.3106,2.3107,2.3111,2.3105,2.3103,2.3106,2.3107,2.4265,2.6477,2.7257,2.76,2.76,2.76,2.76,2.76,2.76,2.76,2.76,2.76,2.76,2.76,2.76,2.76,2.76,0.0,0.0,0.0,0.0,0.0,0.0,0.0,0.0,0.0,0.0,0.0,0.0,0.0,0.0,0.0,0.0,0.0,0.0,0.0,0.0,0.0,0.6966,0.7563,0.753,0.6804,0.6777,0.6723,0.6588,0.6588,0.6367,0.5891,0.5891,0.66,0.7883,0.7883,0.8235,0.8804,0.8804,0.8918,0.9138,0.9191,0.9504,0.9884,0.9397,1.0462,1.2102,1.1142,1.1913,1.335,1.2998,0.0,0.0,0.0,0.0,1.4202,1.4133,1.4443,1.4766,1.4687,1.4727,1.4873,1.5215,1.5361,1.541,1.541,1.5497,1.5748,1.6379,0.0,0.0,0.0,0.0,0.0,0.0,0.0,0.0,0.0,0.0,0.0,0.0,0.0,0.0,0.0,0.0,0.0,0.0,0.0,0.0,0.0,0.0,2.2908,2.3097,2.311,2.2939,2.2533,2.3422,2.3898,2.3874,2.3416,2.4622,2.7261,2.7495,2.76,2.76,2.76,2.76,2.76,2.76,2.76,2.76,2.76,2.76,2.76,2.76,2.7675,2.776,0.0,0.0,0.0,0.0,0.0,0.0,0.0,0.0,0.0,0.0,0.7563,0.783,0.0,0.0,0.0,0.0,0.0,0.0,0.8507,0.0,0.0,0.8507,0.8586,0.8315,0.7563,0.7563,0.7235,0.6588,0.6588,0.6885,0.7396,0.7396,0.7857,0.8646,0.8646,0.8699,0.8804,0.8804,0.8831,0.8884,0.9111,0.9257,0.9324,0.9244,1.0148,1.1403,1.0961,1.1753,1.2983,1.2925,1.3125,0.0,0.0,0.0,1.4629,1.4221,1.4443,1.4697,1.4299,1.4492,1.4795,1.4882,1.5146,1.541,1.541,1.5892,1.6379,0.0,0.0,0.0,0.0,0.0,0.0,0.0,0.0,0.0,0.0,0.0,0.0,0.0,0.0,0.0,0.0,0.0,0.0,0.0,0.0,0.0,0.0,2.167,2.214,2.3067,2.3112,2.2189,2.025,2.4727,2.7018,2.6972,2.4637,2.4348,2.5908,2.7066,2.76,2.76,2.76,2.76,2.76,2.76,2.76,2.76,2.76,2.76,2.76,2.76,2.7919,2.8367,0.0,0.0,0.0,0.0,0.0,0.0,0.0,0.0,0.0,0.0,0.0,0.8427,0.0,0.0,0.0,0.8804,0.8804,0.8804,0.8804,0.8804,0.8619,0.8209,0.8182,0.8023,0.7696,0.7696,0.775,0.783,0.783,0.7996,0.8315,0.8315,0.848,0.8804,0.8804,0.8804,0.8804,0.8804,0.8804,0.8818,0.8918,0.9309,0.9755,0.9194,1.0177,1.1782,1.1056,1.1692,1.2905,1.2905,1.3032,1.3242,1.3685,0.0,0.0,0.0,1.4075,1.4033,1.3812,1.4065,1.4424,1.4424,1.5059,1.5678,1.5678,1.6423,1.7142,0.0,0.0,0.0,0.0,0.0,0.0,0.0,0.0,0.0,0.0,0.0,0.0,0.0,0.0,0.0,0.0,0.0,0.0,0.0,0.0,0.0,2.1043,2.1502,2.1916,2.2182,2.2791,0.0,2.1667,2.5605,2.7584,2.7579,2.4876,2.4693,2.6756,2.7327,2.7615,2.757,2.721,2.7255,2.757,2.7195,2.727,2.76,2.76,2.76,2.76,2.76,2.7968,2.8487,0.0,0.0,0.0,0.0,0.0,0.0,0.0,0.0,0.0,0.0,0.0,0.0,0.0,0.0,0.0,0.0,0.8804,0.8804,0.8804,0.8804,0.8566,0.7996,0.799,0.799,0.799,0.799,0.8235,0.8804,0.8804,0.8804,0.8804,0.8804,0.8804,0.8804,0.8804,0.8804,0.8804,0.8804,0.8804,0.8804,0.8804,0.9351,1.0077,0.9355,1.0363,1.2067,1.1327,1.1841,1.2905,1.2905,1.2974,1.3154,1.3753,1.3802,0.0,0.0,0.0,1.335,1.335,1.3627,1.3948,1.3948,1.484,1.5695,1.5695,0.0,0.0,0.0,0.0,0.0,0.0,0.0,0.0,0.0,0.0,0.0,0.0,0.0,0.0,0.0,0.0,0.0,0.0,0.0,0.0,0.0,0.0,0.0,2.0478,2.1104,2.1331,2.1079,2.1834,2.2522,2.3079,2.6099,2.726,2.655,2.4558,2.5003,2.7604,2.7607,2.7474,2.7245,2.6782,2.6986,2.754,2.6881,2.7001,2.76,2.76,2.76,2.7625,2.776,2.8198,2.8756,0.0,0.0,0.0,0.0,0.0,0.0,0.0,0.0,0.0,0.0,0.0,0.0,0.8725,0.8804,0.8804,0.8804,0.8804,0.8804,0.8804,0.8804,0.8778,0.8752,0.8752,0.0,0.8752,0.8752,0.8752,0.8804,0.8804,0.8804,0.8804,0.8804,0.8804,0.8804,0.8804,0.8804,0.8804,0.8804,0.8804,0.8804,0.8804,0.9218,0.981,0.9769,1.0601,1.1816,1.1774,1.2236,0.0,0.0,0.0,0.0,0.0,1.3773,1.3997,0.0,0.0,0.0,1.2935,1.3223,1.3545,1.3545,1.4342,1.5149,0.0,0.0,0.0,0.0,0.0,0.0,0.0,0.0,0.0,0.0,0.0,0.0,0.0,0.0,0.0,0.0,0.0,0.0,0.0,0.0,0.0,0.0,0.0,0.0,1.9849,1.9886,1.9911,1.9885,1.9936,2.0977,2.3083,2.609,2.6312,2.3813,2.3669,2.5013,2.7596,2.7593,2.7156,2.6385,2.6533,2.6986,2.754,2.6881,2.7001,2.76,2.76,2.76,2.7675,2.8222,2.885,2.9429,0.0,0.0,0.0,0.0,0.0,0.0,0.0,0.0,0.0,0.0,0.0,0.0,0.0,0.8804,0.8804,0.8804,0.8804,0.8804,0.8804,0.8804,0.8804,0.8804,0.8804,0.8804,0.8804,0.8804,0.8804,0.8804,0.8804,0.8804,0.8804,0.8804,0.8804,0.8804,0.8804,0.8804,0.8804,0.8804,0.8804,0.8831,0.9263,0.984,1.044,1.044,1.1309,1.2452,0.0,0.0,0.0,0.0,0.0,0.0,0.0,0.0,1.3366,1.3632,1.359,1.3552,1.3954,1.4166,1.427,1.427,1.5121,1.5927,1.5927,1.6907,0.0,0.0,0.0,0.0,0.0,0.0,0.0,0.0,0.0,0.0,0.0,0.0,0.0,0.0,0.0,0.0,0.0,0.0,0.0,0.0,0.0,0.0,1.98,1.98,1.9811,1.9802,2.1389,2.261,2.3407,2.4499,2.4551,2.3612,2.3594,2.5014,2.7573,2.6702,2.6325,2.6242,2.5593,2.5944,2.6911,2.6228,2.6853,2.8189,2.8189,2.84,2.8787,2.8996,2.9451,3.0016,0.0,0.0,0.0,0.0,0.0,0.0,0.0,0.0,0.0,0.8804,0.0,0.0,0.0,0.0,0.8804,0.8804,0.8804,0.8804,0.8804,0.8804,0.8804,0.8804,0.8804,0.8804,0.8804,0.8804,0.8804,0.8804,0.8804,0.8804,0.8804,0.8804,0.8804,0.8804,0.8804,0.8804,0.8804,0.8804,0.8804,0.8857,0.9536,1.0192,1.0813,1.104,1.1866,0.0,0.0,0.0,0.0,0.0,0.0,0.0,0.0,0.0,0.0,1.3684,1.3933,1.419,1.4583,1.4698,1.4698,1.4698,1.5418,1.6122,1.6122,0.0,0.0,0.0,0.0,0.0,0.0,0.0,0.0,0.0,0.0,0.0,0.0,0.0,0.0,0.0,0.0,0.0,0.0,0.0,0.0,0.0,0.0,0.0,1.9814,1.9788,2.0178,2.1055,2.2715,2.3597,2.3592,2.3588,2.3607,2.3607,2.3593,2.5008,2.7531,2.5749,2.5106,2.5392,2.5076,2.5561,2.6566,2.6089,2.6941,2.8511,2.8709,2.9058,2.9429,2.9629,2.9973,3.033,0.0,0.0,0.0,0.0,0.0,0.0,0.0,0.0,0.8804,0.8804,0.0,0.0,0.0,0.0,0.0,0.8804,0.8804,0.8804,0.8804,0.8804,0.8804,0.8804,0.8804,0.8804,0.8804,0.8804,0.8811,0.8831,0.8811,0.8804,0.8831,0.8811,0.8804,0.8804,0.8804,0.8804,0.8804,0.8804,0.8804,0.8857,0.9536,1.0192,1.0864,1.1541,0.0,0.0,1.2905,1.2905,0.0,1.2905,0.0,0.0,0.0,0.0,1.3815,1.3815,1.426,1.4721,0.0,0.0,0.0,1.4744,1.5186,0.0,1.5632,0.0,0.0,0.0,0.0,0.0,0.0,0.0,0.0,0.0,0.0,0.0,0.0,0.0,0.0,0.0,0.0,0.0,0.0,0.0,0.0,0.0,0.0,1.9851,1.9885,1.9895,2.1051,2.3507,2.3599,2.3595,2.3595,2.3595,2.3595,2.361,2.36,2.4972,2.7399,2.4794,2.3595,2.3664,2.4997,2.5959,2.6585,2.6519,2.7294,2.8583,2.9157,2.9429,2.9518,3.0123,3.033,3.0414,0.0,0.0,0.0,0.0,0.0,0.8804,0.8804,0.8804,0.8804,0.0,0.0,0.0,0.8804,0.8804,0.8804,0.8804,0.8804,0.8804,0.8804,0.8804,0.8804,0.8804,0.8804,0.8804,0.8804,0.8804,0.9035,0.951,0.9035,0.9035,0.951,0.9035,0.8804,0.8804,0.8804,0.8804,0.8804,0.8804,0.8804,0.8857,0.9536,1.0192,1.0864,0.0,0.0,0.0,0.0,1.2905,1.2905,0.0,1.2905,1.2905,0.0,0.0,1.4445,1.4445,1.4869,1.5454,1.5876,0.0,0.0,0.0,0.0,0.0,0.0,0.0,0.0,0.0,0.0,0.0,0.0,0.0,0.0,0.0,0.0,0.0,0.0,0.0,0.0,0.0,0.0,0.0,0.0,0.0,0.0,0.0,2.0631,2.0852,2.1634,2.2222,2.2878,2.3577,2.3611,2.3595,2.3595,2.3595,2.3595,2.361,2.36,2.3985,2.4682,2.3955,2.3599,2.365,2.4522,2.5247,2.5899,2.6398,2.7589,2.9157,2.9339,2.9935,3.072,3.0878,3.0938,3.0975,0.0,0.0,0.0,0.0,0.0,0.8804,0.8804,0.8804,0.8804,0.0,0.0,0.0,0.8804,0.8804,0.8804,0.8804,0.8804,0.8804,0.8804,0.8804,0.8804,0.8804,0.8804,0.8929,0.9211,0.9211,0.9536,1.0218,0.9536,0.9413,0.9788,0.9106,0.8804,0.8804,0.908,0.9061,0.8804,0.9113,0.9061,0.8883,0.984,0.0,0.0,1.1882,1.2535,0.0,0.0,0.0,1.2954,1.319,1.3454,0.0,0.0,0.0,0.0,0.0,1.5511,1.61,1.671,1.6697,1.655,1.6823,0.0,0.0,1.65,1.65,0.0,0.0,0.0,0.0,0.0,0.0,0.0,0.0,0.0,0.0,0.0,0.0,0.0,0.0,0.0,0.0,0.0,0.0,0.0,0.0,2.152,2.1895,2.2855,2.3333,2.3595,2.3595,2.3595,2.3595,2.3595,2.3595,2.3595,2.3595,2.3599,2.3599,2.361,2.3599,2.3903,2.4468,2.4867,2.5529,2.6434,2.7118,2.8186,2.9451,2.9935,3.058,3.119,3.119,3.119,3.119,0.0,0.0,0.8023,0.8699,0.8804,0.8804,0.8804,0.8804,0.8804,0.0,0.8804,0.8804,0.8804,0.8804,0.8804,0.8804,0.8804,0.8804,0.8804,0.8804,0.8831,0.891,0.8903,0.9237,0.9891,0.9909,1.0244,1.0914,1.0167,0.984,0.9891,0.9133,0.8831,0.8929,0.9536,0.9465,0.8956,0.964,0.951,0.9008,1.0218,1.0737,0.0,0.0,1.2832,1.2905,1.2905,1.2905,1.3002,1.3675,1.4379,0.0,0.0,0.0,0.0,0.0,1.6213,1.6823,1.7338,1.7099,1.6789,0.0,0.0,0.0,1.6513,1.65,0.0,0.0,0.0,0.0,0.0,0.0,0.0,0.0,0.0,0.0,0.0,0.0,0.0,0.0,0.0,0.0,0.0,0.0,2.1969,2.2649,2.2608,2.284,2.3573,2.3595,2.3595,2.3595,2.3595,2.3595,2.3595,2.3595,2.3595,2.3595,2.3595,2.3595,2.3595,2.3595,2.431,2.5538,2.565,2.6374,2.755,2.8381,2.9035,2.9607,3.0679,3.1151,3.119,3.119,3.119,3.119,0.0,0.8593,0.8619,0.8778,0.8804,0.8804,0.8804,0.8804,0.8804,0.8804,0.8804,0.8804,0.8804,0.8804,0.8804,0.8804,0.8804,0.8804,0.8804,0.8804,0.9035,0.9588,0.9614,0.9917,1.0585,1.0593,1.0939,1.1591,1.0389,1.009,1.0593,0.9361,0.9087,0.9614,0.9736,0.9718,0.964,1.0312,0.0,0.964,0.9891,0.0,1.0889,1.1699,1.2369,1.2905,1.2905,1.2905,1.3076,1.4087,1.5501,1.6703,0.0,0.0,0.0,0.0,0.0,0.0,0.0,0.0,0.0,0.0,0.0,0.0,1.66,1.65,1.65,0.0,0.0,0.0,0.0,0.0,0.0,0.0,0.0,0.0,0.0,0.0,0.0,0.0,0.0,0.0,0.0,0.0,2.1969,2.2649,2.3106,2.3435,2.3595,2.3595,2.3595,2.3595,2.3595,2.3595,2.3595,2.3595,2.3595,2.3595,2.3595,2.3595,2.3595,2.3595,2.4154,2.5161,2.5976,2.6755,2.7619,2.9279,3.0016,3.0145,3.0393,3.076,3.119,3.119,3.119,3.119,0.8593,0.8804,0.8804,0.8804,0.8804,0.8804,0.8804,0.8804,0.8804,0.8804,0.8804,0.8804,0.8804,0.8804,0.8804,0.8804,0.8804,0.8804,0.8804,0.9106,0.9498,0.9973,1.02,1.061,1.1291,1.1291,1.1649,1.2344,1.13,1.0965,1.1291,1.0269,0.9987,1.0312,1.0644,1.061,1.0338,1.1015,1.1048,1.0661,1.0768,0.0,1.1366,1.2089,1.2584,1.2905,1.2905,1.3462,1.4323,1.5207,1.65,0.0,0.0,1.7861,1.8133,0.0,1.7954,1.8267,0.0,0.0,0.0,1.7865,0.0,0.0,0.0,1.65,1.6573,0.0,0.0,0.0,0.0,0.0,0.0,0.0,0.0,0.0,0.0,0.0,0.0,0.0,0.0,0.0,0.0,0.0,2.2801,2.312,2.3421,2.3595,2.3595,2.3595,2.3595,2.3595,2.3595,2.3595,2.3595,2.4265,2.4265,2.3595,2.3606,2.3592,2.3646,2.4925,2.5506,2.5569,2.6892,2.7799,2.8447,2.977,3.0477,3.074,3.074,3.0918,3.119,3.119,3.119,3.119,0.8672,0.8804,0.8804,0.8804,0.8804,0.8804,0.8804,0.8804,0.8804,0.8804,0.891,0.8936,0.8804,0.9035,0.9133,0.9008,0.9106,0.9159,0.9066,0.9566,1.0038,1.0437,1.0754,1.1258,1.1996,1.1996,1.2295,1.2905,1.2163,1.1789,1.1789,1.1116,1.0864,1.1015,1.1566,1.1491,1.104,1.1724,0.0,1.1566,0.0,1.1968,1.2006,1.2646,1.2954,1.3032,1.3259,1.4493,1.6081,1.6571,1.7521,1.8555,1.8832,1.8731,0.0,0.0,0.0,0.0,0.0,0.0,0.0,0.0,0.0,1.7388,0.0,0.0,0.0,1.7188,0.0,0.0,0.0,0.0,0.0,0.0,0.0,0.0,0.0,0.0,0.0,0.0,0.0,0.0,0.0,0.0,2.3595,2.3595,2.3595,2.3595,2.3595,2.3595,2.3595,2.3595,2.3595,2.3595,2.3595,2.481,2.5048,2.4298,2.4033,2.3928,2.4076,2.6325,2.6957,2.6345,2.7902,2.8879,2.9473,3.0187,3.076,3.119,3.119,3.119,3.119,3.119,3.119,3.119,0.8778,0.8804,0.8804,0.8804,0.8804,0.8804,0.8804,0.8804,0.8804,0.8804,0.9309,0.9465,0.8857,0.9865,1.0338,0.9736,1.0244,1.0408,1.0074,0.0,1.0504,1.1323,1.1389,1.1846,1.2774,1.2774,1.2822,1.2905,1.2163,1.1789,1.1789,1.1116,1.1116,1.169,1.1765,1.1765,1.174,1.2476,1.2372,0.0,1.2495,1.2638,0.0,1.2786,1.3115,1.3553,1.4568,1.6173,1.7812,0.0,1.8668,1.9623,0.0,1.9648,1.9623,0.0,0.0,0.0,0.0,0.0,0.0,0.0,1.8518,0.0,0.0,0.0,1.6659,1.7188,0.0,1.7463,1.8007,0.0,0.0,0.0,0.0,0.0,0.0,0.0,0.0,0.0,0.0,0.0,0.0,0.0,0.0,2.3595,2.3595,2.3595,2.3595,2.3595,2.3595,2.3595,2.3595,2.3595,2.3595,2.4388,2.5477,2.6773,2.5604,2.5174,2.5502,2.6679,2.7203,2.7221,2.8596,2.9564,3.0219,3.0845,3.1151,3.119,3.119,3.119,3.119,3.119,3.119,3.119,0.8804,0.8804,0.8804,0.8804,0.8804,0.8804,0.8804,0.8804,0.8804,0.8804,0.9035,0.9106,0.8831,0.964,1.0115,0.9814,0.0,1.0719,0.0,0.0,1.1366,1.2271,1.232,1.2508,1.2881,1.29,1.29,1.2905,1.2584,1.2452,1.2427,1.2147,1.2172,1.2452,1.2452,1.2452,1.2452,0.0,1.286,0.0,0.0,0.0,0.0,1.3297,1.3766,1.464,1.5819,1.7037,1.8217,0.0,1.9393,0.0,0.0,0.0,0.0,0.0,0.0,0.0,0.0,0.0,0.0,0.0,0.0,0.0,1.8435,0.0,1.7371,0.0,0.0,0.0,0.0,0.0,0.0,0.0,0.0,0.0,0.0,0.0,0.0,0.0,0.0,0.0,0.0,0.0,0.0,0.0,0.0,2.3595,2.3595,2.3595,2.3595,2.3595,2.4322,2.4698,2.4698,2.613,2.6978,2.7189,2.7137,2.7223,2.7494,2.8893,2.8893,2.7911,2.9653,3.0319,3.0252,3.0926,3.119,3.119,3.119,3.119,3.119,3.119,3.119,3.119,0.8804,0.8804,0.8804,0.8804,0.8804,0.8804,0.8804,0.8804,0.8857,0.9061,0.9237,0.9335,0.9335,1.0123,0.0,0.0,1.0972,1.1369,0.0,0.0,1.2194,0.0,0.0,0.0,0.0,1.269,1.2885,1.2905,1.2905,1.2905,1.2905,1.2905,1.2905,1.2905,1.2905,1.2964,1.3047,0.0,1.3301,1.3682,1.3868,1.4335,1.4846,1.4349,1.4919,1.6129,1.7111,1.7934,1.869,1.9506,1.9798,0.0,1.9798,0.0,0.0,0.0,0.0,0.0,1.9798,0.0,0.0,0.0,0.0,0.0,0.0,0.0,0.0,0.0,0.0,0.0,0.0,0.0,1.9507,1.8936,0.0,0.0,0.0,0.0,0.0,0.0,0.0,0.0,0.0,0.0,0.0,0.0,2.334,0.0,2.3595,2.3595,2.3659,2.3815,2.4718,2.5373,2.5707,2.7262,2.7853,2.749,2.8266,2.8694,2.8834,3.0249,3.0107,2.8807,3.0479,3.0903,3.0446,3.097,3.119,3.119,3.119,3.119,3.119,3.119,3.119,3.121,0.8804,0.8804,0.8804,0.8804,0.8804,0.8804,0.8804,0.0,0.0,0.0,0.0,0.0,0.0,0.0,0.0,0.0,0.0,1.2832,1.2832,0.0,1.2856,0.0,0.0,1.2265,0.0,0.0,1.2905,1.2905,1.2905,1.2905,1.2905,1.2905,1.2905,1.2905,1.2905,1.3105,1.3486,1.3486,1.3704,1.4138,1.4862,1.5866,1.6841,0.0,1.6717,1.8052,1.8474,0.0,0.0,1.9798,1.9798,0.0,0.0,0.0,0.0,0.0,0.0,0.0,0.0,0.0,0.0,2.057,0.0,0.0,0.0,0.0,1.9999,0.0,0.0,0.0,0.0,1.9708,1.948,1.882,1.9271,0.0,0.0,0.0,0.0,0.0,0.0,0.0,0.0,0.0,0.0,0.0,2.2733,0.0,2.3565,2.3595,2.3837,2.4348,2.4405,2.5033,2.6258,2.685,2.7495,2.8177,2.8718,2.899,2.9024,2.9785,3.0106,3.0089,3.0869,3.119,3.1157,3.119,3.119,3.119,3.119,3.119,3.119,3.119,3.119,3.1269,0.8804,0.8804,0.8804,0.8804,0.8804,0.0,0.0,0.9185,0.0,0.0,0.0,0.0,0.0,1.1625,1.2073,0.0,0.0,1.2905,1.2905,1.2905,0.0,0.0,0.0,1.268,0.0,0.0,0.0,1.2905,1.2905,1.2905,1.2905,1.2905,1.2905,1.2915,1.3174,1.3379,0.0,0.0,0.0,0.0,0.0,1.7081,1.8057,0.0,0.0,1.8503,1.8655,1.9176,0.0,1.9798,1.9798,1.9798,1.9798,1.9798,1.9798,1.9798,2.0105,0.0,0.0,0.0,2.111,2.1342,0.0,0.0,0.0,0.0,0.0,0.0,0.0,0.0,0.0,2.0363,2.0139,1.9465,1.9558,1.9633,0.0,0.0,0.0,0.0,0.0,0.0,0.0,0.0,0.0,2.2703,2.2703,2.2957,0.0,2.3943,2.4204,2.4389,2.5552,2.6386,2.682,2.8341,2.9204,2.9475,3.0152,3.0465,3.0446,3.07,3.0835,3.0835,3.1089,3.119,3.119,3.119,3.119,3.119,3.119,3.137,3.1603,3.1603,3.1603,3.166,0.8804,0.8804,0.8804,0.0,0.0,0.0,0.0,0.0,0.0,0.0,1.0728,0.0,1.1509,0.0,1.2197,0.0,1.2637,1.2905,1.2905,1.2905,0.0,1.2905,1.291,0.0,0.0,0.0,0.0,0.0,1.2905,1.2905,1.2905,1.2905,1.2905,1.2925,1.332,1.3738,1.4118,1.456,1.525,0.0,0.0,1.8207,0.0,0.0,1.8688,1.9097,0.0,1.9397,1.9798,1.9798,1.9798,1.9798,1.9798,1.9798,1.9798,1.9798,2.027,2.0795,2.0795,2.1245,0.0,0.0,2.2053,0.0,2.2875,0.0,0.0,0.0,0.0,0.0,0.0,0.0,2.0572,2.0124,2.0049,2.0139,0.0,2.1156,0.0,0.0,0.0,0.0,0.0,0.0,2.2919,2.2854,2.3093,2.338,0.0,0.0,2.4756,2.4969,2.6108,2.6912,2.7343,2.8928,2.9837,3.0125,3.0852,3.119,3.119,3.119,3.119,3.119,3.119,3.119,3.119,3.119,3.1291,3.1411,3.1411,3.1677,3.2022,3.1861,3.2004,3.2349,0.8804,0.0,0.0,0.0,0.8804,0.0,0.0,0.0,1.0097,0.0,1.1444,1.211,1.2832,1.2905,1.2905,1.2905,1.2905,0.0,1.2905,1.2905,0.0,0.0,1.2905,1.2905,1.2905,0.0,0.0,0.0,0.0,1.2905,1.2905,1.2905,1.2905,1.2925,1.3305,1.4082,1.5169,1.5748,1.6613,1.7665,1.8436,1.9176,1.9798,1.9798,0.0,1.9798,1.9798,1.9798,1.9798,1.9798,1.9798,1.9798,1.9798,1.9824,1.985,1.985,2.0346,2.0894,2.0894,2.1318,2.1946,2.2589,0.0,0.0,0.0,0.0,2.343,0.0,0.0,0.0,0.0,0.0,2.0778,2.0748,2.0748,2.0957,2.1605,0.0,0.0,0.0,0.0,0.0,0.0,2.3406,2.3352,2.3131,2.3779,2.4179,0.0,0.0,0.0,2.5979,2.6015,2.6594,2.779,2.8602,2.9364,3.0125,3.0852,3.119,3.119,3.119,3.119,3.119,3.119,3.119,3.119,3.123,3.1451,3.1807,3.1825,3.2109,3.2484,3.2022,3.245,3.3229,0.8804,0.8956,0.9049,0.0,0.8804,0.8956,0.0,0.0,0.0,0.0,1.2162,1.2686,1.2881,1.2905,1.2905,1.2905,1.2905,0.0,0.0,0.0,0.0,1.2905,1.2905,1.2905,1.2905,1.2905,0.0,1.2905,0.0,1.2905,1.2905,1.2905,1.2905,1.291,1.3009,1.3554,1.4501,1.6367,1.733,1.7714,1.9012,1.9631,0.0,0.0,1.9798,1.9798,1.9798,1.9798,1.9798,1.9798,1.9798,1.9798,1.9798,2.0144,2.0547,2.0547,2.1345,2.2198,2.2198,2.2643,2.315,2.3334,2.3377,2.3421,0.0,0.0,0.0,0.0,0.0,0.0,0.0,0.0,0.0,2.1515,2.144,2.15,2.168,0.0,0.0,0.0,0.0,0.0,0.0,2.3771,2.3763,2.3149,2.3779,2.4179,0.0,0.0,0.0,2.5995,2.6332,2.6926,2.779,2.8602,2.9364,3.0125,3.0852,3.119,3.119,3.119,3.119,3.119,3.119,3.119,3.123,3.1526,3.1715,3.1826,3.2179,3.2616,3.3014,3.2887,3.3181,3.3652,0.8804,0.0,0.0,0.9645,0.0,0.0,0.9775,0.0,0.0,1.176,1.2438,0.0,1.2905,1.2905,1.2905,1.2905,1.2905,0.0,1.2905,0.0,0.0,1.2905,1.2905,1.2905,1.2905,1.2905,0.0,1.3412,0.0,1.2899,1.2898,1.2899,1.289,1.2895,1.2916,1.3352,1.4302,1.7296,1.8575,1.8632,1.9465,0.0,0.0,1.9798,1.9798,1.9798,1.9798,1.9798,1.9798,1.9798,1.9798,1.985,2.0144,2.0497,2.0845,2.1113,2.1903,2.2694,2.2694,2.3143,2.3595,2.3595,2.3595,2.3595,2.3595,2.3595,2.3595,0.0,0.0,0.0,0.0,0.0,0.0,2.2489,2.2382,2.257,0.0,0.0,0.0,0.0,0.0,0.0,0.0,2.4814,2.4774,2.4245,2.4871,2.515,0.0,0.0,0.0,2.6314,2.6875,2.7367,2.7807,2.8924,2.9685,3.0125,3.0852,3.119,3.119,3.119,3.1291,3.1451,3.1451,3.1582,3.1787,3.2004,3.223,3.2466,3.2903,3.3225,3.3465,3.3465,3.3606,3.3807,0.8837,0.0,0.0,0.0,0.0,0.0,0.0,1.1097,0.0,1.1928,0.0,1.2905,1.2905,1.2905,1.2905,1.2905,0.0,1.2905,1.2905,1.2905,1.2905,1.2905,1.2905,1.2954,1.3017,1.3017,0.0,0.0,1.3508,1.3101,1.2912,1.3212,1.3212,1.2914,1.3217,1.3909,0.0,1.8379,1.9798,1.9798,1.9798,1.9798,1.9798,1.9798,1.9798,1.9798,1.9812,1.9799,1.9837,1.9939,1.9965,2.0055,2.0721,2.0979,2.1151,2.1687,2.23,2.2807,2.2807,2.3187,2.3595,2.3595,2.3595,2.3616,2.3702,2.3702,2.3709,2.3794,2.4163,0.0,0.0,0.0,0.0,2.3545,0.0,0.0,0.0,0.0,0.0,0.0,0.0,0.0,0.0,0.0,2.5962,2.5627,2.6285,0.0,0.0,0.0,0.0,0.0,2.7418,0.0,2.7959,0.0,3.014,3.026,3.0886,3.119,3.119,3.1252,3.147,3.1789,3.1879,3.2109,3.2501,3.2567,3.2856,3.3302,3.3666,3.3807,3.3807,3.3807,3.3807,3.3807,0.0,0.0,0.0,0.0,0.0,1.2789,1.2129,1.1901,1.2016,1.263,1.2817,1.2905,1.2905,1.2905,1.2905,1.2905,1.2905,0.0,0.0,0.0,0.0,1.2905,1.2905,1.3128,1.3637,1.3637,1.3784,0.0,1.4627,1.4196,1.2935,1.4947,1.4804,1.3002,1.497,1.6965,1.8847,1.9516,0.0,1.9798,1.9798,1.9798,1.9798,1.9798,1.9798,1.9799,1.98,1.9801,1.9914,2.0638,2.0762,2.0733,2.1366,2.1913,2.2397,2.2498,2.2965,2.3443,2.3443,2.3508,2.3595,2.3595,2.3595,2.3724,2.4158,2.4266,2.4389,2.4831,2.4992,2.5067,2.5067,0.0,0.0,0.0,0.0,0.0,0.0,0.0,0.0,0.0,0.0,0.0,0.0,0.0,0.0,0.0,0.0,0.0,0.0,0.0,0.0,0.0,0.0,0.0,0.0,0.0,0.0,3.1004,3.114,3.119,3.121,3.1528,3.1734,3.1825,3.2196,3.2434,3.2534,3.2921,3.3317,3.3707,3.3762,3.3807,3.3807,3.3807,3.3807,3.3807,0.0,0.0,0.0,0.0,0.0,0.0,0.0,1.2961,0.0,1.2886,1.2905,1.2905,1.2905,1.2905,1.2905,1.2905,1.2905,1.2905,1.2905,1.2905,1.3041,1.3348,1.3372,0.0,1.426,1.426,1.4481,1.4891,1.5165,1.5119,1.4809,1.6557,1.6762,1.5707,1.7435,1.8807,0.0,0.0,0.0,1.9798,1.9798,1.9798,1.9811,1.9813,1.98,1.9813,1.9789,2.0227,2.0766,2.0501,2.0952,2.1684,2.1955,2.2363,2.2762,2.3076,2.3377,2.3595,2.3595,2.3595,2.3595,2.3595,2.3815,2.4074,2.4348,2.4632,2.4891,2.5163,2.5411,2.5615,2.5615,2.5817,0.0,0.0,0.0,0.0,0.0,0.0,0.0,0.0,0.0,0.0,0.0,0.0,0.0,0.0,0.0,0.0,0.0,0.0,0.0,0.0,0.0,0.0,0.0,0.0,0.0,3.1507,3.1507,3.164,3.1878,3.2074,3.2298,3.2533,3.2761,3.2965,3.3196,3.3419,3.3638,3.3807,3.3807,3.3807,3.3807,3.3807,3.3807,3.3807,0.0,1.1635,0.0,0.0,1.4079,0.0,1.4232,1.3902,1.3458,1.2973,1.2905,1.2905,1.2905,1.2905,1.2958,1.3078,1.2973,1.2944,1.3094,1.3079,1.331,1.3779,1.3909,1.4283,1.488,1.4903,1.5197,0.0,1.5629,1.5969,1.6735,1.7645,1.8246,1.8583,0.0,0.0,0.0,0.0,1.9798,1.9798,1.9798,1.9914,2.0055,1.9887,2.0134,2.0607,2.0624,2.1239,2.196,2.0959,2.1342,2.2297,2.2577,2.2757,2.2987,2.3465,2.3595,2.3595,2.3595,2.3681,2.3773,2.3773,2.4163,2.4612,2.4697,2.5067,2.5392,2.5505,2.5854,2.612,2.6031,2.6384,0.0,0.0,0.0,0.0,0.0,0.0,0.0,0.0,0.0,0.0,0.0,0.0,0.0,0.0,0.0,2.6691,2.6691,2.6691,0.0,0.0,0.0,0.0,3.0207,0.0,3.1638,0.0,3.1951,3.2127,3.2501,3.2599,3.284,3.3199,3.3288,3.3508,3.3807,3.3807,3.3807,3.3807,3.3807,3.3807,3.3807,3.3807,3.3807,3.3807,0.0,0.0,0.0,0.0,0.0,0.0,0.0,1.4327,1.3768,1.3008,1.2905,1.2905,1.2905,1.2905,1.3116,1.3664,1.3219,1.3132,1.3682,1.3724,1.3732,1.3792,1.4329,1.4903,1.5499,1.5521,1.5798,0.0,0.0,1.6779,1.7488,1.7602,1.8376,0.0,0.0,0.0,0.0,1.9786,1.9798,1.9798,1.9798,2.0271,2.0888,2.0099,2.1226,2.3231,2.3233,2.3335,2.3403,2.3268,2.2591,2.1977,2.3128,2.3493,2.353,2.3573,2.3595,2.3595,2.3595,2.3948,2.4328,2.4328,2.4732,2.5259,2.5726,2.5888,2.605,2.647,2.6607,2.6487,2.6085,2.6384,2.6556,0.0,0.0,0.0,0.0,0.0,0.0,0.0,0.0,0.0,0.0,0.0,0.0,0.0,0.0,2.6691,2.6691,2.6691,2.7046,2.779,0.0,2.9885,3.0647,3.181,0.0,3.2434,3.2434,3.2451,3.2517,3.2937,3.3169,3.3229,3.3578,3.378,3.3807,3.3807,3.3807,3.3807,3.3807,3.3807,3.3807,3.3807,3.3807,3.3807,0.0,0.0,0.0,0.0,0.0,0.0,0.0,1.4405,1.3992,1.3668,1.3196,1.305,1.3395,1.3436,1.3541,1.3784,1.3903,1.3944,1.3807,1.4133,1.4503,1.4858,1.5118,1.5533,1.6129,1.6139,1.6433,0.0,0.0,0.0,1.7962,1.8289,0.0,0.0,0.0,2.0485,2.06,2.0832,2.1093,2.1309,2.0799,2.0782,2.1086,2.0985,2.2053,2.3606,2.36,2.3592,2.3599,2.3596,2.3252,2.293,2.3442,2.3595,2.3595,2.3595,2.3595,2.3681,2.3991,2.4225,2.4491,2.4796,2.5278,2.5726,2.5943,2.6227,2.647,2.6657,2.6691,2.6641,2.6453,2.6573,2.6641,0.0,0.0,0.0,0.0,0.0,0.0,0.0,0.0,0.0,0.0,0.0,2.6691,0.0,0.0,2.6691,2.6691,2.6939,2.7503,2.8502,0.0,3.043,3.141,3.2141,3.2632,3.2921,3.2921,3.306,3.3284,3.3462,3.3564,3.3564,3.3734,3.3807,3.3807,3.3807,3.3807,3.3807,3.3807,3.3807,3.3807,3.3807,3.3807,3.3807,1.4042,0.0,1.4723,0.0,1.541,1.5303,1.5032,1.4601,1.437,1.4592,1.4003,1.3691,1.3952,1.417,1.4323,1.4333,1.4561,1.4583,1.4342,1.4732,1.5141,1.5588,1.5776,0.0,1.65,1.65,1.681,1.741,1.741,0.0,0.0,0.0,0.0,0.0,2.0597,2.097,2.1304,2.1725,2.2029,2.2132,2.1519,2.1358,2.1495,2.1642,2.2476,2.3615,2.3598,2.3595,2.3595,2.3595,2.3595,2.3595,2.3595,2.3595,2.3595,2.3595,2.3739,2.3994,2.4323,2.4617,2.4969,2.5335,2.5817,2.6209,2.6209,2.6453,2.6691,2.6691,2.6691,2.6691,2.6691,2.6691,2.6691,0.0,0.0,0.0,0.0,0.0,0.0,0.0,0.0,0.0,0.0,0.0,0.0,0.0,0.0,2.6987,2.689,2.7478,0.0,0.0,0.0,0.0,0.0,3.2681,3.306,3.3394,3.3394,3.3522,3.3807,3.3807,3.3807,3.3807,3.3807,3.3807,3.3807,3.3807,3.3807,3.3807,3.3807,3.3807,3.3807,3.3807,3.3807,3.3807,1.4207,1.4835,1.5381,1.541,1.541,1.541,1.5381,1.5049,1.5061,1.5771,1.5458,1.4969,1.4457,1.5053,1.5508,1.5557,1.5028,1.4949,1.5543,1.5588,1.5588,0.0,0.0,1.6488,1.65,1.65,1.681,1.741,0.0,0.0,1.9008,0.0,0.0,2.0795,2.0795,2.1137,2.171,2.2183,2.2132,2.171,2.1697,2.196,2.2326,2.1866,2.2489,2.361,2.3595,2.3595,2.3595,2.3595,2.3595,2.3595,2.3595,2.3595,2.3595,2.3595,2.4124,2.4647,2.4441,2.5182,2.5979,2.5995,2.6349,2.6691,2.6691,2.6691,2.6691,2.6691,2.6691,2.6691,2.6691,2.6691,2.6691,2.6691,0.0,0.0,0.0,0.0,0.0,0.0,0.0,0.0,2.7286,0.0,0.0,0.0,0.0,0.0,0.0,0.0,0.0,3.0165,3.1419,0.0,3.3184,3.3578,3.3793,3.3775,3.3775,3.3807,3.3807,3.3807,3.3807,3.3807,3.3807,3.3807,3.3807,3.3807,3.3807,3.3807,3.3807,3.3807,3.3807,3.3807,3.3807,3.3807,1.5011,1.5235,1.541,1.541,1.541,1.541,1.541,1.5481,1.5742,1.6248,1.6813,1.709,1.6816,1.638,1.6115,0.0,1.6015,1.5832,0.0,1.5986,1.6216,1.6216,1.6798,1.7099,1.7099,1.7476,1.794,1.8481,0.0,0.0,0.0,2.0193,2.0597,2.0845,2.1704,2.2198,2.2429,2.2978,2.312,2.3002,2.3002,2.3076,2.3194,2.3054,2.3252,2.3595,2.3595,2.3595,2.3595,2.3595,2.3601,2.3593,2.3593,2.3593,2.3732,2.4482,2.4326,2.4151,2.5037,2.554,2.5899,2.6367,2.659,2.6691,2.6691,2.6691,2.6691,2.6691,2.6691,2.6691,2.6691,2.6691,2.6691,2.6691,0.0,0.0,0.0,0.0,0.0,0.0,0.0,0.0,0.0,2.9139,0.0,0.0,0.0,0.0,0.0,0.0,0.0,0.0,3.1938,0.0,3.3199,3.3592,3.3807,3.3807,3.3807,3.3807,3.3807,3.3807,3.3807,3.3807,3.3807,3.3807,3.3807,3.3807,3.3807,3.3807,3.3807,3.3807,3.3807,3.3807,3.3915,3.408,1.5176,1.5176,1.5176,1.5176,1.5312,1.5497,1.5777,1.5979,1.6424,1.7213,1.7901,1.8394,1.86,1.7885,0.0,1.6803,1.701,0.0,1.6302,1.6824,1.7127,1.7127,1.7501,1.7689,1.7689,0.0,0.0,1.9363,1.9799,2.0195,2.0521,2.0942,2.1259,2.1561,2.2337,2.283,2.3054,2.3443,2.3595,2.3595,2.3595,2.3595,2.3595,2.3595,2.3595,2.3601,2.3595,2.3592,2.3604,2.3608,2.3595,2.373,2.4507,2.4749,2.4902,2.5572,2.5291,2.4869,2.5383,2.5783,2.618,2.6607,2.6979,2.725,2.7131,2.6894,2.6691,2.6691,2.6691,2.6691,2.6691,2.6691,2.6691,2.6691,0.0,2.6923,0.0,0.0,0.0,0.0,0.0,0.0,0.0,3.0345,0.0,0.0,0.0,0.0,0.0,0.0,0.0,3.1837,3.2625,0.0,3.3419,3.3662,3.3807,3.3807,3.3807,3.3807,3.3807,3.3807,3.3807,3.3807,3.3807,3.3807,3.3807,3.3807,3.3807,3.3807,3.3807,3.385,3.3948,3.3948,3.4141,3.439,1.4774,1.4792,0.0,0.0,1.5212,0.0,1.6482,1.6624,1.7146,1.8528,1.8741,1.9044,1.9721,1.9346,1.8632,1.7612,0.0,0.0,0.0,1.789,1.8166,1.8204,1.8242,0.0,1.8267,1.8339,1.8949,2.0109,2.1189,2.1697,2.1697,2.1758,2.21,2.2694,2.274,2.3076,2.3595,2.3595,2.3595,2.3595,2.3595,2.3595,2.3595,2.3638,2.3659,2.3672,2.3687,2.3738,2.3819,2.3815,2.3805,2.4163,2.6091,2.6702,2.6705,2.6702,2.6702,2.6489,2.5561,2.5979,2.6691,2.6691,2.7453,2.8132,2.7807,2.7199,2.6691,2.6691,2.6691,2.6708,2.6741,2.6741,2.6758,2.6791,2.7099,2.7332,2.7332,0.0,0.0,0.0,0.0,0.0,0.0,3.1347,3.158,0.0,0.0,0.0,0.0,0.0,3.2674,3.2674,3.3421,3.3807,3.3807,3.3807,3.3807,3.3807,3.3807,3.3807,3.3807,3.3807,3.3807,3.3807,3.3807,3.3807,3.3807,3.3807,3.3802,3.3829,3.3829,3.3999,3.4223,3.4223,3.4434,3.4724,0.0,0.0,1.5166,1.5566,1.611,1.6656,1.7247,1.7825,1.8313,1.8661,1.9202,1.9618,1.9773,1.9698,1.9346,1.8669,1.799,1.7702,1.799,1.7762,1.7765,1.8191,1.8581,1.8807,1.8807,1.9703,2.0536,2.1291,2.157,2.1697,2.1697,2.2216,2.2558,2.2717,2.3179,2.3465,2.3595,2.3595,2.3595,2.3595,2.3595,2.3595,2.3638,2.4053,2.4307,2.4436,2.4441,2.5095,2.5963,2.5979,2.5975,2.6052,2.6545,2.6698,2.6706,2.6706,2.6698,2.6657,2.6404,2.6522,2.6691,2.6691,2.7453,2.7964,2.7148,2.6826,2.6691,2.6691,2.6691,2.6791,2.7099,2.7162,2.7272,2.7577,2.771,2.7768,2.7768,0.0,0.0,0.0,3.0911,3.1965,3.2185,3.2818,3.322,0.0,0.0,0.0,0.0,0.0,3.3532,3.3532,3.3697,3.3807,3.3807,3.3807,3.3807,3.3807,3.3807,3.3807,3.3807,3.3807,3.3807,3.3807,3.3807,3.3807,3.3807,3.3807,3.3928,3.4117,3.4117,3.43,3.4572,3.4572,3.4764,3.4999,1.4262,1.4543,1.5037,1.5883,1.646,1.7088,1.7962,1.8447,1.8821,1.915,1.9553,1.9798,1.9798,1.9798,1.9685,1.9384,1.8832,1.8518,1.8556,1.8518,1.8618,1.892,1.9196,1.9359,1.9359,2.0304,2.1248,2.2146,2.2432,2.2583,2.2583,2.2928,2.3098,2.3135,2.3465,2.3595,2.3595,2.3595,2.3745,2.3985,2.3985,2.4116,2.4369,2.4637,2.4926,2.5156,2.5153,2.5831,2.67,2.6699,2.6696,2.6703,2.6703,2.669,2.6691,2.6705,2.669,2.6691,2.6691,2.6691,2.6691,2.6691,2.7097,2.7453,2.725,2.6945,2.6758,2.6939,2.6971,2.7099,2.75,2.7574,2.7651,2.7869,2.802,2.8129,2.8129,2.9132,0.0,3.0381,3.1722,3.2729,3.3109,3.3532,3.3807,3.3807,0.0,0.0,3.3807,3.3807,3.3807,3.3807,3.3807,3.3807,3.3807,3.3807,3.3807,3.3807,3.3807,3.3807,3.3807,3.3807,3.3807,3.3807,3.3807,3.3863,3.3986,3.3986,3.4165,3.4423,3.4423,3.4614,3.4889,3.4889,3.5043,3.5289,1.4478,1.4542,1.4967,1.6263,1.6831,1.7511,1.8696,1.8874,1.9097,1.9721,1.9798,1.9798,1.9798,1.9798,1.9798,1.9798,1.9901,1.9763,1.9295,1.9535,1.9762,1.994,1.9952,1.9952,1.9952,2.0696,2.1657,2.2844,2.3355,2.3595,2.3595,2.3595,2.3595,2.3595,2.3595,2.3595,2.3595,2.3702,2.397,2.441,2.4491,2.4776,2.5221,2.5297,2.5486,2.5748,2.5822,2.6221,2.6698,2.6708,2.6691,2.6691,2.6691,2.6691,2.6691,2.6691,2.6691,2.6691,2.6691,2.6691,2.6742,2.689,2.6978,2.7216,2.7759,2.7453,2.7124,2.7352,2.7378,2.7515,2.7894,2.7982,2.7996,2.8051,2.8303,2.8484,2.8484,0.0,3.0632,3.1323,3.2228,3.3041,3.3733,3.3807,3.3807,3.3807,3.3807,3.3807,0.0,3.3807,3.3807,3.3807,3.3807,3.3807,3.3807,3.3807,3.3807,3.3807,3.3807,3.3807,3.3807,3.3807,3.3807,3.3788,3.3842,3.3999,3.42,3.4246,3.4467,3.4754,3.4754,3.4926,3.5147,3.5147,3.5304,3.55,1.4935,1.5213,1.5839,1.7517,1.8273,1.8882,1.953,1.9631,1.9669,1.9798,1.9798,1.9798,1.9798,1.9798,1.9798,1.9798,2.0321,2.062,2.0529,1.9634,1.9584,2.0608,2.0646,2.0646,2.0646,2.1799,2.2748,2.3465,2.3551,2.3595,2.3595,2.3595,2.3595,2.3595,2.3595,2.3595,2.3638,2.4074,2.4328,2.443,2.4894,2.5125,2.5259,2.5689,2.5905,2.601,2.6402,2.6624,2.6708,2.6691,2.6691,2.6691,2.6691,2.6691,2.6691,2.6691,2.6691,2.6691,2.6691,2.6691,2.6911,2.7757,2.8356,2.8636,2.8367,2.8533,2.8541,2.7935,2.7811,2.7908,2.8264,2.8329,2.842,2.8761,2.8863,2.8917,2.8917,0.0,3.1268,3.1397,3.2706,3.366,3.3788,3.3807,3.3807,3.3807,3.3807,3.3807,3.3807,3.3807,3.3807,3.3807,3.3807,3.3807,3.3807,3.3807,3.3807,3.3807,3.3807,3.3807,3.3807,3.3807,3.3807,3.3802,3.4043,3.4152,3.4211,3.4508,3.4784,3.5044,3.5044,3.5207,3.5439,3.5439,3.5453,3.55,1.5584,1.5811,1.6438,1.8275,1.8809,1.9171,1.9723,1.9798,1.9798,1.9798,1.9798,1.9798,1.9798,1.9798,1.9952,2.0295,2.0622,2.1091,2.1775,2.0954,2.0711,2.1256,2.1269,2.1452,2.1823,2.2397,2.2987,2.3595,2.3595,2.3595,2.3595,2.3595,2.3595,2.3595,2.3595,2.3595,2.3638,2.4163,2.4572,2.4875,2.5411,2.5781,2.6034,2.628,2.6367,2.6401,2.6624,2.6691,2.6691,2.6691,2.6691,2.6691,2.6691,2.6691,2.6691,2.6691,2.6691,2.6691,2.6691,2.6691,2.7012,2.8355,2.888,2.9038,2.8831,2.8941,2.8919,2.8304,2.817,2.8277,2.8658,2.8719,2.8773,2.8964,2.9005,0.0,0.0,3.065,3.1549,3.199,3.3073,3.3807,3.3807,3.3807,3.3807,3.3807,3.3807,3.3807,3.3807,3.3807,3.3807,3.3807,3.3807,3.3807,3.3807,3.3807,3.3807,3.3807,3.3807,3.3807,3.3802,3.3948,3.4006,3.4031,3.4353,3.4542,3.4696,3.4851,3.5079,3.5312,3.5312,3.5383,3.55,3.55,3.55,3.55,1.6336,1.6588,1.7175,1.8896,1.9183,1.9321,1.9748,1.9798,1.9798,1.9798,1.9798,1.9798,1.9798,1.9952,2.0245,2.0746,2.1066,2.1657,2.2626,2.2354,2.2086,2.1946,2.1922,2.2239,2.2897,2.2897,2.3135,2.3595,2.3595,2.3595,2.3595,2.373,2.3794,2.3794,2.3921,2.397,2.4012,2.4536,2.5012,2.543,2.5961,2.6367,2.6691,2.6691,2.6691,2.6691,2.6691,2.6691,2.6691,2.6691,2.6691,2.6691,2.6707,2.6706,2.6705,2.6685,2.6701,2.6786,2.7163,2.7265,2.7654,2.9248,2.972,2.9737,2.9553,2.9576,2.9434,2.8688,2.854,2.8627,2.894,2.9005,2.9005,2.9005,0.0,0.0,0.0,3.1054,3.1916,3.2528,3.3311,3.3807,3.3807,3.3868,3.3889,3.3889,3.3967,3.4018,3.4018,3.4018,3.4018,3.4018,3.3868,3.3807,3.3807,3.3807,3.3829,3.3889,3.3889,3.3928,3.4018,3.4218,3.4323,3.4334,3.4645,3.4917,3.5105,3.5174,3.5312,3.55,3.55,3.55,3.55,3.55,3.55,3.55,1.7279,1.7746,1.8354,1.9533,1.9748,1.9761,1.9798,1.9798,1.9798,1.9798,1.9798,1.9798,1.9798,2.0346,2.0759,2.0795,2.187,2.2603,2.2694,2.3187,2.3209,2.2649,2.2626,2.292,2.3508,2.353,2.3551,2.3595,2.3595,2.3595,2.3595,2.4116,2.4348,2.4369,2.4871,2.507,2.5125,2.5652,2.5906,2.5979,2.6453,2.6674,2.6691,2.6691,2.6691,2.6691,2.6691,2.6691,2.6691,2.6691,2.6691,2.6707,2.6692,2.6716,2.6709,2.6714,2.6713,2.7035,2.8519,2.8923,2.9282,3.0843,3.1568,3.1672,3.0858,3.0952,3.0803,2.9282,2.897,2.8952,2.8994,2.9005,2.9005,2.9005,0.0,0.0,3.0191,3.1518,3.2528,3.2583,3.3311,3.3807,3.3807,3.4018,3.4183,3.4183,3.4464,3.4632,3.4632,3.4632,3.4632,3.4632,3.4087,3.3807,3.3807,3.3807,3.391,3.4183,3.4183,3.4334,3.4632,3.4653,3.4663,3.4674,3.4954,3.5088,3.5113,3.5369,3.5486,3.55,3.55,3.55,3.55,3.55,3.55,3.55,1.7368,1.807,1.875,1.9658,1.9798,1.9798,1.9798,1.9798,1.9952,2.0371,2.0421,2.0559,2.0953,2.1221,2.1534,2.1941,2.242,2.2852,2.3231,2.3465,2.3508,2.3268,2.3268,2.3377,2.361,2.3595,2.3595,2.3595,2.3595,2.3773,2.4095,2.4307,2.4572,2.491,2.5105,2.5202,2.524,2.5762,2.6013,2.6049,2.6505,2.6691,2.6691,2.6691,2.6691,2.6691,2.6691,2.6705,2.6713,2.6713,2.67,2.6695,2.6693,2.7359,2.8118,2.8142,2.788,2.7763,2.8383,3.0246,3.1987,3.1853,3.1967,3.1944,3.1305,3.1296,3.0944,2.9335,2.9005,2.9152,2.9647,2.9739,2.9916,3.0411,0.0,3.1109,3.161,3.2216,3.2784,3.3293,3.3751,3.4056,3.4056,3.4323,3.4518,3.4518,3.4632,3.4694,3.4694,3.5176,3.545,3.545,3.5747,3.5652,3.5105,3.5633,3.5964,3.6065,3.6065,3.612,3.6264,3.6425,3.6207,3.5713,3.5977,3.5814,3.5361,3.5453,3.55,3.55,3.55,3.55,3.55,3.55,3.55,3.55,1.7423,1.8382,1.9202,1.9721,1.9798,1.9798,1.9798,1.9978,2.0283,2.0746,2.0955,2.1245,2.1649,2.1899,2.2193,2.2649,2.2875,2.3143,2.3573,2.3752,2.3773,2.3595,2.3595,2.3595,2.3595,2.3595,2.3595,2.3595,2.3595,2.3879,2.441,2.4556,2.495,2.5449,2.5617,2.5672,2.5691,2.6068,2.6227,2.6244,2.6573,2.6691,2.6691,2.6691,2.6791,2.6873,2.6755,2.6708,2.6692,2.6692,2.7023,2.742,2.7412,2.8147,2.9008,2.9008,2.8752,2.8456,2.845,3.0342,3.2296,3.226,3.2456,3.242,3.1585,3.1397,3.0944,2.9335,2.9005,2.9244,3.0063,3.021,3.0467,3.1268,3.1604,3.2009,3.2643,3.2932,3.3339,3.4006,3.4249,3.4357,3.4357,3.4645,3.4832,3.4832,3.4908,3.5068,3.5315,3.6112,3.6559,3.6559,3.7405,3.7566,3.6958,3.7124,3.7234,3.7335,3.7335,3.7375,3.7452,3.7646,3.7247,3.6444,3.6622,3.6231,3.55,3.55,3.55,3.55,3.55,3.55,3.55,3.55,3.55,3.55,1.7532,1.8794,1.9798,1.9798,1.9798,1.9798,1.9798,2.0371,2.0795,2.0795,2.1342,2.1697,2.1697,2.23,2.2694,2.2694,2.3253,2.3595,2.3595,2.4095,2.4163,2.3638,2.3616,2.3616,2.3616,2.3616,2.3616,2.3616,2.3616,2.39,2.443,2.4969,2.5486,2.6031,2.6487,2.6691,2.6691,2.6691,2.6691,2.6691,2.6691,2.6691,2.6691,2.6691,2.6955,2.7251,2.6847,2.67,2.6715,2.6715,2.7727,2.9005,2.9002,2.8992,2.9005,2.9005,2.9005,2.8995,2.901,2.8997,2.9593,3.2012,3.322,3.3385,3.1782,3.1397,3.0944,2.9335,2.9005,2.9262,3.0081,3.0228,3.0485,3.1286,3.2082,3.271,3.2962,3.3697,3.4334,3.4663,3.4694,3.4694,3.4694,3.4944,3.5105,3.5105,3.5373,3.5865,3.6673,3.7546,3.8007,3.8007,3.8854,3.9304,3.9304,3.7928,3.7364,3.7611,3.7611,3.7761,3.8027,3.8027,3.7546,3.6712,3.6712,3.625,3.55,3.55,3.55,3.55,3.55,3.55,3.55,3.55,3.55,3.55,1.815,1.915,1.9798,1.9798,1.9798,1.9798,1.9798,2.0371,2.0955,2.139,2.1997,2.2552,2.298,2.3209,2.3334,2.3334,2.3486,2.3752,2.4137,2.4307,2.4491,2.4697,2.4732,2.4732,2.4732,2.4732,2.4732,2.4732,2.4732,2.5008,2.554,2.5689,2.6033,2.6504,2.6641,2.6691,2.6691,2.6691,2.6691,2.6691,2.6691,2.6691,2.6691,2.6691,2.6955,2.7319,2.7488,2.7534,2.762,2.8147,2.8626,2.8998,2.901,2.899,2.9005,2.9005,2.9005,2.9,2.8992,2.8998,2.972,3.269,3.3623,3.3471,3.2237,3.166,3.1103,3.0063,2.9831,3.0265,3.1629,3.1867,3.2155,3.2944,3.3444,3.3758,3.3834,3.4252,3.4582,3.4684,3.487,3.4981,3.4981,3.5223,3.5606,3.6189,3.6856,3.7353,3.7603,3.843,3.8911,3.8911,3.9708,4.015,4.015,3.9731,3.9563,3.9621,3.9621,3.9673,3.9746,3.9746,3.8969,3.7603,3.7603,3.6815,3.55,3.55,3.55,3.55,3.55,3.55,3.55,3.55,3.55,3.55,1.8433,1.9281,1.9798,1.9798,1.9798,1.9901,2.0156,2.0733,2.1366,2.2007,2.2657,2.3187,2.3551,2.3595,2.3595,2.3595,2.3794,2.4053,2.4369,2.4796,2.5182,2.5486,2.5691,2.5617,2.5221,2.5202,2.5202,2.5202,2.5202,2.5468,2.6013,2.6013,2.6244,2.6691,2.6691,2.6691,2.6691,2.6691,2.6691,2.6691,2.6691,2.669,2.6702,2.6702,2.6849,2.7139,2.7698,2.8492,2.9264,2.9064,2.9004,2.9005,2.9005,2.9005,2.9005,2.9005,2.9005,2.9,2.8998,2.9942,3.1365,3.3298,3.3807,3.3618,3.298,3.2089,3.1206,3.0503,3.0687,3.1317,3.2412,3.2679,3.3007,3.3832,3.4213,3.4434,3.4534,3.4725,3.4908,3.4999,3.5441,3.5618,3.5285,3.5993,3.6692,3.718,3.8027,3.8507,3.8507,3.9323,3.9765,3.9765,4.0246,4.0496,4.0496,4.0496,4.0496,4.0496,4.0496,4.0496,4.0496,4.0496,3.9765,3.8488,3.8142,3.743,3.6442,3.5769,3.5692,3.5942,3.5615,3.55,3.55,3.55,3.55,3.55,1.8532,1.9271,1.9774,1.9863,1.9901,2.0118,2.0705,2.1363,2.1979,2.2554,2.3179,2.3595,2.3595,2.3595,2.3616,2.3659,2.4158,2.4491,2.4552,2.5465,2.6031,2.605,2.647,2.628,2.5338,2.5319,2.5319,2.5319,2.5319,2.558,2.605,2.605,2.6297,2.6691,2.6691,2.6691,2.6691,2.6741,2.6741,2.6708,2.6791,2.675,2.6713,2.6776,2.6812,2.6905,2.771,2.9368,3.0967,2.9487,2.9005,2.9005,2.9005,2.9005,2.9005,2.9005,2.9005,2.8995,2.901,3.1347,3.3802,3.3805,3.3807,3.3797,3.3802,3.2669,3.1453,3.0857,3.1525,3.2305,3.2671,3.2938,3.3354,3.4123,3.4529,3.4813,3.507,3.5122,3.5223,3.546,3.6212,3.6404,3.5673,3.7123,3.8123,3.8123,3.8911,3.9419,3.9419,4.0092,4.0496,4.0496,4.0496,4.0496,4.0496,4.0496,4.0496,4.0496,4.0496,4.0496,4.0496,4.0496,4.0054,3.9246,3.8373,3.7969,3.7757,3.6154,3.5923,3.6519,3.5788,3.55,3.55,3.55,3.55,3.55,1.8635,1.9058,1.9472,2.0432,2.0572,2.0637,2.0768,2.1773,2.2349,2.1966,2.29,2.3595,2.3595,2.3595,2.3773,2.4199,2.4732,2.5186,2.5633,2.587,2.6157,2.6522,2.6641,2.6607,2.6385,2.6367,2.6367,2.6367,2.6367,2.6436,2.6556,2.6556,2.6607,2.6691,2.6691,2.6691,2.6725,2.7052,2.7004,2.6758,2.7396,2.7263,2.6776,2.7397,2.7638,2.7731,2.8484,2.9094,2.9478,2.911,2.9005,2.9005,2.9005,2.9005,2.9005,2.9005,2.9005,2.8995,2.901,3.1347,3.3802,3.3805,3.3807,3.3797,3.3802,3.3532,3.3002,3.2049,3.2043,3.2531,3.3654,3.391,3.4076,3.4513,3.4832,3.5025,3.5096,3.5281,3.5439,3.5493,3.6212,3.6635,3.6462,3.8007,3.9015,3.9015,3.9785,4.0246,4.0246,4.0419,4.0496,4.0496,4.0496,4.0496,4.0496,4.0496,4.0496,4.0496,4.0496,4.0496,4.0496,4.0496,4.0054,3.9246,3.8373,3.7603,3.6904,3.5904,3.5596,3.5731,3.5577,3.55,3.55,3.55,3.55,3.55,1.8383,1.8607,1.89,1.9795,1.993,2.0117,2.0675,2.1318,2.1722,2.1687,2.2553,2.3041,2.2727,2.3459,2.4199,2.4716,2.5278,2.5689,2.5995,2.6209,2.6436,2.6691,2.6691,2.6691,2.6691,2.6691,2.6691,2.6691,2.6691,2.6691,2.6691,2.6691,2.6691,2.6708,2.6906,2.6988,2.7003,2.7426,2.7454,2.7319,2.7739,2.7713,2.7459,2.7873,2.8213,2.8474,2.8846,2.8998,2.9112,2.9885,2.9627,2.9005,2.9005,2.9005,2.9005,2.9005,2.9005,2.8995,2.901,3.1347,3.3802,3.3802,3.3789,3.3801,3.3808,3.38,3.364,3.3078,3.2961,3.3247,3.4127,3.4427,3.462,3.4851,3.5113,3.5289,3.5289,3.5417,3.5635,3.6038,3.6808,3.7623,3.843,3.8988,3.9457,3.9842,4.0265,4.0496,4.0496,4.0496,4.0496,4.0496,4.0496,4.0496,4.0496,4.0496,4.0496,4.0496,4.0496,4.0496,4.0496,4.0496,4.0265,3.9823,3.8969,3.8354,3.7834,3.6596,3.6077,3.6038,3.5654,3.55,3.55,3.55,3.55,3.55,1.7955,1.8055,1.8289,1.9021,1.9135,1.9507,2.0532,2.0804,2.1032,2.1471,2.2119,2.2334,2.1858,2.3299,2.4516,2.5086,2.5619,2.5988,2.6104,2.647,2.6691,2.6691,2.6691,2.6691,2.6691,2.6691,2.6691,2.6691,2.6691,2.6691,2.6691,2.6691,2.6691,2.6725,2.7115,2.7303,2.7317,2.7794,2.7936,2.7911,2.8037,2.8125,2.8201,2.8301,2.8609,2.9,2.8994,2.9005,2.92,3.055,3.0104,2.9005,2.9005,2.9003,2.9,2.9,2.8997,2.8997,2.9002,3.1359,3.3806,3.3801,3.3948,3.4088,3.4092,3.3954,3.3812,3.3793,3.3808,3.3941,3.4405,3.4689,3.4925,3.5147,3.5354,3.557,3.5769,3.575,3.6,3.6827,3.77,3.8815,4.0342,3.99,3.9785,4.0458,4.0496,4.0496,4.0496,4.0496,4.0496,4.0496,4.0496,4.0496,4.0496,4.0496,4.0496,4.0496,4.0496,4.0496,4.0496,4.0496,4.0496,4.0458,3.965,3.9227,3.895,3.7353,3.6615,3.6423,3.575,3.55,3.55,3.55,3.55,3.55,1.7397,1.7505,1.7978,1.951,1.9776,1.9992,2.0612,2.1188,2.1386,2.0897,2.1425,2.1928,2.2194,2.3159,2.4092,2.4783,2.5346,2.5916,2.6556,2.6657,2.6691,2.6691,2.6691,2.6691,2.6691,2.6691,2.6691,2.6691,2.6691,2.6691,2.6691,2.6691,2.6691,2.6725,2.7115,2.7303,2.7348,2.8043,2.817,2.7954,2.8583,2.8591,2.8245,2.8718,2.893,2.9009,2.9,2.9005,2.9023,2.9255,2.9182,2.9005,2.9005,2.8997,2.8994,2.8994,2.9006,2.8989,2.9007,3.1354,3.3807,3.3792,3.4538,3.5277,3.5283,3.4505,3.3794,3.3788,3.3799,3.4004,3.4707,3.4779,3.4884,3.5361,3.547,3.5837,3.6832,3.6724,3.6865,3.7719,3.8584,3.9496,4.0419,4.04,4.0381,4.0496,4.0496,4.0496,4.0496,4.0496,4.0496,4.0496,4.0496,4.0496,4.0496,4.0496,4.0496,4.0496,4.0496,4.0496,4.0496,4.0496,4.0496,4.0458,3.965,3.8873,3.8104,3.7123,3.6288,3.5654,3.5538,3.55,3.55,3.55,3.55,3.55,1.7216,1.7333,1.7769,1.91,1.9336,1.9507,2.0072,2.0378,2.0468,2.0183,2.0737,2.1148,2.1185,2.2341,2.3719,2.513,2.5462,2.5913,2.664,2.6691,2.6691,2.6691,2.6691,2.6691,2.6691,2.6923,2.7052,2.7052,2.6808,2.6691,2.6691,2.6691,2.6808,2.7051,2.7472,2.7751,2.796,2.8502,2.8645,2.8533,2.887,2.8857,2.8676,2.891,2.9,2.9002,2.9012,2.9005,2.9028,2.9226,2.928,2.9246,2.9055,2.9184,2.9439,2.9702,2.9784,2.9782,2.9776,3.2204,3.4746,3.4755,3.5125,3.5493,3.5499,3.5117,3.4748,3.4755,3.4756,3.4859,3.5183,3.5187,3.5526,3.6699,3.7156,3.7303,3.7219,3.7334,3.7757,3.8623,3.9457,4.0112,4.0477,4.0496,4.0496,4.0496,4.0496,4.0496,4.0496,4.0496,4.0496,4.0496,4.0496,4.0496,4.0496,4.0496,4.0496,4.0496,4.0496,4.0496,4.0496,4.0496,4.0496,4.0477,4.0131,3.9227,3.7969,3.7584,3.6673,3.55,3.55,3.55,3.55,3.55,3.5528,3.557]}]]